     2.11           OBSERVATION DATA    G (GPS)             RINEX VERSION / TYPE
teqc 2010Oct21 OPUS Account 20111025 18:55:17UTC            PGM / RUN BY / DATE
B 1521                                                      MARKER NAME
1115                                                        MARKER NUMBER
CSMIDDLETON NGS                                             OBSERVER / AGENCY
4613K00970 TRIMBLE NETR5 4.17                               REC # / TYPE / VERS
60125046 TRM41249.00 NONE                                   ANT # / TYPE
  -738285.7819 -5466451.4756  3191620.1934                  APPROX POSITION XYZ
        2.0040        0.0000        0.0000                  ANTENNA: DELTA H/E/N
     1     1                                                WAVELENGTH FACT L1/2
     5    L1    L2    C1    P1    P2                        # / TYPES OF OBSERV
    15                                                      LEAP SECONDS
  2011     7    27     0     0    0.0000000     GPS         TIME OF FIRST OBS
                                                            END OF HEADER
 11  7 27  0  0  0.0000000  0  9G28G01G17G09G10G04G02G20G27
 114224850.447 8  89006471.97445  21736259.133                    21736266.578
 124706763.935 7                  23730902.680
 112016139.883 7  87285449.52046  21315946.594                    21315953.895
 116796164.856 7  91010083.26744  22225577.844                    22225586.293
 124748386.355 6  97206612.92743  23738835.523                    23738845.980
 104833894.648 8  81688906.09646  19949214.227                    19949222.512
 118178505.706 7  92087276.89545  22488616.594                    22488623.727
 126888475.012 6  98874199.29743  24146079.508                    24146087.629
 117904119.785 7  91873402.40845  22436409.805                    22436418.844
 11  7 27  0  0 30.0000000  0  9G28G01G17G09G10G04G02G20G27
 114272412.770 7  89043533.49945  21745310.250                    21745317.512
 124610005.506 7                  23712489.711
 112046352.575 7  87308991.88246  21321695.539                    21321703.098
 116763069.171 7  90984294.44444  22219279.922                    22219288.063
 124654086.775 6  97133132.86043  23720890.719                    23720900.730
 104813520.793 8  81673030.37146  19945337.617                    19945345.406
 118095865.158 7  92022881.76045  22472890.320                    22472897.574
 126918256.418 6  98897405.55543  24151747.328                    24151755.156
 117889469.027 7  91861986.23545  22433622.211                    22433630.555
 11  7 27  0  1  0.0000000  0  9G28G01G17G09G10G04G02G20G27
 114320345.300 7  89080883.50745  21754431.383                    21754438.480
 124513463.367 7                  23694118.617
 112076665.077 7  87332612.01646  21327464.008                    21327471.469
 116730601.426 7  90958994.89844  22213101.797                    22213109.949
 124559801.015 6  97059663.56143  23702948.172                    23702958.633
 104793720.792 8  81657601.82346  19941569.602                    19941577.477
 118013500.497 7  91958701.57645  22457217.320                    22457223.602
 126948538.033 6  98921001.62943  24157508.688                    24157517.367
 117875310.067 7  91850953.28745  22430927.617                    22430936.043
 11  7 27  0  1 30.0000000  0  9G28G01G17G09G10G04G02G20G27
 114368648.516 7  89118522.33945  21763623.602                    21763630.680
 124417139.735 7                  23675789.117
 112107077.374 8  87356309.91246  21333251.375                    21333258.406
 116698763.038 7  90934185.76944  22207043.273                    22207051.492
 124465532.619 6  96986207.81443  23685009.438                    23685020.215
 104774495.074 8  81642620.75246  19937911.133                    19937919.004
 117931413.945 7  91894738.09845  22441596.281                    22441603.645
 126979319.607 6  98944987.24843  24163367.086                    24163375.363
 117861643.328 7  91840303.87645  22428327.195                    22428335.273
 11  7 27  0  2  0.0000000  0  9G28G01G17G09G10G04G02G20G27
 114417322.458 7  89156450.05245  21772886.031                    21772893.063
 124321036.123 7                  23657501.313
 112137588.734 8  87380084.99646  21339057.156                    21339064.637
 116667554.701 7  90909867.59444  22201104.492                    22201112.766
 124371284.418 6  96912767.77343  23667074.508                    23667084.879
 104755843.483 8  81628087.06646  19934362.102                    19934369.434
 117849606.461 7  91830992.07345  22426029.414                    22426036.066
 127010600.884 6  98969362.24143  24169318.742                    24169327.902
 117848468.775 7  91830037.99245  22425819.469                    22425828.801
 11  7 27  0  2 30.0000000  0  9G28G01G17G09G10G04G02G20G27
 114466367.489 7  89194666.93745  21782218.945                    21782226.246
 124225154.884 7                  23639255.438
 112168199.650 8  87403937.66746  21344882.750                    21344889.836
 116636977.715 7  90886041.37445  22195285.773                    22195293.777
 124277059.623 6  96839345.96843  23649144.195                    23649154.609
 104737766.199 8  81614000.88946  19930921.828                    19930929.273
 117768079.536 7  91767464.67145  22410515.094                    22410521.594
 127042381.552 6  98994126.41442  24175367.375                    24175374.957
 117835786.824 7  91820155.95445  22423407.156                    22423415.219
 11  7 27  0  3  0.0000000  0  9G28G01G17G09G10G04G02G20G27
 114515783.809 7  89233173.12145  21791622.805                    21791630.152
 124129497.532 7                  23621052.102
 112198908.802 8  87427866.87146  21350726.273                    21350733.535
 116607032.543 7  90862707.47945  22189587.539                    22189595.238
 124182861.041 6  96765944.63043  23631218.734                    23631229.445
 104720262.972 8  81600362.02946  19927591.094                    19927598.973
 117686834.489 7  91704156.90745  22395054.648                    22395060.559
 127074660.773 6  99019279.07842  24181509.555                    24181518.023
 117823597.294 7  91810657.62445  22421087.141                    22421095.043
 11  7 27  0  3 30.0000000  0  9G28G01G17G09G10G04G02G20G27
 114565571.707 8  89271968.85345  21801096.977                    21801104.246
 124034065.950 7                  23602891.430
 112229716.354 8  87451872.75646  21356588.625                    21356595.898
 116577720.288 7  90839866.75545  22184009.695                    22184017.730
 124088692.254 7  96692566.47143  23613298.875                    23613309.688
 104703333.838 8  81587170.50646  19924369.719                    19924377.160
 117605873.110 7  91641070.18345  22379648.359                    22379653.895
 127107438.552 6  99044820.16343  24187747.961                    24187754.977
 117811900.552 7  91801543.28045  22418861.188                    22418869.629
 11  7 27  0  4  0.0000000  0  9G28G01G17G09G10G04G02G20G27
 114615730.650 7  89311053.71145  21810641.555                    21810648.980
 123938861.428 7                  23584774.516
 112260621.783 8  87475954.91246  21362470.047                    21362477.199
 116549041.192 7  90817519.42545  22178551.781                    22178559.961
 123994555.938 7  96619213.58943  23595385.289                    23595395.633
 104686978.334 8  81574425.97546  19921257.102                    19921265.082
 117525196.599 7  91578205.44245  22364295.930                    22364301.684
 127140713.841 6  99070748.94443  24194079.500                    24194086.523
 117800696.337 7  91792812.72745  22416729.250                    22416737.676
 11  7 27  0  4 30.0000000  0  9G28G01G17G09G10G04G02G20G27
 114666261.690 7  89350428.51545  21820257.516                    21820264.719
 123843886.530 7                  23566701.055
 112291625.036 8  87500113.28046  21368369.719                    21368376.816
 116520996.840 7  90795666.68244  22173215.305                    22173223.453
 123900455.899 7  96545888.97643  23577478.711                    23577488.820
 104671196.824 8  81562128.71646  19918253.813                    19918262.070
 117444806.970 7  91515564.24245  22348997.875                    22349004.254
 127174486.605 6  99097065.40343  24200506.102                    24200514.121
 117789985.308 7  91784466.45345  22414690.789                    22414699.813
 11  7 27  0  5  0.0000000  0  9G28G01G17G09G10G04G02G20G27
 114717163.495 7  89390092.22345  21829943.508                    21829951.246
 123749142.052 7                  23548671.203
 112322724.585 7  87524346.69946  21374287.609                    21374294.668
 116493586.612 7  90774308.08044  22167999.586                    22168007.492
 123806394.099 6  96472594.16543  23559578.594                    23559588.945
 104655988.160 8  81550277.81446  19915360.102                    19915368.070
 117364704.601 8  91453146.87645  22333755.109                    22333761.176
 127208755.522 6  99123768.42743  24207027.250                    24207034.902
 117779766.529 7  91776503.77645  22412745.883                    22412754.574
 11  7 27  0  5 30.0000000  0  9G28G01G17G09G10G04G02G20G27
 114768437.311 7  89430045.80745  21839701.047                    21839708.539
 123654630.516 7                  23530686.477
 112353921.511 8  87548655.97946  21380224.102                    21380231.449
 116466812.531 7  90753445.15144  22162904.398                    22162912.563
 123712374.817 6  96399332.45243  23541687.672                    23541697.809
 104641352.984 8  81538873.78646  19912574.961                    19912582.504
 117284891.457 7  91390954.87245  22318567.242                    22318573.586
 127243520.770 6  99150858.21743  24213642.359                    24213650.773
 117770040.776 7  91768925.26145  22410895.281                    22410903.645
 11  7 27  0  6  0.0000000  0  9G28G01G17G09G10G04G02G20G27
 114820082.533 7  89470288.81345  21849528.258                    21849535.586
 123560352.678 7                  23512746.648
 112385214.446 7  87573040.07646  21386178.664                    21386186.160
 116440674.488 7  90733077.86344  22157930.484                    22157939.230
 123618400.509 6  96326105.81843  23523804.656                    23523814.934
 104627290.670 8  81527916.14146  19909899.125                    19909906.738
 117205368.635 8  91328989.09645  22303434.555                    22303440.746
 127278781.013 6  99178333.76243  24220352.484                    24220360.352
 117760807.504 7  91761730.48145  22409138.273                    22409146.375
 11  7 27  0  6 30.0000000  0  9G28G01G17G09G10G04G02G20G27
 114872099.515 7  89510821.49845  21859427.484                    21859434.730
 123466310.965 7                  23494851.000
 112416603.408 8  87597499.00346  21392152.469                    21392159.914
 116415173.097 7  90713206.64544  22153077.594                    22153085.770
 123524474.681 6  96252916.96143  23505931.094                    23505940.914
 104613800.664 8  81517404.45946  19907331.703                    19907339.770
 117126137.778 8  91267250.83045  22288357.031                    22288363.785
 127314535.846 6  99206194.66843  24227156.945                    24227164.883
 117752066.793 7  91754919.53045  22407475.195                    22407483.391
 11  7 27  0  7  0.0000000  0  9G28G01G17G09G10G04G02G20G27
 114924488.208 7  89551643.82145  21869395.891                    21869404.082
 123372506.894 7                  23477000.711
 112448088.101 8  87622032.52346  21398143.555                    21398150.723
 116390308.920 7  90693831.96645  22148346.383                    22148354.504
 123430600.362 6  96179768.23843  23488067.375                    23488078.012
 104600883.052 8  81507338.79346  19904874.008                    19904881.793
 117047199.698 8  91205740.69045  22273335.875                    22273342.309
 127350784.909 6  99234440.62443  24234054.656                    24234062.332
 117743818.536 7  91748492.30745  22405905.375                    22405914.016
 11  7 27  0  7 30.0000000  0  9G28G01G17G09G10G04G02G20G27
 114977248.380 7  89592755.61145  21879436.516                    21879443.570
 123278942.228 7                  23459195.945
 112479668.188 7  87646640.37546  21404152.883                    21404160.273
 116366082.546 7  90674954.27244  22143736.273                    22143743.855
 123336780.893 6  96106662.24143  23470214.906                    23470224.430
 104588537.493 8  81497718.89246  19902524.555                    19902532.242
 116968556.152 8  91144460.08845  22258370.273                    22258376.895
 127387527.306 6  99263071.02142  24241045.781                    24241054.805
 117736062.560 7  91742448.66645  22404430.078                    22404437.656
 11  7 27  0  8  0.0000000  0  9G28G01G17G09G10G04G02G20G27
 115030380.306 7  89634157.07045  21889546.992                    21889554.371
 123185618.776 7                  23441437.320
 112511343.453 8  87671322.38746  21410180.703                    21410188.070
 116342494.792 7  90656574.22045  22139247.359                    22139255.691
 123243019.200 6  96033601.27443  23452371.891                    23452382.465
 104576763.522 8  81488544.37146  19900284.109                    19900291.816
 116890208.544 8  91083410.05845  22243461.258                    22243467.637
 127424762.347 6  99292085.35243  24248131.625                    24248140.094
 117728798.841 7  91736788.62445  22403047.578                    22403055.801
 11  7 27  0  8 30.0000000  0  9G28G01G17G09G10G04G02G20G27
 115083883.881 7  89675848.13345  21899728.797                    21899735.617
 123092537.985 7                  23423723.883
 112543113.254 8  87696078.06446  21416226.148                    21416233.645
 116319545.966 7  90638692.00844  22134880.844                    22134888.668
 123149318.436 6  95960587.78743  23434541.117                    23434551.098
 104565560.688 8  81479814.90246  19898151.930                    19898159.738
 116812158.006 8  91022591.51145  22228608.688                    22228615.172
 127462489.206 6  99321482.83643  24255311.516                    24255319.277
 117722027.129 7  91731511.95545  22401758.742                    22401766.660
 11  7 27  0  9  0.0000000  0  9G28G01G17G09G10G04G02G20G27
 115137758.350 7  89717828.20745  21909980.648                    21909987.719
 122999701.454 7                  23406058.523
 112574977.089 8  87720907.02046  21422289.938                    21422296.742
 116297236.209 7  90621307.79945  22130634.813                    22130643.492
 123055681.445 6  95887624.00543  23416722.680                    23416732.813
 104554928.040 8  81471529.73146  19896128.859                    19896137.027
 116734405.579 7  90962005.25845  22213812.430                    22213819.676
 127500707.014 6  99351262.93842  24262583.594                    24262592.371
 117715746.951 7  91726618.29445  22400563.805                    22400572.277
 11  7 27  0  9 30.0000000  0  9G28G01G17G09G10G04G02G20G27
 115192004.158 7  89760097.62145  21920303.570                    21920310.406
 122907110.521 7                  23388438.273
 112606934.911 8  87745809.19946  21428371.422                    21428378.758
 116275566.129 7  90604422.02244  22126511.148                    22126520.363
 122962111.941 6  95814712.79443  23398916.602                    23398927.039
 104544865.878 8  81463689.08146  19894214.125                    19894222.227
 116656952.805 7  90901652.50445  22199073.641                    22199080.770
 127539415.263 6  99381425.20043  24269948.805                    24269958.031
 117709958.472 7  91722107.78045  22399462.594                    22399470.891
 11  7 27  0 10  0.0000000  0  9G28G01G17G09G10G04G02G20G27
 115246621.209 7  89802656.34345  21930697.078                    21930703.539
 122814767.450 7                  23370865.633
 112638986.067 8  87770784.11646  21434470.352                    21434477.488
 116254535.788 7  90588034.75045  22122509.391                    22122517.293
 122868612.879 6  95741856.46643  23381124.758                    23381134.188
 104535373.400 8  81456292.35346  19892407.828                    19892415.121
 116579800.636 7  90841533.99045  22184392.172                    22184398.648
 127578612.707 6  99411968.60243  24277409.172                    24277417.020
 117704660.914 7  91717979.80345  22398454.453                    22398462.566
 11  7 27  0 10 30.0000000  0  9G28G01G17G09G10G04G02G20G27
 115301609.760 7  89845504.52045  21941160.586                    21941167.184
 122722673.834 7                  23353340.664
 112671131.401 7  87795832.41646  21440587.000                    21440594.637
 116234146.394 7  90572146.92644  22118629.023                    22118637.750
 122775187.710 6  95669057.73844  23363346.422                    23363356.277
 104526450.617 8  81449339.54246  19890709.703                    19890717.641
 116502951.051 7  90781651.26445  22169768.602                    22169775.418
 127618299.435 6  99442893.30243  24284961.109                    24284968.723
 117699854.808 7  91714234.76845  22397539.922                    22397548.566
 11  7 27  0 11  0.0000000  0  9G28G01G17G09G10G04G02G20G27
 115356969.577 7  89888642.01945  21951695.305                    21951702.258
 122630831.718 7                  23335863.617
 112703370.162 7  87820953.51146  21446722.344                    21446729.602
 116214397.987 7  90556758.54944  22114871.219                    22114880.188
 122681839.630 6  95596319.06844  23345582.766                    23345592.266
 104518096.957 8  81442830.20646  19889119.766                    19889128.277
 116426405.171 7  90722005.18945  22155201.844                    22155208.484
 127658474.179 6  99474198.27443  24292606.320                    24292614.617
 117695539.990 7  91710872.55545  22396718.844                    22396727.066
 11  7 27  0 11 30.0000000  0  9G28G01G17G09G10G04G02G20G27
 115412700.250 7  89932068.47745  21962300.125                    21962307.785
 122539241.887 7                  23318434.250
 112735701.773 8  87846146.95846  21452874.906                    21452881.969
 116195290.543 7  90541869.64545  22111234.961                    22111243.277
 122588571.634 6  95523642.81944  23327834.156                    23327843.844
 104510311.551 8  81436763.65946  19887638.336                    19887646.270
 116350163.813 7  90662596.39245  22140693.430                    22140700.406
 127699135.748 6  99505882.57443  24300343.672                    24300351.594
 117691715.722 7  91707892.59345  22395991.195                    22395999.254
 11  7 27  0 12  0.0000000  0  9G28G01G17G09G10G04G02G20G27
 115468801.282 7  89975783.53445  21972975.688                    21972983.434
 122447905.989 7                  23301053.813
 112768125.490 7  87871412.17546  21459044.578                    21459052.309
 116176824.408 7  90527480.44345  22107721.453                    22107729.457
 122495386.629 6  95451031.21044  23310101.688                    23310111.371
 104503093.614 8  81431139.30546  19886265.172                    19886272.781
 116274228.230 7  90603425.86345  22126243.484                    22126250.262
 127740283.533 6  99537945.78843  24308174.359                    24308182.055
 117688381.423 7  91705294.43845  22395356.773                    22395364.660
 11  7 27  0 12 30.0000000  0  9G28G01G17G09G10G04G02G20G27
 115525273.212 7  90019787.60245  21983722.508                    21983729.969
 122356825.999 7                  23283722.109
 112800641.762 7  87896749.51345  21465231.844                    21465239.754
 116158999.961 7  90513591.27145  22104329.242                    22104337.504
 122402288.133 6  95378487.01944  23292385.984                    23292394.969
 104496442.909 8  81425956.94446  19884999.680                    19885007.621
 116198599.917 7  90544494.76245  22111851.453                    22111858.219
 127781916.651 6  99570387.15043  24316096.508                    24316104.680
 117685537.116 7  91703078.08245  22394815.367                    22394823.762
 11  7 27  0 13  0.0000000  0  9G28G01G17G09G10G04G02G20G27
 115582115.706 7  90064080.40845  21994539.313                    21994546.871
 122266003.380 7                  23266438.688
 112833250.112 7  87922158.59146  21471437.250                    21471444.957
 116141817.322 7  90500202.20844  22101059.867                    22101068.246
 122309279.310 6  95306012.70543  23274686.430                    23274695.762
 104490358.915 8  81421216.17846  19883841.992                    19883849.484
 116123280.047 8  90485804.00845  22097518.867                    22097525.508
 127824034.243 6  99603206.03843  24324112.133                    24324119.348
 117683182.184 7  91701243.06545  22394367.469                    22394375.883
 11  7 27  0 13 30.0000000  0  9G28G01G17G09G10G04G02G20G27
 115639328.703 7  90108661.93345  22005427.047                    22005433.961
 122175440.214 7                  23249204.656
 112865950.717 7  87947639.57646  21477659.992                    21477667.719
 116125277.054 7  90487313.67145  22097912.586                    22097920.563
 122216363.648 6  95233610.99043  23257004.984                    23257014.313
 104484841.078 8  81416916.57646  19882791.555                    19882799.594
 116048269.886 7  90427354.58345  22083245.391                    22083251.539
 127866635.335 6  99636401.65743  24332217.727                    24332225.734
 117681316.816 7  91699789.52545  22394012.594                    22394020.703
 11  7 27  0 14  0.0000000  0  9G28G01G17G09G10G04G02G20G27
 115696911.551 7  90153531.64845  22016383.813                    22016391.676
 122085137.361 7                  23232020.984
 112898742.874 7  87973191.88746  21483900.648                    21483908.047
 116109378.709 7  90474925.35645  22094886.125                    22094895.379
 122123544.111 6  95161284.14443  23239342.047                    23239351.441
 104479888.604 8  81413057.51546  19881849.313                    19881857.262
 115973570.379 8  90369147.22945  22069030.297                    22069036.277
 127909718.984 6  99669973.28943  24340416.727                    24340424.691
 117679940.177 7  91698716.82145  22393750.219                    22393758.961
 11  7 27  0 14 30.0000000  0  9G28G01G17G09G10G04G02G20G27
 115754864.078 7  90198689.41345  22027412.250                    22027419.801
 121995096.686 7                  23214887.102
 112931626.795 7  87998815.72046  21490158.141                    21490165.344
 116094122.682 7  90463037.53244  22091983.711                    22091991.988
 122030824.184 6  95089034.91843  23221697.852                    23221707.355
 104475500.737 8  81409638.41346  19881014.070                    19881022.004
 115899183.062 8  90311183.12745  22054874.500                    22054880.605
 127953284.040 6  99703920.05043  24348706.977                    24348714.906
 117679051.963 7  91698024.70245  22393581.188                    22393589.770
 11  7 27  0 15  0.0000000  0  9G28G01G17G09G10G04G02G20G27
 115813186.047 7  90244135.07845  22038510.305                    22038517.906
 121905319.822 7                  23197802.641
 112964601.541 7  88024510.32146  21496432.898                    21496440.145
 116079508.855 7  90451650.15145  22089202.461                    22089210.734
 121938207.001 6  95016865.77143  23204073.281                    23204082.711
 104471676.913 8  81406658.82446  19880286.438                    19880294.492
 115825108.951 8  90253463.09545  22040779.063                    22040785.508
 127997329.494 6  99738241.17443  24357089.078                    24357096.109
 117678651.806 7  91697712.87545  22393505.047                    22393513.477
 11  7 27  0 15 30.0000000  0  9G28G01G17G09G10G04G02G20G27
 115871877.472 7  90289868.60145  22049679.055                    22049686.430
 121815808.107 7                  23180769.125
 112997667.535 7  88050276.01746  21502725.266                    21502732.609
 116065537.555 7  90440763.42445  22086543.586                    22086552.758
 121845695.601 6  94944779.04443  23186468.156                    23186478.715
 104468416.315 8  81404118.09846  19879666.070                    19879674.098
 115751348.923 8  90195987.79145  22026742.742                    22026749.094
 128041854.720 6  99772936.15543  24365561.086                    24365568.926
 117678739.079 6  91697780.87145  22393521.383                    22393529.730
 11  7 27  0 16  0.0000000  0  9G28G01G17G09G10G04G02G20G27
 115930938.288 7  90335889.97745  22060918.039                    22060925.332
 121726563.729 7                  23163786.156
 113030824.504 7  88076112.60946  21509034.477                    21509042.133
 116052208.799 7  90430377.38244  22084007.633                    22084016.047
 121753293.518 6  94872777.49744  23168885.211                    23168895.109
 104465718.565 8  81402015.97246  19879152.906                    19879160.238
 115677904.731 8  90138758.60145  22012766.438                    22012773.109
 128086858.641 6  99808004.12243  24374125.078                    24374133.293
 117679313.693 7  91698228.62645  22393630.359                    22393639.559
 11  7 27  0 16 30.0000000  0 10G28G12G01G17G09G10G04G02G20G27
 115990367.877 7  90382198.71345  22072227.250                    22072234.547
 129556226.04516 100952977.44452  24653739.711                    24653748.051
 121637587.795 7                  23146854.031
 113064072.136 7  88102019.85146  21515362.008                    21515368.820
 116039522.669 7  90420492.07245  22081593.266                    22081602.168
 121661003.866 6  94800863.58444  23151323.539                    23151333.270
 104463582.670 8  81400351.64946  19878746.133                    19878753.848
 115604777.144 8  90081776.11445  21998850.820                    21998857.230
 128132339.999 6  99843444.13443  24382779.586                    24382787.516
 117680374.781 7  91699055.43745  22393832.328                    22393841.160
 11  7 27  0 17  0.0000000  0 10G28G12G01G17G09G10G04G02G20G27
 116050166.610 7  90428795.08045  22083606.469                    22083614.043
 129459340.724 6 100877482.53242  24635302.352                    24635311.238
 121548882.174 6                  23129974.070
 113097410.832 7  88127998.05646  21521705.797                    21521712.879
 116027479.373 7  90411107.67945  22079301.609                    22079310.555
 121568830.419 6  94729040.18944  23133783.141                    23133792.930
 104462008.329 7  81399124.90346  19878446.953                    19878454.328
 115531967.951 8  90025041.72345  21984995.594                    21985001.781
 128178298.189 6  99879255.65643  24391525.781                    24391533.945
 117681922.474 7  91700261.43445  22394126.992                    22394135.977
 11  7 27  0 17 30.0000000  0 10G28G12G01G17G09G10G04G02G20G27
 116110333.093 7  90475678.00945  22095056.172                    22095063.184
 129362433.371 6 100801970.33542  24616862.141                    24616870.551
 121460447.592 7                  23113146.148
 113130839.307 7  88154046.21845  21528067.047                    21528074.582
 116016078.170 7  90402223.61745  22077132.109                    22077140.852
 121476776.028 6  94657309.56344  23116266.008                    23116275.480
 104460993.929 8  81398334.47446  19878253.906                    19878261.527
 115459477.244 8  89968555.51245  21971201.305                    21971207.203
 128224731.523 6  99915437.48542  24400361.359                    24400369.586
 117683955.377 7  91701845.51745  22394514.016                    22394522.633
 11  7 27  0 18  0.0000000  0 10G28G12G01G17G09G10G04G02G20G27
 116170867.666 7  90522847.78245  22106575.422                    22106582.969
 129265506.317 6 100726442.82643  24598417.516                    24598425.777
 121372286.589 6                  23096369.742
 113164358.223 7  88180164.84946  21534445.344                    21534452.652
 116005319.775 7  90393840.43445  22075085.383                    22075093.605
 121384844.299 6  94585674.49244  23098771.914                    23098781.691
 104460539.461 8  81397980.35646  19878167.180                    19878174.605
 115387306.951 8  89912318.95945  21957468.078                    21957473.656
 128271639.254 6  99951988.94442  24409287.453                    24409296.133
 117686473.603 7  91703807.75945  22394993.516                    22395001.953
 11  7 27  0 18 30.0000000  0 10G28G12G01G17G09G10G04G02G20G27
 116231769.223 7  90570303.50245  22118164.648                    22118171.813
 129168560.512 6 100650900.67743  24579970.102                    24579977.148
 121284399.645 7                  23079645.313
 113197966.538 7  88206353.14046  21540841.023                    21540847.977
 115995203.189 7  90385957.37645  22073159.859                    22073168.664
 121293037.699 6  94514136.94144  23081301.328                    23081311.246
 104460642.983 8  81398061.03846  19878186.820                    19878194.387
 115315457.515 8  89856332.43645  21943794.836                    21943801.246
 128319019.722 6  99988908.74842  24418303.258                    24418312.031
 117689475.713 7  91706147.06145  22395564.586                    22395573.094
 11  7 27  0 19  0.0000000  0 10G28G12G01G17G09G10G04G02G20G27
 116293038.307 7  90618045.58845  22129823.789                    22129831.098
 129071597.764 6 100575345.39443  24561517.406                    24561526.363
 121196788.730 7                  23062972.688
 113231665.247 8  88232611.86846  21547253.664                    21547260.703
 115985728.378 7  90378574.39845  22071357.203                    22071365.547
 121201359.635 6  94442699.55544  23063855.711                    23063865.727
 104461303.991 8  81398576.11646  19878312.914                    19878320.492
 115243929.869 8  89800596.66545  21930183.852                    21930190.004
 128366872.112 6 100026196.30742  24427410.328                    24427418.250
 117692961.334 7  91708863.12745  22396228.383                    22396236.523
 11  7 27  0 19 30.0000000  0 10G28G12G01G17G09G10G04G02G20G27
 116354674.287 7  90666073.57244  22141553.164                    22141559.883
 128974620.349 6 100499778.65343  24543063.430                    24543071.742
 121109455.148 7                  23046353.828
 113265453.604 7  88258940.46146  21553683.203                    21553690.820
 115976895.436 7  90371691.58044  22069675.805                    22069684.094
 121109813.923 6  94371365.29644  23046434.875                    23046444.695
 104462522.202 8  81399525.39146  19878544.281                    19878551.941
 115172725.638 8  89745112.89245  21916633.977                    21916640.234
 128415195.304 6 100063850.81142  24436605.523                    24436613.250
 117696930.451 7  91711955.93345  22396982.992                    22396991.645
 11  7 27  0 20  0.0000000  0 10G28G12G01G17G09G10G04G02G20G27
 116416676.331 7  90714386.81544  22153350.594                    22153358.016
 128877629.116 6 100424201.14443  24524606.109                    24524615.242
 121022400.311 7                  23029787.953
 113299331.033 7  88285338.45446  21560129.633                    21560137.418
 115968703.840 7  90365308.49045  22068117.109                    22068125.680
 121018403.350 6  94300136.36744  23029040.039                    23029049.988
 104464296.051 8  81400907.62146  19878882.203                    19878889.809
 115101845.613 7  89689881.74645  21903146.414                    21903152.273
 128463987.978 6 100101871.01542  24445889.922                    24445897.496
 117701381.818 7  91715424.51045  22397830.500                    22397838.629
 11  7 27  0 20 30.0000000  0 10G28G12G01G17G09G10G04G02G20G27
 116479044.311 7  90762985.18745  22165219.375                    22165226.895
 128780626.164 6 100348614.49943  24506146.445                    24506156.160
 120935626.021 7                  23013275.297
 113333297.610 7  88311805.89946  21566593.648                    21566600.969
 115961153.783 7  90359425.32945  22066680.797                    22066689.098
 120927131.293 6  94229015.38144  23011671.547                    23011680.973
 104466624.807 8  81402722.24346  19879325.531                    19879333.043
 115031290.995 8  89634904.17745  21889720.047                    21889726.215
 128513248.758 6 100140256.02542  24455265.008                    24455271.961
 117706314.985 7  91719268.52245  22398768.945                    22398777.512
 11  7 27  0 21  0.0000000  0 10G28G12G01G17G09G10G04G02G20G27
 116541778.056 7  90811868.60244  22177157.133                    22177164.480
 128683613.520 6 100273020.26343  24487686.367                    24487695.273
 120849133.915 7                  22996816.500
 113367353.696 7  88338343.09346  21573074.461                    21573081.941
 115954244.840 7  90354041.73745  22065365.727                    22065374.117
 120836001.605 7  94158005.29544  22994329.734                    22994339.613
 104469507.854 8  81404968.79346  19879873.766                    19879881.293
 114961062.911 8  89580181.03745  21876355.773                    21876362.242
 128562976.885 6 100179005.21042  24464728.602                    24464736.070
 117711729.335 7  91723487.48145  22399800.125                    22399808.281
 11  7 27  0 21 30.0000000  0 10G28G12G01G17G09G10G04G02G20G27
 116604876.211 7  90861035.94744  22189164.383                    22189172.004
 128586592.295 6 100197419.42043  24469224.133                    24469232.457
 120762924.260 7                  22980411.227
 113401498.433 7  88364949.37746  21579571.445                    21579579.164
 115947975.866 7  90349156.83244  22064172.867                    22064181.621
 120745016.634 7  94087107.98944  22977016.031                    22977025.047
 104472943.215 8  81407645.70746  19880527.320                    19880535.039
 114891161.740 7  89525712.64845  21863053.984                    21863060.523
 128613170.357 6 100218116.97942  24474278.609                    24474287.754
 117717623.414 7  91728080.24845  22400921.258                    22400929.629
 11  7 27  0 22  0.0000000  0 10G28G12G01G17G09G10G04G02G20G27
 116668339.563 7  90910487.85744  22201241.258                    22201248.734
 128489564.572 6 100121813.46543  24450759.672                    24450768.461
 120677000.047 7                  22964060.820
 113435732.429 7  88391625.22246  21586086.391                    21586093.871
 115942347.622 7  90344771.16345  22063102.281                    22063110.820
 120654180.624 6  94016326.76144  22959730.711                    22959739.988
 104476931.084 8  81410753.14946  19881286.297                    19881294.098
 114821589.502 8  89471500.56245  21849814.734                    21849821.234
 128663828.768 6 100257591.08642  24483918.711                    24483927.156
 117723997.431 7  91733047.00645  22402134.375                    22402142.934
 11  7 27  0 22 30.0000000  0 10G28G12G01G17G09G10G04G02G20G27
 116732166.757 7  90960223.29344  22213386.906                    22213394.648
 128392531.600 6 100046203.37943  24432295.719                    24432303.734
 120591361.728 7                  22947763.695
 113470054.881 7  88418369.98445  21592617.516                    21592625.086
 115937359.317 7  90340884.17545  22062153.094                    22062161.250
 120563496.206 7  93945663.64743  22942473.750                    22942482.711
 104481469.587 8  81414289.65246  19882149.859                    19882157.586
 114752346.403 8  89417544.94245  21836637.961                    21836644.340
 128714950.254 6 100297426.01242  24493647.031                    24493655.305
 117730850.092 7  91738386.73445  22403438.273                    22403446.688
 11  7 27  0 23  0.0000000  0 10G28G12G01G17G09G10G04G02G20G27
 116796357.704 7  91010242.16344  22225602.727                    22225610.523
 128295495.218 6  99970590.67543  24413829.750                    24413838.215
 120506011.173 7                  22931522.188
 113504466.556 7  88445184.26346  21599165.453                    21599173.441
 115933010.705 7  90337495.64545  22061325.063                    22061333.348
 120472966.877 7  93875121.38944  22925246.727                    22925255.711
 104486557.964 8  81418254.62346  19883118.039                    19883126.055
 114683433.480 7  89363846.61445  21823524.188                    21823530.406
 128766533.676 6 100337620.82143  24503463.055                    24503470.961
 117738180.935 7  91744099.05345  22404832.992                    22404841.723
 11  7 27  0 23 30.0000000  0 10G28G12G01G17G09G10G04G02G20G27
 116860912.062 7  91060544.21644  22237886.711                    22237894.641
 128198457.536 6  99894976.95243  24395364.133                    24395373.262
 120420949.286 7                  22915334.703
 113538966.925 7  88472067.65745  21605731.000                    21605738.668
 115929301.286 7  90334605.18845  22060619.078                    22060627.848
 120382596.025 7  93804702.61644  22908049.992                    22908058.734
 104492195.313 8  81422647.36546  19884191.047                    19884198.609
 114614852.164 8  89310406.67045  21810473.930                    21810480.008
 128818577.645 6 100378174.54443  24513367.352                    24513374.480
 117745989.293 7  91750183.46745  22406318.664                    22406327.465
 11  7 27  0 24  0.0000000  0 10G28G12G01G17G09G10G04G02G20G27
 116925828.546 7  91111128.45045  22250240.195                    22250248.211
 128101419.970 6  99819363.31143  24376898.008                    24376907.535
 120336177.574 7                  22899203.352
 113573555.552 7  88499019.83945  21612313.719                    21612320.871
 115926230.220 7  90332212.14845  22060034.750                    22060043.602
 120292386.799 7  93734409.78344  22890883.289                    22890892.434
 104498380.131 8  81427466.71146  19885367.836                    19885375.805
 114546602.920 8  89257225.49045  21797486.680                    21797492.535
 128871080.692 6 100419086.00343  24523358.102                    24523366.211
 117754273.887 7  91756638.97845  22407895.797                    22407904.090
 11  7 27  0 24 30.0000000  0 10G28G12G01G17G09G10G04G02G20G27
 116991107.712 7  91161995.28745  22262662.789                    22262670.324
 128004384.775 6  99743751.45743  24358433.586                    24358442.348
 120251697.846 7                  22883127.383
 113608232.912 7  88526041.15845  21618911.906                    21618919.289
 115923797.691 7  90330316.67845  22059572.281                    22059580.488
 120202342.871 7  93664245.77244  22873748.742                    22873757.793
 104505111.950 7  81432712.28046  19886648.898                    19886656.598
 114478687.362 8  89204304.32345  21784562.656                    21784568.750
 128924042.149 6 100460354.64943  24533435.555                    24533444.488
 117763034.324 7  91763465.28445  22409562.797                    22409571.113
 11  7 27  0 25  0.0000000  0 10G28G12G01G17G09G10G04G02G20G27
 117056748.208 7  91213143.69244  22275153.477                    22275160.973
 127907353.098 6  99668142.43043  24339968.477                    24339977.441
 120167511.200 7                  22867107.711
 113642998.355 7  88553131.11646  21625527.969                    21625534.949
 115922002.518 7  90328917.84045  22059230.484                    22059238.738
 120112466.864 6  93594212.60044  22856645.625                    22856654.750
 104512389.053 8  81438382.76346  19888033.844                    19888041.598
 114411105.812 8  89151643.42745  21771702.164                    21771708.160
 128977460.142 6 100501979.04543  24543601.930                    24543609.391
 117772269.353 7  91770661.38845  22411319.953                    22411328.602
 11  7 27  0 25 30.0000000  0 10G28G12G01G17G09G10G04G02G20G27
 117122749.645 7  91264573.34445  22287713.336                    22287720.766
 127810326.879 6  99592537.64443  24321504.820                    24321513.805
 120083619.156 7                  22851143.188
 113677852.595 7  88580290.25945  21632159.938                    21632167.473
 115920844.704 7  90328015.65445  22059010.055                    22059018.457
 120022762.725 7  93524313.35144  22839575.570                    22839584.512
 104520210.723 8  81444477.57046  19889522.203                    19889529.793
 114343859.465 8  89099243.71945  21758905.492                    21758911.715
 129031333.332 6 100543958.14942  24553852.844                    24553860.930
 117781978.330 7  91778226.80645  22413167.609                    22413175.840
 11  7 27  0 26  0.0000000  0 10G28G12G01G17G09G10G04G02G20G27
 117189112.437 7  91316284.57345  22300340.836                    22300349.109
 127713308.704 6  99516939.10643  24303043.008                    24303051.773
 120000023.576 7                  22835235.586
 113712795.785 7  88607518.71745  21638809.625                    21638817.238
 115920323.775 7  90327609.72845  22058910.719                    22058919.262
 119933234.192 7  93454550.96444  22822538.266                    22822547.656
 104528576.253 8  81450996.17246  19891114.219                    19891121.977
 114276949.970 8  89047106.48245  21746173.242                    21746179.598
 129085660.813 6 100586291.21842  24564191.523                    24564198.816
 117792161.003 7  91786161.33145  22415105.250                    22415113.785
 11  7 27  0 26 30.0000000  0 10G28G12G01G17G09G10G04G02G20G27
 117255834.854 7  91368276.01544  22313038.273                    22313045.992
 127616299.398 6  99441347.46743  24284583.508                    24284590.898
 119916725.030 7                  22819384.398
 113747826.778 7  88634815.59545  21645475.836                    21645483.199
 115920438.551 7  90327699.17145  22058932.898                    22058941.707
 119843883.669 7  93384927.24244  22805535.570                    22805545.586
 104537483.732 8  81457937.07146  19892809.273                    19892817.086
 114210377.191 8  88995231.62245  21733504.766                    21733511.320
 129140440.729 6 100628976.83443  24574615.617                    24574622.992
 117802815.592 7  91794463.58145  22417132.805                    22417141.082
 11  7 27  0 27  0.0000000  0 10G28G12G01G17G09G10G04G02G20G27
 117322917.949 7  91420548.52344  22325804.023                    22325811.609
 127519302.679 6  99365765.64743  24266125.344                    24266133.070
 119833726.259 7                  22803590.148
 113782947.277 7  88662182.21345  21652159.391                    21652166.254
 115921189.903 7  90328284.65545  22059075.508                    22059084.656
 119754716.302 7  93315446.26344  22788567.773                    22788577.266
 104546933.451 8  81465300.50046  19894607.492                    19894615.086
 114144143.787 8  88943621.21945  21720901.211                    21720907.402
 129195672.696 6 100672014.78243  24585125.336                    24585133.488
 117813942.645 7  91803133.99245  22419250.516                    22419258.598
 11  7 27  0 27 30.0000000  0  9G28G12G01G17G09G10G04G02G27
 117390359.634 7  91473100.44944  22338637.266                    22338645.238
 127422318.771 6  99290193.79843  24247669.328                    24247677.480
 119751027.108 7                  22787853.211
 113818155.859 7  88689617.45645  21658858.883                    21658866.348
 115922575.525 7  90329364.36145  22059339.656                    22059348.227
 119665733.839 6  93246109.36144  22771634.711                    22771644.137
 104556922.620 8  81473084.27246  19896508.203                    19896515.633
 114078249.043 8  88892274.70046  21708361.258                    21708368.031
 117825539.795 7  91812170.72445  22421457.148                    22421465.836
 11  7 27  0 28  0.0000000  0  9G28G12G01G17G09G10G04G02G27
 117458159.462 7  91525931.42744  22351539.109                    22351546.941
 127325349.282 6  99214633.18143  24229216.680                    24229225.293
 119668629.103 7                  22772172.789
 113853452.551 7  88717121.35445  21665576.211                    21665583.156
 115924595.006 7  90330937.96145  22059724.086                    22059732.031
 119576939.552 7  93176919.07544  22754737.797                    22754746.742
 104567450.056 8  81481287.47546  19898511.602                    19898518.969
 114012694.059 8  88841192.94645  21695887.016                    21695892.746
 117837606.180 7  91821573.09645  22423753.602                    22423761.859
 11  7 27  0 28 30.0000000  0  9G28G12G01G17G09G10G04G02G27
 117526316.380 7  91579040.65744  22364509.453                    22364517.234
 127228395.979 6  99139085.14343  24210767.406                    24210775.664
 119586533.544 7                  22756551.008
 113888837.275 7  88744693.86146  21672309.422                    21672316.695
 115927247.141 7  90333004.57745  22060228.188                    22060236.930
 119488336.641 7  93107877.92944  22737876.883                    22737886.750
 104578514.356 8  81489909.00546  19900617.047                    19900624.988
 113947479.229 8  88790376.24145  21683477.109                    21683483.133
 117850140.534 7  91831340.11045  22426138.906                    22426147.109
 11  7 27  0 29  0.0000000  0  9G28G12G01G17G09G10G04G02G27
 117594829.839 6  91632427.71544  22377547.258                    22377554.500
 127131460.992 6  99063551.43143  24192321.664                    24192329.660
 119504741.679 7                  22740986.547
 113924310.215 7  88772335.09946  21679059.586                    21679066.773
 115930531.598 7  90335563.88945  22060853.211                    22060861.664
 119399929.004 7  93038988.92544  22721053.625                    22721062.816
 104590114.333 8  81498947.95646  19902824.586                    19902832.176
 113882605.787 8  88739825.55746  21671131.563                    21671137.621
 117863142.163 7  91841471.24345  22428612.281                    22428621.043
 11  7 27  0 29 30.0000000  0  9G28G12G01G17G09G10G04G02G27
 117663699.234 7  91686092.12444  22390652.484                    22390660.129
 127034545.848 6  98988033.14843  24173878.828                    24173886.871
 119423254.516 7                  22725479.359
 113959871.261 7  88800044.99845  21685826.398                    21685833.879
 115934447.394 7  90338615.15045  22061598.750                    22061607.102
 119311719.446 7  92970254.25344  22704267.883                    22704276.906
 104602248.631 8  81508403.25446  19905133.781                    19905141.164
 113818074.093 8  88689541.17045  21658851.797                    21658858.102
 117876609.646 7  91851965.37345  22431175.109                    22431184.242
 11  7 27  0 30  0.0000000  0  9G28G12G01G17G09G10G04G02G27
 117732923.888 7  91740033.37644  22403824.898                    22403832.691
 126937652.632 6  98912531.94443  24155441.039                    24155448.598
 119342073.850 7                  22710031.445
 113995520.101 7  88827823.29445  21692610.531                    21692617.738
 115938993.777 7  90342157.76445  22062464.008                    22062471.824
 119223711.494 7  92901676.70644  22687520.414                    22687529.395
 104614916.218 8  81518274.10446  19907544.156                    19907551.473
 113753885.567 8  88639524.18546  21646637.070                    21646643.152
 117890542.051 7  91862821.77045  22433826.781                    22433835.043
 11  7 27  0 30 30.0000000  0  9G28G12G01G17G09G10G04G02G27
 117802503.295 7  91794251.03244  22417065.563                    22417073.313
 126840783.053 6  98837049.21144  24137007.289                    24137015.871
 119261200.548 7                  22694641.930
 114031257.116 7  88855670.29745  21699411.133                    21699418.211
 115944169.898 7  90346191.09845  22063448.555                    22063457.348
 119135908.229 7  92833258.63344  22670812.063                    22670821.004
 104628115.384 8  81528559.16746  19910055.414                    19910063.535
 113690040.772 8  88589775.05245  21634487.828                    21634493.844
 117904938.232 7  91874039.56945  22436566.203                    22436574.609
 11  7 27  0 31  0.0000000  0  9G28G12G01G17G09G10G04G02G27
 117872436.942 7  91848744.73744  22430373.859                    22430382.176
 126743939.763 7  98761586.93544  24118578.750                    24118586.770
 119180636.677 7                  22679310.898
 114067082.557 7  88883586.20746  21706228.586                    21706235.570
 115949975.462 7  90350714.90545  22064553.109                    22064562.172
 119048313.778 7  92765003.29244  22654143.750                    22654151.988
 104641845.670 8  81539258.09446  19912668.336                    19912675.883
 113626541.303 8  88540294.99145  21622403.922                    21622409.688
 117919797.670 7  91885618.34045  22439393.555                    22439401.934
 11  7 27  0 31 30.0000000  0  9G28G12G01G17G09G10G04G02G27
 117942723.166 7  91903513.17644  22443749.055                    22443756.801
 126647123.585 7  98686145.76244  24100155.320                    24100163.750
 119100382.230 7                  22664039.063
 114102995.539 7  88911570.33146  21713062.883                    21713069.957
 115956408.229 7  90355727.42645  22065777.773                    22065785.641
 118960930.312 7  92696912.34144  22637514.688                    22637523.582
 104656104.303 8  81550368.71946  19915381.930                    19915389.270
 113563386.576 8  88491083.56445  21610386.125                    21610392.117
 117935118.158 7  91897556.38245  22442309.570                    22442318.027
 11  7 27  0 32  0.0000000  0  9G28G12G01G17G09G10G04G02G27
 118013362.275 7  91958556.59444  22457191.242                    22457199.086
 126550337.542 7  98610728.07444  24081737.711                    24081745.797
 119020439.539 7                  22648826.719
 114138996.973 7  88939623.38245  21719913.461                    21719920.508
 115963468.338 7  90361228.80645  22067120.945                    22067129.570
 118873762.084 7  92628989.08844  22620926.953                    22620936.336
 104670891.139 8  81561890.93446  19918195.539                    19918203.504
 113500578.314 8  88442142.10146  21598434.234                    21598439.625
 117950899.695 7  91909853.65345  22445312.195                    22445321.297
 11  7 27  0 32 30.0000000  0  9G28G12G01G17G09G10G04G02G27
 118084353.203 7  92013874.14044  22470700.375                    22470708.184
 126453583.064 7  98535335.02844  24063325.680                    24063333.668
 118940809.293 7                  22633673.125
 114175086.888 7  88967745.37046  21726781.281                    21726788.262
 115971154.367 7  90367217.88245  22068583.289                    22068592.328
 118786812.246 7  92561236.01944  22604381.148                    22604390.410
 104686204.257 8  81573823.24146  19921109.742                    19921117.098
 113438117.048 8  88393471.03446  21586548.086                    21586554.008
 117967140.817 7  91922509.06045  22448403.039                    22448411.469
 11  7 27  0 33  0.0000000  0  9G28G12G01G17G09G10G04G02G27
 118155694.712 7  92069464.88744  22484276.906                    22484284.410
 126356861.574 6  98459967.70744  24044920.141                    24044928.223
 118861492.418 7                  22618579.328
 114211264.748 7  88995935.89145  21733665.078                    21733672.480
 115979465.058 7  90373693.74345  22070164.617                    22070173.684
 118700083.731 7  92493655.44444  22587877.023                    22587886.324
 104702041.780 8  81586164.17446  19924123.367                    19924130.934
 113376002.994 7  88345070.52145  21574728.258                    21574734.199
 117983839.818 7  91935521.25545  22451580.781                    22451589.793
 11  7 27  0 33 30.0000000  0  9G28G12G01G17G09G10G04G02G27
 118227386.522 7  92125328.59544  22497919.500                    22497927.105
 126260175.597 6  98384628.03944  24026520.883                    24026529.441
 118782490.437 7                  22603546.125
 114247530.990 7  89024195.27146  21740566.203                    21740574.164
 115988399.939 7  90380655.96745  22071865.344                    22071874.082
 118613580.304 7  92426250.23644  22571416.133                    22571425.031
 104718402.802 8  81598913.02146  19927236.695                    19927244.383
 113314237.669 7  88296941.73546  21562974.656                    21562980.301
 118000995.898 7  91948889.61745  22454845.430                    22454854.227
 11  7 27  0 34  0.0000000  0  9G28G12G01G17G09G10G04G02G27
 118299427.592 7  92181464.45044  22511627.570                    22511636.043
 126163526.819 6  98309317.37743  24008129.484                    24008137.164
 118703804.726 7                  22588572.758
 114283885.793 7  89052523.67945  21747485.117                    21747492.215
 115997957.874 7  90388103.69445  22073684.359                    22073692.574
 118527305.355 7  92359023.06144  22554998.773                    22555007.715
 104735285.816 8  81612068.62446  19930449.438                    19930456.801
 113252821.468 8  88249084.99846  21551287.211                    21551293.344
 118018607.759 7  91962613.11345  22458197.023                    22458205.688
 11  7 27  0 34 30.0000000  0  9G28G12G01G17G09G10G04G02G27
 118371817.412 7  92237872.05944  22525403.445                    22525411.113
 126066917.441 6  98234037.43243  23989744.719                    23989753.555
 118625436.245 7                  22573658.969
 114320329.369 7  89080921.26145  21754419.742                    21754426.961
 116008137.484 7  90396035.83345  22075621.711                    22075630.215
 118441262.356 7  92291976.62544  22538625.055                    22538634.156
 104752689.474 8  81625629.91346  19933761.320                    19933769.273
 113191755.361 8  88201501.06546  21539666.500                    21539672.797
 118036674.337 7  91976690.94645  22461635.125                    22461643.055
 11  7 27  0 35  0.0000000  0  9G28G12G01G17G09G10G04G02G27
 118444555.080 7  92294550.71644  22539244.805                    22539252.695
 125970349.434 6  98158789.66843  23971368.609                    23971376.520
 118547386.404 7                  22558806.719
 114356861.551 8  89109387.88145  21761371.680                    21761378.941
 116018937.961 7  90404451.76645  22077676.602                    22077685.211
 118355454.406 6  92225113.35244  22522295.984                    22522305.574
 104770612.313 8  81639595.76346  19937172.250                    19937179.832
 113131040.157 8  88154190.54445  21528112.984                    21528118.887
 118055194.534 7  91991122.25845  22465159.445                    22465167.703
 11  7 27  0 35 30.0000000  0  9G28G12G01G17G09G10G04G02G27
 118517639.477 7  92351499.55144  22553152.367                    22553160.641
 125873824.591 6  98083575.57443  23953000.766                    23953009.055
 118469656.203 7                  22544015.172
 114393481.941 7  89137923.21945  21768340.477                    21768347.652
 116030357.808 7  90413350.33645  22079850.305                    22079858.391
 118269884.532 7  92158435.61244  22506013.273                    22506022.258
 104789052.206 8  81653964.51446  19940680.945                    19940688.742
 113070675.677 8  88107153.32346  21516626.102                    21516632.223
 118074166.585 7  92005905.65145  22468769.641                    22468777.965
 11  7 27  0 36  0.0000000  0  9G28G12G01G17G09G10G04G02G27
 118591069.673 7  92408717.82544  22567125.375                    22567133.797
 125777344.838 6  98008396.60343  23934640.836                    23934649.266
 118392246.425 7                  22529284.656
 114430191.083 8  89166527.71945  21775325.609                    21775333.215
 116042396.061 7  90422730.77345  22082141.164                    22082148.738
 118184556.348 7  92091946.16344  22489775.281                    22489784.797
 104808007.939 8  81668735.21646  19944288.055                    19944295.934
 113010663.120 8  88060390.32846  21505205.844                    21505212.023
 118093589.325 7  92021040.23945  22472465.359                    22472474.027
 11  7 27  0 36 30.0000000  0  9G28G12G01G17G09G10G04G02G27
 118664845.137 7  92466205.14044  22581164.820                    22581172.945
 125680912.559 7  97933254.61443  23916291.078                    23916298.867
 118315158.547 7                  22514614.977
 114466989.286 7  89195201.62645  21782328.133                    21782336.070
 116055051.733 7  90432592.32245  22084549.828                    22084557.680
 118099473.237 7  92025647.68944  22473584.430                    22473593.922
 104827478.142 8  81683906.80246  19947993.281                    19948000.746
 112951003.583 8  88013902.40946  21493852.961                    21493859.031
 118113461.667 7  92036525.17245  22476247.125                    22476255.863
 11  7 27  0 37  0.0000000  0  9G28G12G01G17G09G10G04G02G27
 118738965.050 7  92523960.87244  22595269.063                    22595277.777
 125584529.344 7  97858150.88344  23897949.656                    23897958.141
 118238394.077 7                  22500007.273
 114503876.530 7  89223944.93645  21789347.609                    21789355.395
 116068323.294 7  90442933.79045  22087074.883                    22087082.824
 118014638.471 7  91959542.73344  22457440.695                    22457450.309
 104847461.356 8  81699478.14146  19951796.063                    19951803.875
 112891697.506 8  87967689.92345  21482567.758                    21482573.613
 118133782.335 7  92052359.42245  22480114.031                    22480122.871
 11  7 27  0 37 30.0000000  0  9G28G12G01G17G09G10G04G02G27
 118813428.383 7  92581984.19144  22609439.211                    22609447.168
 125488197.343 6  97783087.03843  23879617.773                    23879626.340
 118161953.609 7                  22485461.242
 114540853.044 8  89252757.79345  21796384.016                    21796391.391
 116082209.601 7  90453754.27845  22089717.258                    22089725.770
 117930055.694 7  91893634.15044  22441345.422                    22441354.949
 104867955.831 8  81715447.86746  19955695.734                    19955703.305
 112832745.395 8  87921753.23246  21471349.148                    21471355.395
 118154550.074 7  92068542.06045  22484065.984                    22484074.680
 11  7 27  0 38  0.0000000  0  9G28G12G01G17G09G10G04G02G27
 118888233.875 7  92640274.13444  22623674.719                    22623682.285
 125391918.971 6  97708064.94943  23861296.859                    23861304.738
 118085838.489 8                  22470976.875
 114577918.946 7  89281640.29645  21803437.047                    21803444.516
 116096708.917 7  90465052.44745  22092476.469                    22092484.594
 117845727.775 7  91827924.13145  22425297.992                    22425307.184
 104888959.877 8  81731814.65446  19959692.977                    19959700.305
 112774147.829 8  87876092.81446  21460198.773                    21460204.723
 118175763.292 7  92085071.81845  22488102.766                    22488111.207
 11  7 27  0 38 30.0000000  0  9G28G12G01G17G09G10G04G02G27
 118963380.935 7  92698830.23244  22637974.438                    22637982.250
 125295695.776 6  97633085.87843  23842986.469                    23842993.871
 118010049.691 7                  22456554.813
 114615073.772 7  89310592.09445  21810507.961                    21810514.918
 116111820.190 7  90476827.45645  22095351.563                    22095360.340
 117761658.330 7  91762415.52245  22409300.484                    22409309.598
 104910471.782 8  81748577.18246  19963786.336                    19963793.973
 112715905.589 8  87830709.27346  21449115.695                    21449121.387
 118197420.608 7  92101947.62645  22492224.156                    22492232.547
 11  7 27  0 39  0.0000000  0  9G28G12G01G17G09G10G04G02G27
 119038868.400 7  92757651.57644  22652339.461                    22652347.004
 125199529.688 7  97558151.32144  23824686.438                    23824694.504
 117934588.087 7                  22442194.984
 114652318.083 7  89339613.63445  21817595.023                    21817602.883
 116127542.208 7  90489078.37045  22098343.703                    22098351.805
 117677850.646 7  91697110.90644  22393351.969                    22393361.219
 104932490.109 8  81765734.31646  19967976.383                    19967983.887
 112658019.291 8  87785603.09246  21438100.344                    21438106.047
 118219520.495 7  92119168.30145  22496429.492                    22496438.078
 11  7 27  0 39 30.0000000  0  9G28G12G01G17G09G10G04G02G27
 119114695.776 7  92816737.79944  22666768.586                    22666777.023
 125103423.476 6  97483263.41944  23806397.445                    23806406.289
 117859455.366 7                  22427897.727
 114689652.168 7  89368705.12045  21824699.688                    21824707.039
 116143873.832 7  90501804.29745  22101451.586                    22101460.195
 117594308.335 7  91632013.07144  22377454.016                    22377463.070
 104955013.612 8  81783285.09746  19972262.523                    19972269.742
 112600489.750 8  87740774.90446  21427152.633                    21427158.168
 118242061.914 7  92136733.02044  22500719.117                    22500727.773
 11  7 27  0 40  0.0000000  0  9G28G12G01G17G09G10G04G02G27
 119190861.518 7  92876087.65244  22681262.773                    22681270.852
 125007378.117 6  97408422.93744  23788120.773                    23788129.051
 117784651.884 7                  22413662.875
 114727075.628 7  89397866.25445  21831821.313                    21831828.293
 116160812.892 7  90515003.56845  22104673.961                    22104683.324
 117511033.965 7  91567124.00144  22361607.797                    22361616.785
 104978039.522 8  81801227.36546  19976644.055                    19976651.523
 112543316.537 8  87696224.36246  21416272.727                    21416278.340
 118265042.633 7  92154640.04044  22505092.031                    22505100.199
 11  7 27  0 40 30.0000000  0  9G28G12G01G17G09G10G04G02G27
 119267365.084 7  92935700.75244  22695820.742                    22695828.434
 124911396.500 7  97333632.09444  23769856.039                    23769864.039
 117710178.824 7                  22399491.016
 114764589.193 7  89427097.59145  21838959.836                    21838967.164
 116178358.299 7  90528675.30344  22108013.156                    22108022.027
 117428031.459 7  91502446.77244  22345812.125                    22345821.699
 105001566.851 8  81819560.34446  19981120.859                    19981128.875
 112486500.939 8  87651952.49646  21405461.414                    21405466.961
 118288461.813 7  92172888.74045  22509548.703                    22509557.039
 11  7 27  0 41  0.0000000  0  9G28G12G01G17G09G10G04G02G27
 119344205.095 7  92995576.00844  22710442.859                    22710450.953
 124815480.572 6  97258892.43943  23751604.094                    23751612.098
 117636037.113 7                  22385382.758
 114802192.389 7  89456398.77345  21846115.195                    21846122.949
 116196508.470 7  90542818.28345  22111466.922                    22111476.004
 117345303.386 7  91437983.39244  22330069.859                    22330079.215
 105025593.587 8  81838282.47346  19985693.227                    19985701.188
 112430043.404 8  87607959.62846  21394717.336                    21394723.660
 118312317.576 7  92191477.62745  22514088.328                    22514096.797
 11  7 27  0 41 30.0000000  0  9G28G12G01G17G09G10G04G02G27
 119421381.320 7  93055713.26944  22725129.086                    22725137.418
 124719632.381 7  97184205.59344  23733365.047                    23733372.754
 117562228.553 7                  22371336.656
 114839886.471 7  89485770.76945  21853288.016                    21853295.715
 116215262.981 7  90557432.18645  22115036.125                    22115044.668
 117262854.259 7  91373737.38044  22314380.633                    22314390.043
 105050118.932 8  81857393.12646  19990360.164                    19990367.910
 112373945.289 8  87564246.83346  21384042.594                    21384048.160
 118336609.682 7  92210406.51444  22518710.898                    22518719.730
 11  7 27  0 42  0.0000000  0  9G28G12G01G17G09G10G04G02G27
 119498891.871 7  93116111.03944  22739878.945                    22739886.805
 124623853.821 7  97109572.97144  23715138.914                    23715147.109
 117488753.520 7                  22357355.586
 114877670.543 7  89515212.90245  21860478.703                    21860486.230
 116234619.090 7  90572514.85945  22118719.781                    22118728.172
 117180686.545 7  91309710.64244  22298743.984                    22298753.430
 105075140.467 8  81876890.42346  19995121.672                    19995129.445
 112318205.782 8  87520813.47546  21373435.461                    21373441.574
 118361335.453 7  92229673.30245  22523416.531                    22523424.984
 11  7 27  0 42 30.0000000  0  9G28G12G01G17G09G10G04G02G27
 119576735.800 7  93176768.58844  22754692.648                    22754700.277
 124528147.122 7  97034996.39444  23696926.516                    23696934.629
 117415612.661 7                  22343437.352
 114915544.996 7  89544725.45445  21867685.805                    21867692.922
 116254575.210 7  90588065.07145  22122517.789                    22122525.402
 117098803.878 7  91245906.01644  22283162.875                    22283171.828
 105100656.264 8  81896772.86346  19999977.555                    19999984.945
 112262825.947 8  87477660.38246  21362897.227                    21362903.039
 118386493.366 7  92249276.85145  22528203.633                    22528212.121
 11  7 27  0 43  0.0000000  0  9G28G12G01G17G09G10G04G02G27
 119654912.293 7  93237685.26444  22769568.789                    22769577.238
 124432514.436 6  96960477.47944  23678728.047                    23678735.730
 117342807.249 8                  22329582.344
 114953510.282 7  89574308.77645  21874910.250                    21874917.496
 116275130.175 7  90604081.91745  22126428.391                    22126436.781
 117017209.267 7  91182325.83644  22267635.555                    22267644.531
 105126664.607 8  81917039.10846  20004926.609                    20004933.590
 112207806.266 8  87434787.92946  21352427.211                    21352433.090
 118412081.936 7  92269215.97745  22533072.844                    22533081.418
 11  7 27  0 43 30.0000000  0  9G28G12G01G17G09G10G04G02G27
 119733420.147 7  93298860.13444  22784508.586                    22784516.699
 124336957.974 6  96886017.91744  23660544.594                    23660551.629
 117270338.595 7                  22315791.938
 114991566.577 7  89603963.02145  21882152.117                    21882159.254
 116296282.421 7  90620564.17845  22130454.367                    22130462.125
 116935906.129 7  91118972.80145  22252164.406                    22252173.566
 105153164.069 8  81937688.04246  20009969.164                    20009976.781
 112153147.453 7  87392196.66346  21342025.938                    21342031.617
 118438099.864 7  92289489.65545  22538023.484                    22538032.539
 11  7 27  0 44  0.0000000  0  9G28G12G01G17G09G10G04G02G27
 119812257.946 7  93360292.12144  22799510.320                    22799518.559
 124241479.328 7  96811619.00444  23642375.438                    23642382.754
 117198207.024 8                  22302066.289
 115029713.716 7  89633688.04245  21889411.391                    21889418.945
 116318029.897 7  90637510.25145  22134592.617                    22134600.695
 116854897.529 7  91055849.28945  22236748.766                    22236757.813
 105180152.157 8  81958717.71746  20015104.617                    20015112.727
 112098849.271 8  87349886.41946  21331693.289                    21331699.590
 118464545.108 7  92310096.31644  22543056.281                    22543065.090
 11  7 27  0 44 30.0000000  0  9G28G12G01G17G09G10G04G02G27
 119891425.462 7  93421981.02844  22814575.594                    22814584.293
 124146081.613 6  96737283.15244  23624222.039                    23624229.434
 117126414.177 8                  22288404.305
 115067952.242 7  89663484.28345  21896687.914                    21896695.621
 116340371.666 7  90654919.41545  22138843.641                    22138852.547
 116774187.487 7  90992958.38645  22221390.398                    22221399.305
 105207628.311 8  81980127.70846  20020333.547                    20020340.879
 112044913.097 8  87307858.26446  21321429.711                    21321435.602
 118491416.807 7  92331035.28044  22548169.742                    22548178.281
 11  7 27  0 45  0.0000000  0  9G28G12G01G17G09G10G04G02G27
 119970921.181 7  93483925.69744  22829703.617                    22829712.172
 124050766.552 7  96663011.69644  23606083.914                    23606091.047
 117054960.993 8                  22274807.273
 115106282.500 7  89693352.00745  21903981.906                    21903989.387
 116363305.766 7  90672790.13045  22143208.070                    22143216.375
 116693779.162 7  90930302.62145  22206089.195                    22206097.895
 105235589.999 8  82001916.02946  20025654.227                    20025661.766
 111991339.415 8  87266112.56946  21311234.828                    21311240.938
 118518713.070 7  92352305.08144  22553363.805                    22553372.922
 11  7 27  0 45 30.0000000  0  9G28G12G01G17G09G10G04G02G27
 120050743.217 7  93546124.61644  22844892.391                    22844901.512
 123955535.509 7  96588805.73444  23587961.516                    23587969.313
 116983847.094 8                  22261274.344
 115144703.801 7  89723290.66045  21911293.055                    21911300.160
 116386829.849 7  90691120.57445  22147684.203                    22147692.746
 116613674.779 7  90867883.67945  22190845.844                    22190854.695
 105264034.691 8  82024080.72046  20031067.430                    20031075.141
 111938127.431 8  87224648.70346  21301109.031                    21301114.555
 118546431.524 7  92373903.86044  22558638.422                    22558646.766
 11  7 27  0 46  0.0000000  0  9G28G12G01G17G09G10G04G02G27
 120130891.294 7  93608577.58944  22860144.438                    22860153.211
 123860391.690 7  96514667.74744  23569856.820                    23569863.535
 116913074.510 8                  22247807.039
 115183217.249 7  89753301.11945  21918622.133                    21918629.680
 116410943.008 7  90709910.01745  22152273.711                    22152281.699
 116533878.454 7  90805704.79045  22175660.469                    22175669.277
 105292961.501 8  82046621.08746  20036571.797                    20036579.289
 111885278.602 8  87183467.82646  21291051.945                    21291057.801
 118574571.327 7  92395830.95744  22563993.641                    22564001.852
 11  7 27  0 46 30.0000000  0  9G28G12G01G17G09G10G04G02G27
 120211364.346 7  93671283.80444  22875458.234                    22875466.848
 123765337.033 7  96440599.18644  23551768.242                    23551775.699
 116842644.234 8                  22234404.906
 115221822.941 7  89783383.47345  21925968.180                    21925976.230
 116435643.282 7  90729156.97345  22156973.227                    22156981.828
 116454393.816 7  90743768.75945  22160535.695                    22160544.301
 105322368.646 8  82069535.74846  20042167.672                    20042175.316
 111832793.382 8  87142570.29346  21281064.563                    21281070.297
 118603130.575 7  92418084.90244  22569428.258                    22569436.582
 11  7 27  0 47  0.0000000  0  9G28G12G01G17G09G10G04G02G27
 120292160.750 7  93734242.01044  22890833.688                    22890841.668
 123670373.206 7  96366601.41144  23533696.977                    23533704.938
 116772556.549 7                  22221066.938
 115260520.589 7  89813537.47245  21933332.109                    21933340.059
 116460928.228 7  90748859.49845  22161785.078                    22161793.438
 116375223.291 7  90682077.47145  22145469.813                    22145478.473
 105352253.377 8  82092822.54346  20047854.602                    20047862.188
 111780671.474 8  87101955.85046  21271146.047                    21271151.941
 118632106.879 7  92440663.83744  22574942.367                    22574950.480
 11  7 27  0 47 30.0000000  0  9G28G12G01G17G09G10G04G02G27
 120373279.645 7  93797451.51644  22906269.930                    22906277.766
 123575502.495 7  96292676.22744  23515643.844                    23515651.508
 116702812.369 8                  22207795.547
 115299310.719 7  89843763.52245  21940714.172                    21940721.250
 116486796.593 7  90769016.66245  22166707.250                    22166716.309
 116296370.548 7  90620633.83145  22130464.273                    22130473.516
 105382614.233 8  82116480.35346  20053631.867                    20053639.906
 111728913.521 8  87061625.00646  21261297.117                    21261302.824
 118661499.038 7  92463566.79644  22580535.813                    22580544.078
 11  7 27  0 48  0.0000000  0  9G28G12G01G17G09G10G04G02G27
 120454719.577 7  93860911.15343  22921767.719                    22921775.906
 123480727.659 7  96218825.72544  23497608.727                    23497616.781
 116633412.972 8                  22194589.078
 115338193.986 7  89874062.14845  21948113.000                    21948120.551
 116513246.867 7  90789627.24545  22171741.031                    22171749.328
 116217839.042 7  90559440.50744  22115519.945                    22115529.293
 105413449.559 8  82140507.87546  20059499.828                    20059507.625
 111677520.466 8  87021578.48846  21251516.953                    21251522.922
 118691305.944 7  92486792.95044  22586207.453                    22586215.508
 11  7 27  0 48 30.0000000  0  9G28G12G01G17G09G10G04G02G27
 120536479.663 7  93924620.24143  22937325.391                    22937334.512
 123386050.775 7  96145051.54944  23479592.414                    23479600.254
 116564359.111 8                  22181448.445
 115377170.345 7  89904433.32145  21955530.195                    21955537.059
 116540276.776 7  90810689.49345  22176884.078                    22176893.191
 116139631.865 7  90498499.89745  22100637.766                    22100646.586
 105444757.621 8  82164903.76946  20065457.414                    20065465.160
 111626492.471 8  86981816.44346  21241806.836                    21241812.352
 118721525.753 7  92510340.83544  22591958.719                    22591966.625
 11  7 27  0 49  0.0000000  0  9G28G12G01G17G09G10G04G02G27
 120618557.916 7  93988577.27443  22952944.813                    22952953.348
 123291473.629 6  96071355.13344  23461593.852                    23461602.551
 116495651.161 8                  22168373.563
 115416239.456 7  89934876.76345  21962964.594                    21962972.270
 116567883.965 7  90832201.54745  22182138.023                    22182146.617
 116061752.065 7  90437814.37845  22085817.984                    22085826.102
 105476535.666 8  82189665.87946  20071504.906                    20071512.375
 111575829.101 8  86942338.52246  21232165.961                    21232171.277
 118752156.026 7  92534208.54944  22597787.102                    22597795.582
 11  7 27  0 49 30.0000000  0  9G28G12G01G17G09G10G04G02G27
 120700894.577 7  94052735.65143  22968612.922                    22968621.227
 123196939.265 6  95997692.03344  23443605.445                    23443613.262
 116427231.262 8                  22155353.844
 115455343.000 7  89965347.03245  21970406.109                    21970413.359
 116596007.682 7  90854116.12644  22187489.367                    22187498.359
 115984144.013 7  90377340.62745  22071049.742                    22071057.973
 105508723.061 8  82214746.96446  20077629.742                    20077637.730
 111525472.171 8  86903099.38346  21222583.102                    21222589.023
 118783136.085 7  92558348.82844  22603682.219                    22603691.020
 11  7 27  0 50  0.0000000  0  9G28G12G01G17G09G10G04G02G27
 120783547.404 6  94117140.37844  22984341.008                    22984350.027
 123102509.068 7  95924110.11844  23425636.086                    23425644.098
 116359158.799 8                  22142400.156
 115494540.266 7  89995890.34145  21977864.672                    21977872.621
 116624705.269 7  90876477.85345  22192950.844                    22192959.438
 115906870.005 7  90317127.16844  22056344.648                    22056353.020
 105541376.896 8  82240191.51046  20083843.344                    20083851.676
 111475480.797 8  86864145.09746  21213070.102                    21213076.313
 118814523.201 7  92582806.29044  22609654.805                    22609663.488
 11  7 27  0 50 30.0000000  0  9G28G12G01G17G09G10G04G02G27
 120866599.099 6  94181855.90344  23000145.891                    23000154.270
 123008269.537 6  95850676.77444  23407701.891                    23407710.230
 116291518.758 8                  22129528.492
 115533915.550 7  90026572.37145  21985357.750                    21985364.887
 116654058.835 7  90899350.73545  22198536.977                    22198544.992
 115830016.962 7  90257241.73245  22041720.203                    22041728.441
 105574579.237 8  82266063.46746  20090161.445                    20090169.406
 111425939.340 8  86825541.39646  21203642.828                    21203648.313
 118846399.670 7  92607645.09844  22615720.813                    22615729.551
 11  7 27  0 51  0.0000000  0  9G28G12G01G17G09G10G04G02G27
 120949885.058 7  94246754.00044  23015994.484                    23016003.230
 122914060.023 7  95777266.81644  23389775.273                    23389783.332
 116224148.907 8                  22116708.500
 115573305.617 7  90057265.91045  21992853.570                    21992860.785
 116683902.673 7  90922605.64845  22204216.055                    22204224.262
 115753425.120 7  90197559.81945  22027144.922                    22027153.453
 105608164.807 8  82292234.03746  20096552.828                    20096560.281
 111376684.985 8  86787161.40246  21194269.805                    21194275.273
 118878600.355 7  92632736.51444  22621848.344                    22621856.957
 11  7 27  0 51 30.0000000  0  9G28G12G01G17G09G10G04G02G27
 121033560.849 7  94311955.83744  23031917.750                    23031926.395
 122820038.581 7  95704003.39344  23371883.680                    23371890.668
 116157206.330 8                  22103969.555
 115612867.739 7  90088093.50445  22000381.977                    22000389.133
 116714391.560 7  90946363.20144  22210017.672                    22210026.246
 115677254.141 7  90138205.85045  22012650.109                    22012658.715
 105642288.356 8  82318823.82246  20103046.008                    20103054.211
 111327874.603 8  86749127.36546  21184981.469                    21184987.227
 118911280.068 7  92658201.20345  22628067.188                    22628076.020
 11  7 27  0 52  0.0000000  0  9G28G12G01G17G09G10G04G02G27
 121117549.980 7  94377401.85944  23047900.477                    23047908.949
 122726132.838 7  95630830.13244  23354013.930                    23354021.496
 116090617.149 8                  22091297.898
 115652527.107 7  90118996.86545  22007928.922                    22007936.680
 116745448.423 7  90970563.34145  22215927.359                    22215936.172
 115601432.577 7  90079124.17645  21998222.375                    21998230.293
 105676872.935 8  82345772.84246  20109627.914                    20109635.566
 111279433.525 8  86711381.09446  21175763.359                    21175768.988
 118944361.907 7  92683979.23045  22634363.125                    22634371.473
 11  7 27  0 52 30.0000000  0 10G28G12G01G17G09G10G04G02G05G27
 121201770.476 7  94443028.16444  23063926.656                    23063935.609
 122632264.307 7  95557685.87844  23336151.305                    23336158.918
 116024301.240 8                  22078678.430
 115692202.990 7  90149913.12945  22015479.141                    22015486.301
 116776990.950 7  90995141.91844  22221929.586                    22221938.117
 115525882.649 7  90020254.12745  21983845.070                    21983853.379
 105711835.759 8  82373016.59346  20116280.742                    20116288.730
 111231281.378 8  86673859.96646  21166600.164                    21166606.043
 129737629.07716 101094342.36253  24688260.008                    24688271.758
 118977763.410 7  92710006.35444  22640718.836                    22640727.770
 11  7 27  0 53  0.0000000  0 10G28G12G01G17G09G10G04G02G05G27
 121286375.039 6  94508953.73744  23080026.383                    23080035.617
 122538589.275 7  95484692.39944  23318325.352                    23318333.133
 115958413.043 8                  22066140.820
 115732049.678 7  90180962.46845  22023061.477                    22023068.887
 116809170.531 7  91020216.90645  22228053.344                    22228062.148
 115450761.477 7  89961718.18445  21969550.195                    21969558.223
 105747328.615 8  82400673.37246  20123034.539                    20123042.535
 111183571.906 7  86636683.79546  21157521.523                    21157527.129
 129632739.268 6 101012610.35943  24668299.820                    24668312.246
 119011636.315 7  92736400.80344  22647164.609                    22647173.145
 11  7 27  0 53 30.0000000  0 10G28G12G01G17G09G10G04G02G05G27
 121371289.457 6  94575120.74143  23096185.281                    23096193.965
 122445037.286 7  95411794.79944  23300522.961                    23300531.031
 115892880.578 8                  22053669.805
 115771994.940 7  90212088.62545  22030663.305                    22030670.309
 116841912.442 7  91045730.06944  22234283.648                    22234292.430
 115375999.879 7  89903462.45045  21955323.594                    21955332.020
 105783276.733 8  82428684.88646  20129875.469                    20129882.934
 111136233.062 8  86599796.40446  21148512.820                    21148518.801
 129527765.822 6 100930813.18243  24648323.813                    24648335.531
 119045906.329 6  92763104.69344  22653686.094                    22653694.734
 11  7 27  0 54  0.0000000  0 10G28G12G01G17G09G10G04G02G05G27
 121456431.709 6  94641465.30443  23112387.859                    23112395.227
 122351529.726 7  95338931.82244  23282728.813                    23282736.637
 115827624.212 8                  22041252.086
 115811958.316 7  90243228.90345  22038267.664                    22038275.070
 116875133.614 7  91071616.69544  22240605.609                    22240613.984
 115301520.043 7  89845426.26645  21941150.172                    21941158.730
 105819597.699 8  82456986.93646  20136787.102                    20136795.113
 111089183.880 8  86563134.72246  21139559.750                    21139566.086
 129422630.191 6 100848889.61743  24628315.820                    24628328.461
 119080490.633 7  92790053.46144  22660267.336                    22660276.113
 11  7 27  0 54 30.0000000  0 10G28G12G01G17G09G10G04G02G05G27
 121541954.619 7  94708106.47443  23128662.148                    23128670.070
 122258223.064 7  95266225.38544  23264972.836                    23264980.480
 115762798.211 8                  22028916.195
 115852094.089 7  90274503.50945  22045905.617                    22045912.781
 116908986.177 7  91097995.29344  22247047.180                    22247055.836
 115227478.941 7  89787731.94545  21927060.781                    21927069.223
 105856443.133 8  82485697.65746  20143798.234                    20143806.426
 111042579.164 8  86526819.38846  21130691.508                    21130697.164
 129317489.091 6 100766961.78743  24608309.078                    24608320.438
 119115541.279 7  92817365.61545  22666937.313                    22666946.461
 11  7 27  0 55  0.0000000  0 10G28G12G01G17G09G10G04G02G05G27
 121627781.804 6  94774984.77543  23144993.906                    23145002.559
 122165044.958 7  95193619.12844  23247241.844                    23247249.426
 115698328.615 8                  22016648.039
 115892327.873 7  90305854.48945  22053561.445                    22053569.051
 116943393.233 7  91124805.96744  22253595.305                    22253603.168
 115153805.304 7  89730323.96745  21913041.102                    21913050.043
 105893736.355 8  82514757.30546  20150895.164                    20150902.844
 110996344.054 8  86490792.04646  21121892.867                    21121899.074
 129212270.429 6 100684973.46543  24588285.539                    24588297.570
 119150981.746 6  92844981.52945  22673680.969                    22673689.820
 11  7 27  0 55 30.0000000  0 10G28G12G01G17G09G10G04G02G05G27
 121713912.559 6  94842099.60843  23161383.766                    23161392.750
 122071998.271 7  95121115.23944  23229535.602                    23229543.023
 115634216.543 8                  22004447.563
 115932660.433 7  90337282.43045  22061236.656                    22061244.063
 116978352.752 7  91152047.13244  22260247.547                    22260255.809
 115080502.720 7  89673205.12245  21899091.852                    21899100.395
 105931475.832 8  82544164.67946  20158076.867                    20158084.738
 110950479.146 8  86455053.17946  21113165.617                    21113171.086
 129106977.421 7 100602927.23943  24568249.219                    24568261.129
 119186810.650 7  92872900.11745  22680498.891                    22680508.430
 11  7 27  0 56  0.0000000  0 10G28G12G01G17G09G10G04G02G05G27
 121800261.463 6  94909384.40143  23177816.414                    23177824.402
 121979001.162 6  95048650.01044  23211838.594                    23211846.293
 115570378.963 8                  21992299.469
 115973008.195 7  90368722.22145  22068914.969                    22068922.199
 117013778.919 7  91179651.92644  22266989.117                    22266997.438
 115007490.319 7  89616312.39845  21885198.367                    21885207.004
 105969575.573 8  82573852.79046  20165326.703                    20165334.832
 110904900.632 8  86419537.47546  21104491.867                    21104498.020
 129001528.762 6 100520759.71943  24548182.703                    24548194.246
 119222942.018 6  92901054.37844  22687374.906                    22687383.602
 11  7 27  0 56 30.0000000  0 10G28G12G01G17G09G10G04G02G05G27
 121886989.058 7  94976964.30343  23194320.305                    23194328.520
 121886217.726 6  94976351.28144  23194182.906                    23194190.629
 115506978.147 8                  21980234.711
 116013533.411 7  90400300.29645  22076625.984                    22076633.410
 117049831.193 7  91207744.57345  22273849.586                    22273857.977
 114934933.433 7  89559774.61345  21871390.820                    21871399.430
 106008195.333 8  82603946.10046  20172675.984                    20172683.789
 110859770.944 8  86384371.50846  21095903.938                    21095909.484
 128896088.896 6 100438599.01343  24528118.180                    24528129.695
 119259535.811 7  92929568.96844  22694338.195                    22694347.285
 11  7 27  0 57  0.0000000  0 10G28G12G01G17G09G10G04G02G05G27
 121974015.845 6  95044777.31144  23210880.664                    23210888.855
 121793572.596 7  94904160.32044  23176553.117                    23176561.164
 115443936.644 8                  21968238.266
 116054158.716 8  90431956.36445  22084356.484                    22084364.457
 117086429.387 7  91236262.63244  22280813.820                    22280822.395
 114862757.151 7  89503533.39045  21857656.164                    21857664.613
 106047255.006 8  82634382.20346  20180108.992                    20180116.801
 110815011.999 8  86349494.43446  21087386.352                    21087392.254
 128790582.284 6 100356386.30443  24508040.305                    24508052.953
 119296511.797 7  92958381.37044  22701374.328                    22701383.531
 11  7 27  0 57 30.0000000  0 10G28G12G01G17G09G10G04G02G05G27
 122061258.743 7  95112758.74344  23227483.055                    23227490.988
 121700986.084 7  94832014.98844  23158934.227                    23158942.168
 115381173.381 8                  21956295.109
 116094801.938 7  90463626.38245  22092091.469                    22092098.449
 117123489.327 7  91265140.49045  22287866.320                    22287874.473
 114790882.540 7  89447527.24245  21843978.773                    21843987.211
 106086670.480 8  82665095.54646  20187609.648                    20187617.262
 110770542.258 8  86314842.70946  21078924.180                    21078930.141
 128684929.492 6 100274059.70443  24487934.883                    24487947.281
 119333786.203 7  92987426.29845  22708467.781                    22708476.922
 11  7 27  0 58  0.0000000  0 10G28G12G01G17G09G10G04G02G05G27
 122148874.118 7  95181030.40444  23244155.344                    23244164.324
 121608618.448 7  94760040.25144  23141357.750                    23141364.938
 115318846.602 8                  21944434.820
 116135621.488 7  90495433.80445  22099859.086                    22099866.305
 117161166.392 6  91294499.23844  22295036.664                    22295044.508
 114719470.478 7  89391881.53345  21830389.313                    21830398.273
 106126597.689 8  82696207.64946  20195207.211                    20195215.250
 110726519.224 8  86280539.06846  21070546.984                    21070553.031
 128579291.150 5 100191744.34243  24467832.563                    24467844.254
 119371514.715 6  93016825.08344  22715647.234                    22715656.531
 11  7 27  0 58 30.0000000  0 10G28G12G01G17G09G10G04G02G05G27
 122236784.221 7  95249531.75344  23260884.453                    23260892.402
 121516396.266 7  94688178.83045  23123808.109                    23123816.020
 115256881.409 8                  21932642.992
 116176541.920 7  90527319.82945  22107645.578                    22107653.137
 117199382.484 7  91324277.99345  22302308.273                    22302316.480
 114648448.337 7  89336539.64145  21816874.711                    21816883.246
 106166958.595 8  82727657.70046  20202888.195                    20202895.801
 110682867.303 8  86246524.60746  21062240.164                    21062246.059
 128473594.132 6 100109383.25743  24447719.008                    24447730.215
 119409619.530 7  93046517.10845  22722898.086                    22722907.652
 11  7 27  0 59  0.0000000  0 10G28G12G01G17G09G10G04G02G05G27
 122324907.040 6  95318198.81544  23277652.977                    23277662.016
 121424240.864 7  94616369.44044  23106271.508                    23106279.047
 115195197.101 8                  21920904.891
 116217482.664 7  90559221.68045  22115436.391                    22115443.969
 117238054.337 7  91354411.86744  22309667.297                    22309676.027
 114577738.078 7  89281440.77445  21803418.164                    21803427.512
 106207670.075 8  82759380.92946  20210634.805                    20210642.371
 110639505.839 8  86212736.47946  21053988.797                    21053994.531
 128367760.207 6 100026915.49443  24427579.820                    24427591.484
 119448017.609 6  93076437.62345  22730206.000                    22730214.832
 11  7 27  0 59 30.0000000  0 10G28G12G01G17G09G10G04G02G05G27
 122413396.632 6  95387151.69843  23294492.625                    23294500.914
 121332310.166 7  94544735.16044  23088777.414                    23088785.363
 115133949.855 8                  21909249.680
 116258599.550 7  90591260.79145  22123260.883                    22123268.688
 117277335.213 7  91385020.29444  22317142.586                    22317150.938
 114507498.696 7  89226708.83345  21790052.750                    21790061.379
 106248885.654 8  82791496.95946  20218477.906                    20218485.859
 110596589.928 8  86179295.53946  21045822.047                    21045828.086
 128261947.308 6  99944464.07343  24407444.430                    24407455.141
 119486862.532 7  93106706.34944  22737597.813                    22737606.484
 11  7 27  1  0  0.0000000  0 10G28G12G01G17G09G10G04G02G05G27
 122502176.864 6  95456331.03743  23311386.211                    23311395.008
 121240531.801 7  94473219.57045  23071312.805                    23071320.668
 115073065.441 8                  21897663.586
 116299818.420 7  90623379.36545  22131104.891                    22131112.367
 117317147.741 7  91416043.02145  22324718.719                    22324726.676
 114437658.426 7  89172287.87745  21776762.711                    21776770.949
 106290528.365 8  82823945.81546  20226402.594                    20226410.316
 110554045.713 8  86146144.22646  21037726.531                    21037732.109
 128156083.345 6  99861972.89543  24387298.750                    24387309.555
 119526077.284 7  93137263.24544  22745059.609                    22745068.688
 11  7 27  1  0 30.0000000  0 10G28G12G01G17G09G10G04G02G05G27
 122591245.597 6  95525735.18443  23328335.422                    23328344.367
 121148907.889 7  94401824.32944  23053877.117                    23053884.594
 115012544.081 8                  21886147.180
 116341138.856 7  90655577.08645  22138967.680                    22138975.445
 117357489.135 7  91447477.83845  22332395.477                    22332403.613
 114368219.949 7  89118179.99745  21763548.664                    21763557.305
 106332595.641 8  82856725.51146  20234407.398                    20234415.148
 110511872.383 8  86113281.91546  21029701.242                    21029706.797
 128050170.699 6  99779443.78543  24367143.930                    24367154.918
 119565659.346 7  93168106.36744  22752591.922                    22752600.652
 11  7 27  1  1  0.0000000  0 10G28G12G01G17G09G10G04G02G05G27
 122680517.924 6  95595297.96143  23345323.984                    23345332.484
 121057357.110 7  94330486.09144  23036455.914                    23036463.508
 114952302.643 8                  21874683.336
 116382478.091 7  90687789.45645  22146834.422                    22146841.852
 117398273.537 7  91479257.85544  22340156.523                    22340164.723
 114299102.869 7  89064322.58145  21750396.234                    21750404.805
 106375001.871 8  82889769.31546  20242477.055                    20242485.305
 110469986.729 8  86080643.76746  21021730.219                    21021736.270
 127944128.710 6  99696813.90044  24346964.539                    24346975.984
 119605523.365 7  93199169.17544  22760178.203                    22760187.230
 11  7 27  1  1 30.0000000  0 10G28G12G01G17G09G10G04G02G05G27
 122770154.654 6  95665144.74143  23362381.023                    23362389.543
 120966044.240 7  94259333.21744  23019080.070                    23019086.508
 114892504.144 8                  21863304.078
 116423998.732 7  90720143.18345  22154735.047                    22154742.977
 117439660.709 7  91511507.56345  22348032.633                    22348040.383
 114230472.230 7  89010844.20345  21737336.109                    21737344.703
 106417906.983 8  82923201.86746  20250641.930                    20250649.871
 110428550.743 8  86048356.01746  21013845.336                    21013850.785
 127838122.011 6  99614211.47944  24326791.703                    24326803.086
 119645829.277 7  93230576.32444  22767848.266                    22767856.457
 11  7 27  1  2  0.0000000  0 10G28G12G01G17G09G10G04G02G05G27
 122860075.021 6  95735212.51443  23379492.773                    23379501.219
 120874892.641 7  94188306.03744  23001733.578                    23001741.691
 114833069.731 8                  21851993.602
 116465621.868 7  90752576.77445  22162655.859                    22162663.238
 117481569.092 7  91544163.43044  22356006.945                    22356015.148
 114162251.987 7  88957685.62245  21724354.500                    21724362.320
 106461229.959 8  82956960.02546  20258885.898                    20258893.922
 110387485.315 8  86016357.00546  21006030.945                    21006036.594
 127732074.621 6  99531577.37243  24306612.281                    24306622.410
 119686495.967 7  93262264.58644  22775586.836                    22775595.480
 11  7 27  1  2 30.0000000  0 10G28G12G01G17G09G10G04G02G05G27
 122950196.040 7  95805436.65843  23396642.133                    23396650.758
 120783823.017 7  94117342.69744  22984403.883                    22984411.637
 114773918.443 8                  21840738.367
 116507266.556 7  90785027.16245  22170580.820                    22170588.363
 117523914.698 7  91577159.97444  22364065.188                    22364073.324
 114094363.642 7  88904785.65245  21711436.000                    21711444.129
 106504886.998 8  82990978.49346  20267193.320                    20267201.184
 110346709.246 8  85984583.47146  20998271.320                    20998277.551
 127625907.262 6  99448849.80244  24286408.625                    24286419.145
 119727439.772 7  93294168.81144  22783377.523                    22783386.883
 11  7 27  1  3  0.0000000  0 10G28G12G01G17G09G10G04G02G05G27
 123040675.437 7  95875940.04743  23413860.156                    23413867.797
 120692996.905 7  94046569.14045  22967120.039                    22967127.961
 114715209.983 8                  21829566.273
 116549092.256 7  90817618.59445  22178539.750                    22178547.316
 117566854.067 7  91610619.20244  22372236.023                    22372244.301
 114026969.531 7  88852270.81845  21698610.758                    21698618.980
 106549034.969 8  83025379.51346  20275594.406                    20275602.430
 110306381.545 8  85953159.31346  20990597.227                    20990602.855
 127519782.051 6  99366155.04644  24266212.945                    24266224.762
 119768817.637 7  93326411.24944  22791251.766                    22791261.191
 11  7 27  1  3 30.0000000  0 10G28G12G01G17G09G10G04G02G05G27
 123131434.207 6  95946661.14343  23431130.352                    23431139.781
 120602339.727 7  93975927.23745  22949868.688                    22949876.605
 114656867.587 8                  21818463.828
 116591022.204 7  90850291.27045  22186518.969                    22186526.719
 117610307.338 7  91644478.84545  22380505.031                    22380513.547
 113959995.443 7  88800083.27545  21685865.961                    21685873.984
 106593594.445 8  83060101.18046  20284073.828                    20284081.313
 110266424.720 8  85922024.14746  20982993.664                    20982999.277
 127413624.094 6  99283434.76743  24246011.922                    24246022.746
 119810550.051 7  93358929.95844  22799193.320                    22799202.313
 11  7 27  1  4  0.0000000  0 10G28G12G01G17G09G10G04G02G05G27
 123222389.964 6  96017535.72443  23448438.828                    23448447.363
 120511773.189 7  93905355.91844  22932634.477                    22932642.090
 114598810.580 8                  21807416.109
 116632975.559 7  90882982.18245  22194502.406                    22194509.508
 117654191.203 7  91678674.02044  22388856.164                    22388864.270
 113893363.614 7  88748162.40145  21673186.391                    21673194.563
 106638482.352 8  83095078.77146  20292615.820                    20292623.074
 110226758.175 8  85891115.18346  20975445.320                    20975451.355
 127307355.584 6  99200628.34143  24225790.063                    24225800.172
 119852554.037 7  93391660.30044  22807186.547                    22807195.227
 11  7 27  1  4 30.0000000  0 10G28G12G01G17G09G10G04G02G05G27
 123313697.713 6  96088684.59243  23465814.672                    23465823.348
 120421456.075 7  93834978.97744  22915447.734                    22915455.242
 114541196.177 8                  21796452.617
 116675109.918 7  90915814.14345  22202520.344                    22202527.824
 117698659.805 7  91713324.83944  22397318.250                    22397325.898
 113827233.924 7  88696632.83245  21660602.109                    21660610.828
 106683853.332 8  83130432.78046  20301249.664                    20301256.934
 110187538.701 8  85860554.58046  20967982.133                    20967988.063
 127201135.801 6  99117859.89543  24205576.680                    24205586.293
 119894983.968 7  93424722.52444  22815260.672                    22815269.645
 11  7 27  1  5  0.0000000  0 10G28G12G01G17G09G10G04G02G05G27
 123405280.185 6  96160047.54143  23483241.656                    23483250.797
 120331315.154 7  93764739.35144  22898294.320                    22898302.242
 114483948.982 8                  21785558.203
 116717349.592 7  90948728.17945  22210557.898                    22210565.531
 117743634.552 7  91748370.07544  22405876.398                    22405884.563
 113761533.082 7  88645437.42945  21648099.797                    21648107.551
 106729629.015 8  83166102.15046  20309960.578                    20309967.930
 110148689.937 8  85830282.83946  20960589.664                    20960595.344
 127094891.382 6  99035072.28643  24185358.773                    24185368.730
 119937761.903 7  93458055.94044  22823401.109                    22823410.250
 11  7 27  1  5 30.0000000  0 10G28G12G01G17G09G10G04G02G05G27
 123497135.319 6  96231622.92143  23500721.133                    23500730.051
 120241352.138 7  93694638.34244  22881174.781                    22881182.801
 114427068.850 8                  21774734.688
 116759694.826 7  90981724.45545  22218616.109                    22218623.590
 117789112.476 7  91783807.36644  22414530.852                    22414539.316
 113696263.619 7  88594578.13845  21635679.555                    21635688.090
 106775807.008 8  83202085.00546  20318748.289                    20318754.984
 110110211.451 8  85800299.62146  20953267.242                    20953272.645
 126988624.836 6  98952267.39343  24165136.227                    24165147.141
 119980885.117 7  93491658.39044  22831607.227                    22831616.395
 11  7 27  1  6  0.0000000  0 10G28G12G01G17G09G10G04G02G05G27
 123589178.210 6  96303344.60243  23518235.930                    23518245.426
 120151486.463 7  93624613.18044  22864073.438                    22864081.520
 114370472.989 8                  21763964.539
 116802062.222 7  91014738.01745  22226678.813                    22226685.977
 117835007.691 7  91819569.82944  22423264.477                    22423273.320
 113631345.304 7  88543992.51145  21623325.867                    21623334.055
 106822301.720 8  83238314.64946  20327595.461                    20327603.051
 110072020.099 8  85770540.15346  20945999.594                    20946005.047
 126882255.686 6  98869382.52743  24144895.469                    24144905.875
 120024268.123 7  93525463.27944  22839862.859                    22839872.145
 11  7 27  1  6 30.0000000  0 10G28G12G01G17G09G10G04G02G05G27
 123681569.934 6  96375338.10143  23535817.914                    23535826.563
 120061883.238 7  93554792.52345  22847023.492                    22847031.379
 114314324.532 8                  21753280.164
 116844614.993 7  91047896.01045  22234776.195                    22234783.629
 117881480.147 7  91855782.08544  22432107.750                    22432116.387
 113566943.558 7  88493809.37645  21611070.680                    21611078.867
 106869273.546 8  83274916.07046  20336533.961                    20336541.340
 110034278.240 8  85741130.93146  20938817.602                    20938823.332
 126775949.149 6  98786546.49143  24124666.180                    24124676.418
 120068071.540 6  93559595.76444  22848198.766                    22848207.555
 11  7 27  1  7  0.0000000  0 10G28G12G01G17G09G10G04G02G05G27
 123774229.575 6  96447540.38343  23553450.258                    23553459.266
 119972465.677 7  93485116.54545  22830007.438                    22830015.234
 114258544.679 8                  21742665.766
 116887274.676 7  91081137.33945  22242894.086                    22242901.379
 117928447.999 7  91892380.37544  22441044.922                    22441054.051
 113502982.207 7  88443969.41245  21598899.313                    21598907.164
 106916641.098 8  83311825.85746  20345547.734                    20345555.637
 109996906.635 8  85712010.21846  20931706.109                    20931711.965
 126669628.788 7  98703699.65444  24104433.398                    24104443.613
 120112213.619 6  93593992.13944  22856597.773                    22856607.055
 11  7 27  1  7 30.0000000  0 10G28G12G01G17G09G10G04G02G05G27
 123867073.531 6  96519886.28843  23571118.180                    23571127.762
 119883154.511 7  93415523.46744  22813012.156                    22813019.324
 114203051.908 8                  21732105.594
 116929959.903 7  91114398.55545  22251016.344                    22251024.254
 117975826.856 7  91929298.89244  22450061.492                    22450070.094
 113439382.504 7  88394411.24345  21586796.453                    21586804.781
 106964320.145 8  83348978.35846  20354620.484                    20354628.387
 109959823.757 8  85683114.48346  20924649.531                    20924655.512
 126563215.684 7  98620780.55644  24084183.195                    24084193.184
 120156610.418 6  93628586.99244  22865047.109                    22865056.227
 11  7 27  1  8  0.0000000  0 10G28G12G01G17G09G10G04G02G05G27
 123960259.593 6  96592498.77543  23588851.109                    23588859.598
 119794111.521 7  93346139.37145  22796067.617                    22796075.551
 114148005.869 8                  21721630.484
 116972830.278 7  91147804.05045  22259174.570                    22259182.180
 118023772.994 7  91966659.45144  22459185.016                    22459193.734
 113376306.587 7  88345261.22745  21574793.234                    21574801.324
 107012468.002 8  83386496.16546  20363782.969                    20363790.531
 109923188.352 8  85654567.43246  20917678.219                    20917683.801
 126456871.996 7  98537915.50744  24063947.484                    24063957.090
 120201418.851 6  93663502.61044  22873573.398                    22873582.828
 11  7 27  1  8 30.0000000  0 10G28G12G01G17G09G10G04G02G05G27
 124053709.052 6  96665316.51843  23606633.781                    23606642.063
 119705261.749 7  93276905.80945  22779160.320                    22779167.418
 114093329.400 8                  21711225.531
 117015808.713 7  91181293.75045  22267353.055                    22267360.848
 118072206.496 7  92004399.81344  22468401.516                    22468410.426
 113313679.904 7  88296461.26945  21562875.602                    21562884.027
 107061005.024 8  83424317.22546  20373019.203                    20373026.625
 109886923.068 8  85626308.79246  20910776.719                    20910782.809
 126350522.959 6  98455046.34144  24043709.063                    24043719.520
 120246559.413 6  93698677.02144  22882164.156                    22882173.195
 11  7 27  1  9  0.0000000  0 10G28G12G01G17G09G10G04G02G05G27
 124147338.892 6  96738274.79944  23624451.141                    23624460.168
 119616526.824 7  93207761.75745  22762274.227                    22762281.531
 114038941.693 8                  21700876.086
 117058814.798 7  91214804.99745  22275536.344                    22275544.270
 118121043.624 7  92042454.66744  22477694.836                    22477703.633
 113251423.996 7  88247950.20345  21551029.109                    21551037.203
 107109847.588 8  83462376.35346  20382313.297                    20382320.660
 109850946.670 8  85598275.24346  20903930.469                    20903936.254
 126244090.309 6  98372112.00543  24023454.992                    24023465.332
 120291948.844 7  93734045.35244  22890801.234                    22890810.496
 11  7 27  1  9 30.0000000  0 10G28G12G01G17G09G10G04G02G05G27
 124241304.438 6  96811494.68643  23642332.695                    23642341.039
 119528066.088 7  93138831.37745  22745441.008                    22745448.852
 113985000.081 8                  21690611.273
 117102005.920 7  91248460.42845  22283755.508                    22283763.699
 118170438.702 7  92080944.29244  22487094.805                    22487103.254
 113189699.105 7  88199852.92845  21539283.047                    21539291.371
 107159150.839 8  83500794.47446  20391695.602                    20391703.168
 109815416.040 8  85570589.05546  20897169.422                    20897175.105
 126137733.950 6  98289237.07444  24003216.148                    24003226.785
 120337741.526 7  93769727.92044  22899515.063                    22899524.570
 11  7 27  1 10  0.0000000  0 10G28G12G01G17G09G10G04G02G05G27
 124335528.251 6  96884915.79543  23660262.578                    23660271.637
 119439806.059 7  93070057.36945  22728645.484                    22728653.000
 113931429.366 8                  21680417.031
 117145306.842 7  91282201.41745  22291995.766                    22292003.480
 118220313.176 7  92119807.48445  22496585.547                    22496594.195
 113128432.261 7  88152112.57045  21527624.086                    21527632.539
 107208836.533 8  83539510.58546  20401150.766                    20401158.398
 109780255.472 8  85543191.22546  20890478.531                    20890484.055
 126031380.937 6  98206364.77644  23982977.625                    23982988.645
 120383859.640 7  93805664.04444  22908291.328                    22908300.988
 11  7 27  1 10 30.0000000  0 10G28G12G01G17G09G10G04G02G05G27
 124429928.954 6  96958474.77643  23678226.023                    23678234.867
 119351670.175 7  93001380.08845  22711873.719                    22711881.160
 113878149.994 8                  21670278.547
 117188638.821 7  91315966.59645  22300241.258                    22300249.316
 118270584.719 7  92158980.06744  22506152.633                    22506161.488
 113067546.802 7  88104669.39045  21516038.242                    21516046.902
 107258823.090 8  83578461.14546  20410662.563                    20410670.445
 109745384.900 8  85516019.37446  20883843.180                    20883848.730
 125924954.255 7  98123435.06444  23962725.781                    23962736.332
 120430221.219 6  93841789.89244  22917113.422                    22917122.766
 11  7 27  1 11  0.0000000  0 10G28G12G01G17G09G10G04G02G05G27
 124524658.776 6  97032290.19243  23696252.367                    23696261.520
 119263814.483 7  92932921.18345  22695155.617                    22695163.047
 113825316.330 8                  21660224.594
 117232155.288 7  91349875.53245  22308522.281                    22308530.445
 118321404.148 7  92198579.57644  22515822.789                    22515831.934
 113007199.371 7  88057645.47645  21504553.867                    21504562.496
 107309261.915 8  83617764.12646  20420260.977                    20420268.629
 109710957.972 8  85489193.21646  20877291.547                    20877297.559
 125818610.790 7  98040570.15943  23942489.055                    23942499.109
 120476977.645 7  93878223.39844  22926011.328                    22926020.055
 11  7 27  1 11 30.0000000  0 10G28G12G01G17G09G10G04G02G05G27
 124619641.224 6  97106302.44743  23714326.680                    23714336.727
 119176166.735 7  92864624.26445  22678476.109                    22678484.008
 113772853.530 8                  21650241.352
 117275782.291 7  91383870.59445  22316824.305                    22316832.324
 118372693.924 7  92238545.61644  22525583.055                    22525591.609
 112947317.544 7  88010984.35945  21493159.203                    21493167.563
 107360075.707 8  83657359.29046  20429930.570                    20429938.680
 109676899.815 8  85462654.42046  20870810.891                    20870816.297
 125712278.263 6  97957713.76244  23922254.367                    23922264.367
 120524051.702 7  93914904.43344  22934968.813                    22934978.234
 11  7 27  1 12  0.0000000  0 10G28G12G01G17G09G10G04G02G05G27
 124714874.688 6  97180510.30243  23732449.898                    23732458.801
 119088729.371 7  92796491.31045  22661838.063                    22661844.840
 113720761.703 8                  21640328.594
 117319520.504 7  91417952.30945  22325147.266                    22325154.660
 118424451.269 7  92278875.98144  22535431.844                    22535440.633
 112887904.459 7  87964688.49145  21481853.203                    21481861.180
 107411262.340 8  83697244.98046  20439670.609                    20439678.801
 109643210.089 8  85436402.71046  20864399.680                    20864404.953
 125605959.758 6  97874868.31444  23902022.242                    23902032.906
 120571441.031 7  93951831.12144  22943986.984                    22943996.457
 11  7 27  1 12 30.0000000  0 10G28G12G01G17G09G10G04G02G05G27
 124810275.273 6  97254848.38343  23750604.539                    23750612.633
 119001422.930 7  92728460.37945  22645223.297                    22645231.082
 113668959.539 8                  21630470.859
 117363288.183 7  91452056.98745  22333476.531                    22333483.574
 118476591.490 7  92319504.67844  22545354.336                    22545362.879
 112828880.994 7  87918696.22445  21470621.203                    21470629.609
 107462737.607 8  83737355.58246  20449466.547                    20449473.742
 109609806.723 8  85410374.13246  20858043.227                    20858049.051
 125499575.881 7  97791971.92443  23881778.133                    23881787.973
 120619061.277 7  93988937.74444  22953048.898                    22953057.629
 11  7 27  1 13  0.0000000  0 10G28G12G01G17G09G10G04G02G05G27
 124906001.276 6  97329440.03843  23768819.953                    23768828.770
 118914410.187 7  92660658.26845  22628666.227                    22628672.980
 113617607.249 8                  21620698.727
 117407245.726 7  91486309.60545  22341841.234                    22341848.613
 118529271.630 7  92360554.09844  22555378.836                    22555387.895
 112770409.830 7  87873134.32745  21459494.695                    21459503.219
 107514659.178 8  83777813.94946  20459346.805                    20459354.617
 109576849.659 8  85384693.32546  20851771.648                    20851777.566
 125393289.582 6  97709151.54344  23861552.594                    23861562.168
 120667070.450 7  94026347.41744  22962184.391                    22962194.020
 11  7 27  1 13 30.0000000  0 10G28G12G01G17G09G10G04G02G05G27
 125001972.479 6  97404222.74942  23787082.680                    23787090.852
 118827615.135 7  92593025.82145  22612149.039                    22612156.340
 113566625.979 8                  21610997.055
 117451315.591 7  91520649.75245  22350227.563                    22350234.941
 118582410.261 7  92401960.77644  22565490.453                    22565499.449
 112712415.157 7  87827943.72945  21448458.266                    21448467.020
 107566946.393 8  83818557.23146  20469296.344                    20469304.242
 109544259.759 8  85359298.62746  20845569.844                    20845575.703
 125287025.369 6  97626348.41744  23841331.172                    23841341.293
 120715387.359 7  94063996.87744  22971379.203                    22971388.539
 11  7 27  1 14  0.0000000  0 10G28G12G01G17G09G10G04G02G05G27
 125098107.102 6  97479132.79642  23805376.508                    23805384.984
 118740960.196 7  92525502.50945  22595659.273                    22595666.363
 113515936.682 8                  21601351.516
 117495418.000 7  91555015.27845  22358619.656                    22358627.402
 118635924.492 7  92443660.13544  22575674.289                    22575683.430
 112654819.824 7  87783064.28845  21437498.383                    21437506.875
 107619516.829 8  83859521.21546  20479300.336                    20479308.652
 109511956.909 8  85334127.59046  20839423.008                    20839428.711
 125180706.523 7  97543502.70144  23821099.711                    23821108.605
 120763929.709 7  94101822.01444  22980616.367                    22980625.902
 11  7 27  1 14 30.0000000  0 10G28G12G01G17G09G10G04G02G05G27
 125194560.113 6  97554290.95342  23823730.578                    23823739.711
 118654604.317 7  92458212.26345  22579226.133                    22579233.516
 113465695.546 8                  21591790.672
 117539709.911 7  91589528.43745  22367048.461                    22367056.098
 118689968.029 7  92485771.93745  22585958.211                    22585967.332
 112597783.095 7  87738620.14445  21426644.219                    21426653.039
 107672524.854 8  83900826.17246  20489387.219                    20489395.406
 109480097.458 8  85309302.07046  20833359.938                    20833365.512
 125074491.447 7  97460737.84244  23800886.797                    23800896.836
 120812851.468 7  94139942.80144  22989925.711                    22989935.055
 11  7 27  1 15  0.0000000  0 10G28G12G01G17G09G10G04G02G05G27
 125291253.713 6  97629636.64042  23842131.016                    23842140.301
 118568474.091 7  92391097.82545  22562836.547                    22562843.777
 113415826.685 8                  21582301.305
 117584115.911 7  91624130.49445  22375498.883                    22375505.797
 118744461.542 7  92528234.36944  22596328.391                    22596337.445
 112541231.380 7  87694553.92045  21415882.945                    21415891.598
 107725891.928 7  83942410.90146  20499543.063                    20499550.684
 109448605.008 8  85284762.52446  20827367.391                    20827373.355
 124968307.263 6  97377997.06444  23780680.656                    23780690.973
 120862073.900 7  94178297.88244  22999292.695                    22999302.070
 11  7 27  1 15 30.0000000  0 10G28G12G01G17G09G10G04G02G05G27
 125388107.026 6  97705106.70142  23860562.391                    23860571.078
 118482493.122 7  92324099.69245  22546474.391                    22546482.230
 113366251.671 8                  21572867.359
 117628557.572 7  91658760.36245  22383955.930                    22383962.984
 118799323.871 6  92570984.18844  22606768.422                    22606777.172
 112485088.779 8  87650806.48145  21405199.734                    21405207.762
 107779537.155 8  83984212.37646  20509751.242                    20509759.156
 109417400.585 8  85260447.41246  20821429.781                    20821435.699
 124862078.340 6  97295221.42044  23760465.781                    23760475.492
 120911516.268 7  94216824.32344  23008701.711                    23008710.535
 11  7 27  1 16  0.0000000  0 10G28G12G01G17G09G10G04G02G05G27
 125485271.061 5  97780818.91242  23879051.563                    23879061.000
 118396817.297 7  92257339.34345  22530170.688                    22530178.191
 113317123.384 8                  21563518.430
 117673188.287 7  91693537.51245  22392448.414                    22392455.699
 118854704.550 7  92614137.91744  22617306.445                    22617315.484
 112429510.861 7  87607499.05945  21394623.313                    21394631.633
 107833611.139 8  84026347.94746  20520041.109                    20520049.203
 109386636.577 8  85236475.49346  20815574.883                    20815580.727
 124755960.069 6  97212532.01544  23740272.086                    23740281.445
 120961329.061 7  94255639.42744  23018180.867                    23018189.883
 11  7 27  1 16 30.0000000  0 10G28G12G01G17G09G10G04G02G05G27
 125582670.253 5  97856714.39142  23897585.656                    23897595.156
 118311375.140 7  92190761.06045  22513912.086                    22513919.098
 113268368.300 8                  21554240.563
 117717934.738 7  91728404.85745  22400963.406                    22400970.992
 118910526.929 7  92657635.82344  22627929.313                    22627938.371
 112374426.414 7  87564576.16345  21384141.227                    21384149.758
 107888037.595 8  84068758.17246  20530398.047                    20530405.883
 109356239.090 8  85212789.16646  20809790.789                    20809796.211
 124649881.446 6  97129873.48844  23720086.234                    23720095.512
 121011435.861 7  94294683.63744  23027715.672                    23027725.168
 11  7 27  1 17  0.0000000  0 10G28G12G01G17G09G10G04G02G05G27
 125680302.717 5                  23916165.469
 118226169.060 7  92124366.74445  22497697.313                    22497705.145
 113219985.971 8                  21545033.602
 117762797.009 7  91763362.45845  22409500.453                    22409507.742
 118966787.445 7  92701475.13044  22638635.578                    22638644.926
 112319837.412 8  87522039.31545  21373753.148                    21373761.539
 107942813.796 8  84111440.92846  20540822.023                    20540829.465
 109326207.073 8  85189387.62146  20804075.844                    20804081.395
 124543845.180 6  97047247.99744  23699907.305                    23699917.770
 121061833.756 7  94333954.66844  23037305.891                    23037314.590
 11  7 27  1 17 30.0000000  0 10G28G12G01G17G09G10G04G02G05G27
 125778083.758 5                  23934771.008
 118141119.147 7  92058094.10445  22481513.227                    22481520.352
 113171893.652 8                  21535881.953
 117807692.969 7  91798346.30345  22418043.891                    22418051.848
 119023400.817 7  92745589.40144  22649408.188                    22649417.715
 112265664.110 7  87479826.39745  21363444.508                    21363452.242
 107997854.977 8  84154330.15346  20551295.781                    20551303.297
 109296457.905 8  85166206.48346  20798414.273                    20798420.258
 124437771.898 6  96964593.64544  23679722.703                    23679732.473
 121112437.634 7  94373386.23244  23046935.773                    23046944.730
 11  7 27  1 18  0.0000000  0 10G28G12G01G17G09G10G04G02G05G27
 125876171.971 5                  23953437.180
 118056387.110 7  91992069.17445  22465388.891                    22465396.848
 113124252.127 8                  21526816.500
 117852783.693 7  91833481.91545  22426624.359                    22426632.406
 119080524.196 7  92790101.06044  22660278.586                    22660287.766
 112212069.368 7  87438064.28945  21353245.727                    21353253.926
 108053319.036 8  84197548.90646  20561850.422                    20561858.031
 109267151.389 8  85143370.25346  20792837.664                    20792843.660
 124331824.278 6  96882037.18244  23659561.773                    23659571.301
 121163405.394 7  94413101.31444  23056634.250                    23056644.359
 11  7 27  1 18 30.0000000  0 10G28G12G01G17G09G10G04G02G05G27
 125974487.37915                  23972148.055
 117971898.251 7  91926233.72145  22449311.531                    22449319.074
 113076983.268 8                  21517821.297
 117897991.430 7  91868708.71345  22435227.117                    22435234.516
 119138076.575 6  92834947.01544  22671230.508                    22671239.336
 112158977.652 7  87396694.16245  21343142.484                    21343150.816
 108109125.692 8  84241034.61246  20572469.883                    20572478.113
 109238209.004 8  85120817.77146  20787330.313                    20787335.617
 124225927.647 7  96799520.45944  23639409.477                    23639419.426
 121214656.443 7  94453037.17644  23066387.000                    23066396.543
 11  7 27  1 19  0.0000000  0 10G28G12G01G17G09G10G04G02G05G27
 126072948.11914                  23990883.055
 117887575.229 7  91860527.51745  22433265.883                    22433272.938
 113030006.972 8                  21508881.633
 117943236.515 7  91903964.59745  22443837.031                    22443844.656
 119195974.905 7  92880062.53444  22682247.938                    22682257.477
 112106311.551 8  87355655.68645  21333120.609                    21333128.535
 108165192.445 8  84284722.99246  20583138.891                    20583146.641
 109209550.400 8  85098486.41746  20781876.563                    20781882.141
 124120004.233 7  96716982.85944  23619253.531                    23619262.859
 121266108.386 7  94493129.54744  23076178.461                    23076187.785
 11  7 27  1 19 30.0000000  0 10G28G12G01G17G09G10G04G02G05G27
 126171709.01714                  24009676.180
 117803577.050 7  91795074.42445  22417281.414                    22417288.426
 112983480.006 8                  21500028.023
 117988676.068 7  91939372.02545  22452483.727                    22452491.461
 119254372.607 7  92925567.16344  22693361.375                    22693369.945
 112054230.071 7  87315072.74245  21323209.625                    21323217.531
 108221673.685 8  84328734.34746  20593887.352                    20593895.164
 109181331.968 8  85076498.05146  20776506.836                    20776512.750
 124014213.554 7  96634548.65544  23599121.445                    23599130.906
 121317915.318 7  94533498.54644  23086037.289                    23086046.926
 11  7 27  1 20  0.0000000  0  9G12G01G17G09G10G04G02G05G27
 117719830.628 7  91729817.49845  22401344.461                    22401351.883
 112937326.330 8                  21491245.242
 118034234.737 7  91974872.27145  22461153.492                    22461161.363
 119313190.667 6  92971399.34844  22704553.828                    22704562.984
 112002659.857 8  87274888.20345  21313396.344                    21313404.336
 108278491.293 8  84373007.80946  20604699.164                    20604707.102
 109153477.486 8  85054793.28146  20771206.414                    20771211.672
 123908482.924 7  96552161.24744  23579001.766                    23579010.852
 121369998.778 7  94574082.99644  23095948.172                    23095957.902
 11  7 27  1 20 30.0000000  0  9G12G01G17G09G10G04G02G05G27
 117636337.546 7  91664757.97645  22385455.641                    22385463.672
 112891545.831 8                  21482533.305
 118079912.580 7  92010465.38045  22469845.766                    22469853.453
 119372425.757 7  93017556.47744  22715825.984                    22715835.184
 111951602.979 7  87235103.66945  21303680.484                    21303688.016
 108335642.197 8  84417540.97846  20615574.406                    20615582.063
 109125985.768 8  85033371.18846  20765974.656                    20765980.148
 123802814.709 6  96469822.47644  23558893.789                    23558903.621
 121422355.738 7  94614880.62244  23105911.125                    23105920.953
 11  7 27  1 21  0.0000000  0  9G12G01G17G09G10G04G02G05G27
 117553017.134 7  91599833.00445  22369601.258                    22369608.355
 112846054.912 8                  21473876.336
 118125626.770 7  92046086.80445  22478544.875                    22478552.695
 119431991.237 7  93063971.06944  22727161.414                    22727170.156
 111900978.444 7  87195656.01745  21294047.016                    21294055.305
 108393040.887 8  84462267.23246  20626497.328                    20626505.551
 109098773.194 8  85012166.61146  20760796.539                    20760802.191
 123697128.440 7  96387469.67044  23538782.086                    23538791.145
 121474900.260 7  94655824.39244  23115910.172                    23115919.965
 11  7 27  1 21 30.0000000  0  9G12G01G17G09G10G04G02G05G27
 117470034.273 7  91535171.06845  22353809.906                    22353817.465
 112801015.439 8                  21465305.789
 118171539.821 7  92081863.18245  22487281.414                    22487289.719
 119492045.949 7  93110766.87644  22738589.070                    22738598.121
 111850950.605 7  87156673.33245  21284526.266                    21284534.844
 108450846.733 8  84507310.74546  20637497.438                    20637504.898
 109072001.084 8  84991305.25946  20755702.055                    20755706.863
 123591588.815 6  96305231.12644  23518698.477                    23518707.598
 121527791.744 7  94697038.49144  23125975.406                    23125984.875
 11  7 27  1 22  0.0000000  0  9G12G01G17G09G10G04G02G05G27
 117387312.932 7  91470712.90645  22338068.508                    22338075.629
 112756348.927 8                  21456806.148
 118217573.549 7  92117733.60945  22496041.508                    22496049.391
 119552508.456 7  93157880.44244  22750095.563                    22750104.039
 111801443.506 7  87118096.41745  21275105.844                    21275113.957
 108508979.112 8  84552608.70646  20648559.781                    20648567.051
 109045590.442 8  84970725.56546  20750676.250                    20750681.082
 123486120.303 7  96223048.02044  23498628.656                    23498637.844
 121580949.148 7  94738459.82944  23136090.586                    23136099.875
 11  7 27  1 22 30.0000000  0  9G12G01G17G09G10G04G02G05G27
 117304773.292 7  91406396.32245  22322361.875                    22322368.516
 112711973.067 8                  21448361.875
 118263646.756 7  92153634.79545  22504808.758                    22504816.555
 119613293.533 7  93205245.38144  22761661.586                    22761671.223
 111752377.528 7  87079863.23445  21265768.859                    21265777.148
 108567353.654 8  84598095.36146  20659667.813                    20659675.730
 109019458.948 8  84950363.38446  20745703.508                    20745708.965
 123380643.813 7  96140858.66844  23478557.141                    23478566.406
 121634287.901 7  94780022.46444  23146240.484                    23146250.227
 11  7 27  1 23  0.0000000  0  9G12G01G17G09G10G04G02G05G27
 117222577.600 7  91342347.77345  22306720.813                    22306727.707
 112668047.639 8                  21440003.125
 118309919.099 7  92189691.13345  22513614.227                    22513622.129
 119674557.453 7  93252983.43944  22773320.016                    22773329.328
 111703914.477 7  87042099.86345  21256546.953                    21256554.672
 108626127.561 8  84643893.20846  20670851.977                    20670859.883
 108993765.771 8  84930342.74246  20740814.383                    20740819.645
 123275321.892 7  96058789.77144  23458514.750                    23458524.383
 121687965.035 7  94821848.75344  23156454.680                    23156464.992
 11  7 27  1 23 30.0000000  0  9G12G01G17G09G10G04G02G05G27
 117140651.179 7  91278509.02145  22291130.516                    22291137.199
 112624495.033 8                  21431715.180
 118356313.862 7  92225842.88845  22522443.148                    22522451.008
 119736219.776 7  93301031.94244  22785054.859                    22785063.047
 111655979.572 7  87004748.02645  21247425.039                    21247433.164
 108685221.137 8  84689940.14946  20682097.477                    20682105.043
 108968432.804 8  84910602.78746  20735993.727                    20735998.941
 123170080.031 7  95976783.27745  23438487.789                    23438497.773
 121741900.452 7  94863876.32444  23166719.078                    23166728.387
 11  7 27  1 24  0.0000000  0  9G12G01G17G09G10G04G02G05G27
 117058915.890 7  91214819.21945  22275576.469                    22275583.566
 112581234.589 8                  21423482.984
 118402750.972 7  92262027.62745  22531280.008                    22531287.664
 119798196.695 6  93349325.56444  22796847.875                    22796857.605
 111608494.588 7  86967746.79445  21238388.430                    21238396.973
 108744551.333 8  84736171.46246  20693387.289                    20693394.938
 108943379.058 8  84891080.40946  20731226.016                    20731231.402
 123064840.487 7  95894778.56545  23418461.195                    23418470.723
 121796011.017 7  94906040.36944  23177015.000                    23177025.059
 11  7 27  1 24 30.0000000  0  9G12G01G17G09G10G04G02G05G27
 116977530.157 7  91151401.81145  22260088.844                    22260096.238
 112538422.309 8                  21415335.930
 118449387.106 7  92298367.45145  22540154.266                    22540162.703
 119860640.960 7  93397983.42144  22808730.914                    22808739.641
 111561617.508 7  86931219.24645  21229468.422                    21229475.887
 108804271.827 8  84782706.91646  20704751.875                    20704759.500
 108918760.018 8  84871896.75946  20726541.047                    20726546.152
 122959762.408 7  95812899.68644  23398465.672                    23398474.809
 121850450.101 7  94948460.39444  23187376.055                    23187384.859
 11  7 27  1 25  0.0000000  0  9G12G01G17G09G10G04G02G05G27
 116896421.720 7  91088200.43945  22244654.813                    22244661.980
 112495982.501 8                  21407260.109
 118496147.202 7  92334803.87045  22549052.336                    22549060.152
 119923474.235 7  93446944.35044  22820687.258                    22820696.738
 111515275.079 7  86895108.31645  21220649.391                    21220657.148
 108864304.926 8  84829485.94346  20716175.625                    20716183.344
 108894499.747 8  84852992.66146  20721924.656                    20721930.082
 122854773.018 7  95731089.88944  23378486.930                    23378495.875
 121905139.707 7  94991075.61544  23197782.383                    23197791.688
 11  7 27  1 25 30.0000000  0  9G12G01G17G09G10G04G02G05G27
 116815513.457 7  91025155.08945  22229258.133                    22229265.855
 112453835.817 8                  21399239.750
 118542952.550 7  92371275.54445  22557959.164                    22557967.090
 119986613.980 6  93496144.14144  22832702.281                    22832711.961
 111469390.692 7  86859354.29145  21211917.828                    21211926.313
 108924569.046 8  84876444.99846  20727643.367                    20727651.387
 108870518.367 8  84834305.88946  20717360.930                    20717366.473
 122749796.008 7  95649289.75944  23358510.141                    23358519.578
 121959998.150 7  95033822.41744  23208221.078                    23208230.836
 11  7 27  1 26  0.0000000  0  9G12G01G17G09G10G04G02G05G27
 116734961.180 7  90962387.10845  22213929.984                    22213937.215
 112412135.581 8                  21391304.719
 118589957.099 7  92407902.44445  22566904.211                    22566911.438
 120050210.068 7  93545699.49844  22844804.648                    22844813.902
 111424120.182 7  86824078.61045  21203303.273                    21203311.656
 108985215.200 8  84923701.73846  20739184.336                    20739192.328
 108846968.829 8  84815955.62246  20712879.922                    20712884.895
 122644987.625 6  95567620.99144  23338566.000                    23338574.738
 122015175.902 6  95076818.02143  23218721.555                    23218730.441
 11  7 27  1 26 30.0000000  0  9G12G01G17G09G10G04G02G05G27
 116654693.661 7  90899841.01445  22198655.547                    22198662.480
 112370807.440 8                  21383440.094
 118637087.299 7  92444627.25945  22575872.563                    22575880.129
 120114185.325 7  93595550.30644  22856978.680                    22856988.465
 111379391.119 8  86789224.83845  21194791.781                    21194799.559
 109046166.849 8  84971196.52546  20750782.625                    20750790.180
 108823776.620 8  84797883.78946  20708466.250                    20708471.730
 122540276.741 6  95486028.22244  23318639.859                    23318648.711
 122070596.458 6  95120002.84443  23229267.820                    23229276.668
 11  7 27  1 27  0.0000000  0  9G12G01G17G09G10G04G02G05G27
 116574713.256 7  90837518.65745  22183435.516                    22183442.961
 112329851.303 8                  21375646.258
 118684343.236 7  92481450.05745  22584864.922                    22584872.629
 120178536.655 7  93645694.16144  22869224.063                    22869233.676
 111335205.759 7  86754794.72345  21186383.273                    21186391.453
 109107421.833 8  85018927.67346  20762439.469                    20762447.586
 108800940.960 8  84780089.78246  20704120.352                    20704126.094
 122435666.344 7  95404513.75844  23298732.398                    23298741.828
 122126257.009 7  95163374.66644  23239859.922                    23239868.836
 11  7 27  1 27 30.0000000  0  9G12G01G17G09G10G04G02G05G27
 116494940.791 7  90775358.32545  22168255.383                    22168262.473
 112289184.879 8                  21367907.773
 118731643.784 7  92518307.59645  22593866.156                    22593873.352
 120243178.849 6  93696064.70244  22881525.477                    22881534.844
 111291484.322 8  86720726.12045  21178063.531                    21178071.770
 109168895.770 8  85066829.43546  20774137.383                    20774144.945
 108778379.706 8  84762509.60246  20699827.336                    20699832.703
 122331077.507 7  95323016.08644  23278829.852                    23278838.961
 122182073.068 6  95206867.65344  23250480.891                    23250490.992
 11  7 27  1 28  0.0000000  0  9G12G01G17G09G10G04G02G05G27
 116415537.052 7  90713485.30145  22153145.484                    22153152.426
 112248966.135 8                  21360254.281
 118779147.573 7  92555323.51245  22602905.820                    22602913.543
 120308266.803 7  93746782.55844  22893911.477                    22893920.426
 111248387.479 7  86687144.21345  21169862.289                    21169870.637
 109230744.289 8  85115023.07946  20785906.891                    20785914.738
 108756249.728 8  84745265.47946  20695616.438                    20695621.891
 122226671.224 7  95241660.64144  23258962.453                    23258970.738
 122238200.280 6  95250603.04643  23261161.984                    23261171.855
 11  7 27  1 28 30.0000000  0  9G12G01G17G09G10G04G02G05G27
 116336428.720 7  90651842.47245  22138091.688                    22138098.805
 112209119.421 8                  21352671.508
 118826779.621 7  92592439.37444  22611969.586                    22611977.758
 120373721.741 7  93797786.39044  22906367.219                    22906376.566
 111205842.003 8  86653991.93945  21161766.125                    21161774.047
 109292889.869 8  85163448.19346  20797732.734                    20797740.355
 108734475.379 8  84728298.47146  20691472.844                    20691477.961
 122122374.993 7  95160390.99044  23239115.617                    23239124.637
 122294560.341 6  95294519.95143  23271886.648                    23271896.156
 11  7 27  1 29  0.0000000  0  9G12G01G17G09G10G04G02G05G27
 116257537.322 7  90590368.69345  22123079.383                    22123086.316
 112169563.265 8                  21345144.375
 118874458.903 7  92629592.04244  22621042.758                    22621050.426
 120439458.957 7  93849010.17444  22918876.219                    22918885.863
 111163768.359 7  86621207.32745  21153760.172                    21153767.863
 109355248.711 8  85212039.49846  20809599.344                    20809607.199
 108712974.428 8  84711544.49446  20687381.477                    20687387.027
 122018110.437 7  95079145.99645  23219274.750                    23219283.211
 122351069.006 7  95338552.63044  23282639.773                    23282649.590
 11  7 27  1 29 30.0000000  0  9G12G01G17G09G10G04G02G05G27
 116179021.372 7  90529187.44245  22108137.805                    22108145.086
 112130453.531 8                  21337702.055
 118922342.452 7  92666903.88444  22630154.664                    22630162.094
 120505631.657 6  93900573.29544  22931468.539                    22931477.875
 111122324.866 7  86588913.74245  21145873.492                    21145880.805
 109417974.632 8  85260916.82746  20821535.578                    20821543.422
 108691902.902 8  84695125.14746  20683371.531                    20683376.809
 121914036.438 7  94998049.48845  23199469.430                    23199478.844
 122407879.986 7  95382820.84944  23293450.594                    23293460.023
 11  7 27  1 30  0.0000000  0  9G12G01G17G09G10G04G02G05G27
 116100808.293 7  90468242.21045  22093254.586                    22093261.406
 112091714.664 8                  21330330.414
 118970355.405 7  92704316.54744  22639291.313                    22639299.242
 120572160.909 7  93952414.22944  22944128.406                    22944137.953
 111081438.133 8  86557054.00545  21138092.703                    21138100.578
 109480990.185 8  85310019.84546  20833527.016                    20833534.586
 108671184.734 8  84678981.13746  20679428.813                    20679433.918
 121810080.879 7  94917045.28145  23179687.656                    23179696.742
 122464915.287 7  95427263.88244  23304304.891                    23304314.039
 11  7 27  1 30 30.0000000  0  9G12G01G17G09G10G04G02G05G27
 116022821.214 7  90407473.08345  22078414.109                    22078420.973
 112053266.915 8                  21323013.750
 119018418.866 7  92741768.57445  22648437.469                    22648445.313
 120638964.117 6  94004468.63844  22956841.320                    22956850.422
 111041030.921 7  86525567.90345  21130403.320                    21130411.047
 109544213.326 8  85359284.62146  20845557.914                    20845565.801
 108650739.689 8  84663049.94946  20675538.461                    20675543.969
 121706167.197 7  94836073.72944  23159913.359                    23159922.230
 122522092.935 7  95471817.82744  23315185.164                    23315194.855
 11  7 27  1 31  0.0000000  0  9G12G01G17G09G10G04G02G05G27
 115945215.746 7  90347001.30445  22063645.594                    22063652.926
 112015263.019 7                  21315781.898
 119066686.287 7  92779379.53244  22657622.492                    22657630.160
 120706191.049 7  94056853.23044  22969633.773                    22969643.043
 111001258.007 7  86494576.06845  21122834.844                    21122842.910
 109607794.722 8  85408828.55546  20857657.375                    20857664.984
 108630719.934 8  84647450.15746  20671728.672                    20671733.707
 121602451.214 7  94755256.21444  23140176.148                    23140185.645
 122579563.129 7  95516599.73144  23326121.148                    23326130.695
 11  7 27  1 31 30.0000000  0  9G12G01G17G09G10G04G02G05G27
 115867921.034 7  90286771.68845  22048936.938                    22048944.438
 111977628.752 8                  21308620.398
 119115084.147 7  92817092.14744  22666832.641                    22666840.199
 120773764.110 6  94109507.51644  22982493.297                    22982502.570
 110962047.410 7  86464022.39745  21115373.430                    21115380.895
 109671658.060 8  85458592.18846  20869809.797                    20869817.539
 108611051.000 8  84632123.73046  20667985.922                    20667991.145
 121498862.016 7  94674537.47744  23120464.117                    23120472.715
 122637249.222 7  95561549.88144  23337099.398                    23337108.355
 11  7 27  1 32  0.0000000  0  9G12G01G17G09G10G04G02G05G27
 115790939.351 7  90226785.96945  22034288.398                    22034294.750
 111940364.433 8                  21301529.352
 119163613.545 7  92854907.24544  22676066.859                    22676074.629
 120841680.931 7  94162429.68044  22995416.688                    22995426.230
 110923402.220 7  86433909.29245  21108019.305                    21108027.211
 109735801.738 8  85508574.26346  20882016.047                    20882023.781
 108591732.825 8  84617070.61946  20664309.484                    20664314.766
 121395403.231 7  94593920.37544  23100776.617                    23100785.883
 122695149.317 6  95606666.78444  23348116.742                    23348126.547
 11  7 27  1 32 30.0000000  0  9G12G01G17G09G10G04G02G05G27
 115714190.344 7  90166981.58045  22019683.383                    22019690.328
 111903386.676 8                  21294492.531
 119212192.172 7  92892760.69644  22685311.680                    22685319.449
 120909855.112 7  94215552.37444  23008390.648                    23008398.672
 110885241.365 8  86404173.59945  21100757.734                    21100765.234
 109800140.660 8  85558708.47846  20894259.266                    20894267.117
 108572682.192 8  84602225.99146  20660684.742                    20660689.707
 121291994.864 7  94513342.54444  23081098.320                    23081106.949
 122753177.634 7  95651883.59944  23359159.313                    23359169.551
 11  7 27  1 33  0.0000000  0  9G12G01G17G09G10G04G02G05G27
 115637837.174 7  90107485.61645  22005153.336                    22005160.953
 111866855.444 8                  21287541.109
 119260980.575 7  92930777.64644  22694596.352                    22694603.102
 120978443.361 6  94268997.72444  23021442.125                    23021451.305
 110847726.580 7  86374941.33845  21093618.711                    21093626.742
 109864832.401 8  85609117.61746  20906569.797                    20906578.031
 108554058.193 8  84587713.79646  20657140.672                    20657145.926
 121188800.007 7  94432931.03544  23061461.055                    23061469.535
 122811491.503 7  95697322.90144  23370256.031                    23370266.223
 11  7 27  1 33 30.0000000  0  9G12G01G17G09G10G04G02G05G27
 115561804.308 7  90048239.23945  21990685.406                    21990692.539
 111830692.478 8                  21280659.258
 119309901.593 7  92968897.91444  22703905.180                    22703912.918
 121047364.846 6  94322702.72244  23034557.195                    23034566.738
 110810782.001 7  86346153.38645  21086588.586                    21086595.910
 109929796.728 8  85659739.16246  20918932.016                    20918940.129
 108535782.261 8  84573472.81746  20653662.492                    20653667.793
 121085743.633 7  94352627.45544  23041849.664                    23041858.434
 122870010.193 6  95742921.83144  23381391.484                    23381401.324
 11  7 27  1 34  0.0000000  0  9G12G01G17G09G10G04G02G05G27
 115486013.631 7  89989181.58745  21976263.086                    21976270.000
 111794817.036 8                  21273832.305
 119358875.369 7  93007059.29945  22713224.250                    22713232.238
 121116535.611 7  94376601.98144  23047720.516                    23047728.770
 110774329.375 8  86317748.78145  21079651.844                    21079659.668
 109994951.027 8  85710508.73846  20931330.680                    20931338.570
 108517773.304 8  84559439.87446  20650235.602                    20650240.633
 120982748.437 7  94272371.55544  23022250.844                    23022259.465
 122928650.945 6  95788615.86543  23392550.789                    23392560.547
 11  7 27  1 34 30.0000000  0  9G12G01G17G09G10G04G02G05G27
 115410624.628 7  89930436.93745  21961916.492                    21961923.809
 111759385.573 8                  21267090.070
 119408058.904 7  93045384.13245  22722583.656                    22722591.754
 121186108.840 7  94430814.82944  23060959.992                    23060968.574
 110738526.990 8  86289850.84945  21072838.930                    21072846.359
 110060449.735 8  85761546.67746  20943794.586                    20943802.445
 108500187.331 8  84545736.53346  20646889.195                    20646894.422
 120879973.892 7  94192287.57245  23002693.148                    23002701.609
 122987567.680 6  95834524.91344  23403762.406                    23403771.984
 11  7 27  1 35  0.0000000  0  9G12G01G17G09G10G04G02G05G27
 115335564.124 7  89871948.24245  21947632.867                    21947640.180
 111724321.511 8                  21260417.383
 119457376.751 7  93083813.60545  22731968.656                    22731976.617
 121256005.326 7  94485279.58844  23074260.773                    23074269.680
 110703300.609 8  86262401.75045  21066135.523                    21066143.414
 110126214.367 8  85812791.83345  20956309.359                    20956317.211
 108482947.600 8  84532302.97946  20643608.352                    20643613.785
 120777347.223 7  94112318.83545  22983163.859                    22983172.496
 123046681.778 6  95880587.79544  23415011.281                    23415021.281
 11  7 27  1 35 30.0000000  0  9G12G01G17G09G10G04G02G05G27
 115260754.626 7  89813655.14545  21933397.250                    21933404.629
 111689544.545 8                  21253799.555
 119506749.608 7  93122285.96945  22741364.195                    22741371.875
 121326141.864 6  94539931.40144  23087607.023                    23087616.277
 110668572.450 8  86235340.88045  21059526.438                    21059534.684
 110192162.791 8  85864180.20646  20968858.719                    20968866.313
 108465973.162 8  84519076.15246  20640378.109                    20640383.570
 120674791.317 7  94032405.22345  22963647.758                    22963656.625
 123105910.447 6  95926739.91244  23426282.086                    23426291.973
 11  7 27  1 36  0.0000000  0  9G12G01G17G09G10G04G02G05G27
 115186353.179 7  89755680.00945  21919239.125                    21919246.148
 111655208.688 8                  21247265.805
 119556332.363 7  93160921.87045  22750799.477                    22750806.969
 121396669.352 6  94594887.83044  23101028.391                    23101037.563
 110634498.600 8  86208789.84945  21053042.836                    21053050.836
 110258447.211 8  85915830.38646  20981472.547                    20981480.379
 108449418.108 8  84506176.11446  20637227.961                    20637233.289
 120572463.590 7  93952669.43945  22944175.828                    22944184.117
 123165405.387 6  95973099.54843  23437604.445                    23437613.770
 11  7 27  1 36 30.0000000  0  9G12G01G17G09G10G04G02G05G27
 115112288.391 7  89697967.20045  21905145.164                    21905152.215
 111621239.890 8                  21240801.664
 119606051.515 7  93199664.04845  22760261.070                    22760268.523
 121467510.780 6  94650088.90944  23114508.234                    23114518.094
 110601007.094 7  86182692.60545  21046669.422                    21046677.234
 110324991.512 8  85967683.08246  20994135.359                    20994143.176
 108433208.121 8  84493544.97346  20634143.367                    20634148.844
 120470293.198 7  93873056.23945  22924733.258                    22924741.676
 123225090.105 6  96019607.07943  23448961.891                    23448971.199
 11  7 27  1 37  0.0000000  0  9G12G01G17G09G10G04G02G05G27
 115038561.844 7  89640517.95645  21891115.734                    21891122.930
 111587636.926 8                  21234407.180
 119655907.117 7  93238512.55845  22769748.008                    22769755.598
 121538662.126 7  94705531.46544  23128047.758                    23128057.996
 110568098.682 7  86157049.71645  21040406.836                    21040415.156
 110391792.713 8  86019735.94746  21006847.133                    21006855.156
 108417341.339 8  84481181.26346  20631124.133                    20631129.281
 120368282.385 6  93793567.39445  22905320.656                    22905329.945
 123284961.183 6  96066259.81743  23460354.750                    23460364.684
 11  7 27  1 37 30.0000000  0  9G12G01G17G09G10G04G02G05G27
 114965092.988 7  89583269.52445  21877134.688                    21877141.875
 111554316.185 8                  21228066.297
 119705816.758 7  93277403.17444  22779245.172                    22779252.844
 121610036.758 7  94761148.04044  23141630.336                    23141639.719
 110535691.911 7  86131797.71545  21034240.758                    21034247.957
 110458765.360 8  86071922.42446  21019591.836                    21019599.465
 108401733.996 8  84469019.71146  20628154.063                    20628159.730
 120266350.944 7  93714140.38444  22885924.195                    22885933.055
 123344932.768 6  96112990.86544  23471766.969                    23471775.965
 11  7 27  1 38  0.0000000  0  9G12G01G17G09G10G04G02G05G27
 114892045.699 7  89526349.55745  21863233.813                    21863241.770
 111521438.177 8                  21221810.000
 119755941.676 7  93316461.51745  22788783.844                    22788791.133
 121681792.279 7  94817061.41044  23155285.391                    23155293.762
 110503949.819 7  86107063.63745  21028199.836                    21028207.953
 110526068.018 8  86124366.03145  21032398.648                    21032406.398
 108386546.146 8  84457185.04146  20625263.875                    20625269.203
 120164663.019 7  93634903.12144  22866573.055                    22866582.191
 123405163.042 6  96159923.50344  23483227.773                    23483237.824
 11  7 27  1 38 30.0000000  0  9G12G01G17G09G10G04G02G05G27
 114819344.683 7  89469699.43945  21849399.945                    21849406.754
 111488925.128 8                  21215623.500
 119806204.798 7  93355627.57445  22798348.453                    22798356.352
 121753847.732 7  94873208.49044  23168997.156                    23169005.445
 110472795.988 8  86082787.95545  21022271.852                    21022279.559
 110593620.829 8  86177004.58646  21045253.961                    21045261.559
 108371699.518 8  84445616.25146  20622438.766                    20622443.957
 120063143.805 7  93555797.33845  22847254.914                    22847264.012
 123465571.556 6  96206995.01143  23494723.984                    23494733.543
 11  7 27  1 39  0.0000000  0  9G12G01G17G09G10G04G02G05G27
 114746910.942 7  89413257.55945  21835616.305                    21835623.238
 111456694.635 7                  21209489.703
 119856524.895 7  93394838.01745  22807924.539                    22807931.766
 121826117.995 6  94929522.93543  23182749.023                    23182757.859
 110442150.623 7  86058908.47546  21016440.070                    21016447.906
 110661339.923 8  86229772.68946  21058140.672                    21058148.418
 108357111.806 8  84434249.21246  20619662.539                    20619668.043
 119961714.849 7  93476761.87645  22827953.734                    22827962.297
 123526074.049 6  96254139.76044  23506237.477                    23506246.176
 11  7 27  1 39 30.0000000  0  9G12G01G17G09G10G04G02G05G27
 114674904.772 7  89357148.87846  21821913.180                    21821920.676
 111424904.182 8                  21203440.313
 119907060.498 7  93434216.38844  22817541.016                    22817548.137
 121898757.450 7  94986125.09444  23196572.688                    23196581.445
 110412173.099 7  86035549.38745  21010735.531                    21010743.496
 110729380.769 8  86282791.52245  21071088.000                    21071095.660
 108342939.924 8  84423206.18646  20616965.656                    20616970.844
 119860536.795 7  93397921.90745  22808699.469                    22808708.488
 123586825.666 6  96301478.64443  23517797.180                    23517807.398
 11  7 27  1 40  0.0000000  0  9G12G01G17G09G10G04G02G05G27
 114603251.934 7  89301315.51445  21808278.906                    21808286.160
 111393476.482 8                  21197459.656
 119957735.158 7  93473703.09944  22827184.094                    22827191.426
 121971685.982 7  95042952.46144  23210450.266                    23210459.992
 110382787.987 8  86012651.92245  21005143.992                    21005151.043
 110797664.183 8  86335999.37646  21084081.813                    21084089.789
 108329105.665 8  84412426.25646  20614333.328                    20614338.684
 119759535.652 7  93319219.80245  22789479.977                    22789488.305
 123647746.424 6  96348949.33643  23529390.477                    23529400.629
 11  7 27  1 40 30.0000000  0  9G12G01G17G09G10G04G02G05G27
 114531875.704 7  89245697.66945  21794696.148                    21794703.277
 111362332.246 8                  21191532.852
 120008470.821 7  93513237.36444  22836838.383                    22836845.656
 122044821.319 6  95099940.98944  23224368.078                    23224377.145
 110353918.073 7  85990155.91945  20999649.898                    20999657.895
 110866109.348 8  86389333.25045  21097106.797                    21097114.578
 108315530.069 8  84401847.86746  20611749.969                    20611755.293
 119658635.547 7  93240596.41145  22770278.906                    22770287.848
 123708754.769 6  96396488.26743  23541000.195                    23541010.031
 11  7 27  1 41  0.0000000  0  9G12G01G17G09G10G04G02G05G27
 114460933.336 7  89190417.90645  21781196.742                    21781203.121
 111331624.880 8                  21185689.688
 120059421.856 7  93552939.43044  22846534.188                    22846541.719
 122118314.349 7  95157208.25744  23238352.641                    23238362.215
 110325719.634 7  85968183.12845  20994283.461                    20994291.164
 110934868.283 8  86442911.63345  21110191.242                    21110199.273
 108302366.755 8  84391590.74146  20609244.883                    20609250.281
 119557994.143 7  93162174.62045  22751128.258                    22751136.449
 123770002.851 6  96444213.98843  23552655.773                    23552665.535
 11  7 27  1 41 30.0000000  0  9G12G01G17G09G10G04G02G05G27
 114390352.451 7  89135419.82745  21767764.953                    21767772.059
 111301279.175 8                  21179915.063
 120110514.053 7  93592751.52544  22856256.648                    22856263.918
 122192086.588 6  95214693.09444  23252391.117                    23252400.699
 110298118.795 8  85946676.00445  20989031.516                    20989039.391
 111003863.554 8  86496674.16746  21123320.844                    21123328.273
 108289539.749 8  84381595.67246  20606804.203                    20606809.391
 119457539.419 7  93083898.25645  22732011.781                    22732020.484
 123831412.657 6  96492065.74743  23564341.422                    23564350.227
 11  7 27  1 42  0.0000000  0  9G12G01G17G09G10G04G02G05G27
 114320135.596 7  89080705.40145  21754403.398                    21754410.668
 111271294.724 8                  21174209.188
 120161748.230 7  93632674.22844  22866006.297                    22866014.188
 122266134.716 7  95272392.86544  23266482.211                    23266491.727
 110271117.254 7  85925635.87945  20983892.969                    20983900.703
 111073093.236 8  86550619.35745  21136494.547                    21136502.383
 108277048.304 8  84371862.09246  20604427.023                    20604432.441
 119357273.887 7  93005769.35145  22712931.742                    22712940.566
 123892981.424 6  96540041.35544  23576057.680                    23576066.930
 11  7 27  1 42 30.0000000  0  9G12G01G17G09G10G04G02G05G27
 114250201.171 7  89026211.04445  21741095.375                    21741102.406
 111241587.275 8                  21168556.180
 120213040.963 7  93672642.56244  22875767.563                    22875774.770
 122340371.809 7  95330239.91844  23280608.828                    23280618.160
 110244632.798 8  85904998.66345  20978853.609                    20978860.793
 111142470.998 8  86604679.94545  21149696.664                    21149704.207
 108264807.493 8  84362323.80846  20602097.594                    20602103.246
 119257117.181 7  92927725.23345  22693872.680                    22693881.680
 123954622.596 6  96588073.38743  23587787.469                    23587796.984
 11  7 27  1 43  0.0000000  0  9G12G01G17G09G10G04G02G05G27
 114180714.247 7  88972065.38946  21727872.430                    21727879.699
 111212318.336 8                  21162986.070
 120264554.941 6  93712783.31444  22885569.906                    22885577.617
 122414956.685 7  95388357.95444  23294801.922                    23294811.430
 110218829.077 8  85884891.90645  20973943.086                    20973950.707
 111212157.113 8  86658980.81245  21162957.375                    21162965.426
 108252978.992 8  84353106.81246  20599846.945                    20599852.172
 119157234.432 7  92849894.59745  22674865.727                    22674873.848
 124016495.828 6  96636286.25443  23599561.633                    23599571.813
 11  7 27  1 43 30.0000000  0 10G25G12G01G17G09G10G04G02G05G27
 129545129.21715                  24651632.242
 114111598.597 7  88918209.05145  21714720.219                    21714727.250
 111183408.804 8                  21157484.867
 120316212.198 7  93753035.69544  22895399.531                    22895408.203
 122489807.172 7  95446682.95144  23309045.750                    23309055.258
 110193628.970 8  85865255.48645  20969147.688                    20969155.043
 111282070.783 8  86713458.98545  21176261.531                    21176269.488
 108241483.444 8  84344149.25446  20597659.398                    20597664.211
 119057550.166 7  92772218.61245  22655896.258                    22655904.582
 124078519.689 6  96684616.48644  23611364.570                    23611374.070
 11  7 27  1 44  0.0000000  0 10G25G12G01G17G09G10G04G02G05G27
 129441769.508 6                  24631963.711
 114042774.691 7  88864580.02345  21701623.477                    21701630.316
 111154776.228 8                  21152036.633
 120367931.533 7  93793336.45044  22905242.023                    22905249.098
 122564837.930 7  95505148.41144  23323323.445                    23323333.168
 110168951.653 7  85846026.44145  20964451.430                    20964459.293
 111352127.759 8  86768048.82545  21189592.742                    21189600.770
 108230237.732 8  84335386.36846  20595519.188                    20595524.574
 118957985.355 7  92694635.72645  22636949.461                    22636958.047
 124140609.397 6  96732998.01744  23623179.953                    23623189.555
 11  7 27  1 44 30.0000000  0 10G25G12G01G17G09G10G04G02G05G27
 129338597.533 5                  24612330.945
 113974404.330 7  88811304.43145  21688612.555                    21688619.598
 111126579.418 8                  21146670.711
 120419872.327 7  93833809.79344  22915125.922                    22915133.250
 122640204.666 7  95563875.67744  23337664.953                    23337675.234
 110144957.647 7  85827329.83945  20959885.844                    20959893.402
 111422484.870 8  86822872.54945  21202981.531                    21202989.039
 108219400.488 8  84326941.76946  20593456.836                    20593461.949
 118858702.162 7  92617272.27945  22618056.461                    22618064.977
 124202921.167 6  96781552.63043  23635037.094                    23635047.793
 11  7 27  1 45  0.0000000  0 10G25G12G01G17G09G10G04G02G05G27
 129235538.239 6                  24592719.313
 113906412.558 7  88758323.82945  21675674.398                    21675681.066
 111098740.022 8                  21141372.688
 120471957.653 7  93874395.74044  22925037.734                    22925044.770
 122715826.765 7  95622801.92744  23352055.445                    23352065.883
 110121571.066 8  85809106.56645  20955435.680                    20955443.027
 111493062.719 8  86877868.26845  21216412.211                    21216419.574
 108208893.129 8  84318754.23046  20591457.211                    20591462.652
 118759626.250 7  92540070.35545  22599202.766                    22599211.566
 124265375.259 6  96830218.11043  23646922.289                    23646932.234
 11  7 27  1 45 30.0000000  0 10G25G12G01G17G09G10G04G02G05G27
 129132513.865 6                  24573114.836
 113838721.587 7  88705577.64845  21662793.656                    21662800.512
 111071177.098 8                  21136128.109
 120524107.783 7  93915032.20044  22934961.719                    22934968.430
 122791620.362 7  95681861.82044  23366478.711                    23366488.438
 110098712.610 8  85791294.80645  20951085.883                    20951093.363
 111563778.656 7  86932971.59145  21229868.938                    21229876.184
 108198634.918 8  84310760.81746  20589505.844                    20589511.090
 118660680.285 7  92462969.68145  22580374.125                    22580382.383
 124327888.466 6  96878929.63844  23658817.820                    23658827.797
 11  7 27  1 46  0.0000000  0 10G25G12G01G17G09G10G04G02G05G27
 129029683.086 6                  24553546.883
 113771490.430 7  88653189.75645  21650000.219                    21650006.707
 111044046.544 8                  21130964.789
 120576479.426 7  93955841.25844  22944926.742                    22944934.953
 122867738.485 6  95741174.58144  23380963.664                    23380973.789
 110076540.097 8  85774017.53646  20946866.492                    20946873.688
 111634786.814 8  86988302.62545  21243381.055                    21243389.379
 108188781.147 8  84303082.56446  20587630.219                    20587635.625
 118562023.195 7  92386094.10745  22561600.188                    22561609.176
 124390614.389 6  96927806.94144  23670753.914                    23670764.328
 11  7 27  1 46 30.0000000  0 10G25G12G01G17G09G10G04G02G05G27
 128926972.620 6                  24534001.750
 113704645.436 7  88601102.77145  21637279.414                    21637286.438
 111017272.002 8                  21125870.172
 120628997.465 7  93996764.41645  22954920.609                    22954928.645
 122944101.865 7  95800678.45744  23395495.055                    23395505.137
 110054978.645 8  85757216.43645  20942763.602                    20942770.848
 111706009.112 8  87043800.51145  21256934.328                    21256942.414
 108179254.924 8  84295659.54146  20585817.828                    20585822.414
 118463582.368 7  92309387.05645  22542867.781                    22542876.078
 124453474.411 6  96976788.73844  23682716.648                    23682726.195
 11  7 27  1 47  0.0000000  0 10G25G12G01G17G09G10G04G02G05G27
 128824305.936 6                  24514464.031
 113638110.044 7  88549257.04146  21624618.500                    21624625.813
 110990773.937 8                  21120827.891
 120681583.407 7  94037740.46444  22964927.844                    22964935.383
 123020627.749 6  95860308.92644  23410058.602                    23410067.426
 110033950.791 8  85740831.11545  20938761.766                    20938769.328
 111777364.325 8  87099401.98045  21270512.789                    21270520.730
 108169976.252 8  84288429.42146  20584052.055                    20584057.230
 118365281.952 7  92232789.39045  22524161.742                    22524170.367
 124516386.843 6  97025811.36843  23694687.516                    23694698.121
 11  7 27  1 47 30.0000000  0 10G25G12G01G17G09G10G04G02G05G27
 128721838.357 6                  24494966.766
 113572039.664 7  88497773.66246  21612045.383                    21612052.535
 110964704.139 8                  21115866.891
 120734390.635 7  94078888.93944  22974976.969                    22974984.465
 123097465.561 7  95920182.49444  23424680.328                    23424689.086
 110013610.185 8  85724981.31345  20934891.117                    20934898.551
 111849003.183 8  87155224.47746  21284145.320                    21284153.406
 108161097.062 8  84281510.58446  20582362.289                    20582367.488
 118267277.470 7  92156422.34645  22505512.109                    22505520.551
 124579501.472 6  97074991.54643  23706697.805                    23706708.285
 11  7 27  1 48  0.0000000  0 10G25G12G01G17G09G10G04G02G05G27
 128619498.347 6                  24475491.523
 113506362.678 7  88446596.81945  21599547.273                    21599554.766
 110938988.199 8                  21110973.531
 120787345.849 7  94120152.74644  22985053.797                    22985061.574
 123174538.022 6  95980238.87343  23439346.047                    23439355.613
 109993884.424 8  85709610.61945  20931137.547                    20931145.094
 111920849.562 8  87211208.66745  21297817.367                    21297825.270
 108152542.494 8  84274844.70346  20580734.266                    20580739.438
 118169498.109 7  92080230.71345  22486904.688                    22486912.980
 124642741.686 6  97124269.58443  23718732.711                    23718742.879
 11  7 27  1 48 30.0000000  0 10G25G12G01G17G09G10G04G02G05G27
 128517289.054 7                  24456041.523
 113441082.018 7  88395728.82346  21587124.766                    21587132.016
 110913625.961 8                  21106146.734
 120840449.560 7  94161532.22744  22995159.211                    22995167.324
 123251842.447 6  96040476.02143  23454056.422                    23454066.695
 109974775.186 8  85694720.31845  20927501.250                    20927508.766
 111992901.933 8  87267353.37645  21311528.320                    21311536.180
 108144312.483 8  84268431.72446  20579168.070                    20579173.340
 118071947.203 7  92004217.07245  22468341.445                    22468349.379
 124706105.337 6  97173643.84443  23730790.039                    23730800.273
 11  7 27  1 49  0.0000000  0 10G25G12G01G17G09G10G04G02G05G27
 128415129.488 7                  24436601.031
 113376116.693 7  88345106.52946  21574762.414                    21574769.133
 110888533.348 8                  21101371.992
 120893618.907 7  94202962.86345  23005277.359                    23005285.297
 123329291.832 7  96100826.13143  23468795.008                    23468804.469
 109956199.895 8  85680246.09046  20923966.516                    20923973.730
 112065074.361 8  87323591.64245  21325261.898                    21325270.301
 108136322.571 8  84262205.83746  20577647.664                    20577652.895
 117974544.505 7  91928318.93845  22449806.273                    22449815.004
 124769506.271 6  97223047.10543  23742855.086                    23742865.121
 11  7 27  1 49 30.0000000  0 10G25G12G01G17G09G10G04G02G05G27
 128313182.989 6                  24417201.164
 113311630.092 7  88294857.26646  21562490.906                    21562498.074
 110863870.553 8                  21096678.859
 120947015.540 7  94244570.61344  23015437.531                    23015446.426
 123407043.680 7  96161411.94444  23483590.508                    23483600.309
 109938320.455 8  85666314.07346  20920564.195                    20920571.910
 112137525.737 8  87380047.26245  21339049.148                    21339056.598
 108128732.346 8  84256291.39646  20576203.281                    20576208.789
 117877453.661 7  91852663.81245  22431330.094                    22431338.711
 124833102.447 6  97272602.53143  23754957.555                    23754967.086
 11  7 27  1 50  0.0000000  0 10G25G12G01G17G09G10G04G02G05G27
 128211373.908 7                  24397827.273
 113247546.214 7  88244921.81045  21550296.188                    21550303.148
 110839558.656 8                  21092052.414
 121000561.955 7  94286295.06244  23025627.438                    23025635.496
 123485016.230 7  96222169.70944  23498428.813                    23498438.277
 109921059.767 8  85652864.20445  20917279.750                    20917287.086
 112210175.737 8  87436657.65545  21352873.969                    21352881.539
 108121462.898 8  84250626.90546  20574820.234                    20574825.180
 117780599.585 7  91777193.16545  22412899.828                    22412907.977
 124896812.839 6  97322246.98243  23767080.477                    23767090.684
 11  7 27  1 50 30.0000000  0 10G25G12G01G17G09G10G04G02G05G27
 128109624.246 6                  24378464.273
 113183787.229 7  88195239.53646  21538163.258                    21538169.832
 110815516.418 8                  21087476.844
 121054177.873 7  94328073.66044  23035830.266                    23035837.918
 123563125.768 7  96283034.23643  23513291.953                    23513301.531
 109904338.474 8  85639834.64646  20914097.125                    20914104.969
 112282941.770 8  87493358.46445  21366721.594                    21366729.082
 108114432.515 8  84245148.67946  20573482.258                    20573487.496
 117683904.668 7  91701846.55245  22394498.969                    22394507.359
 124960554.250 6  97371915.57343  23779209.703                    23779220.383
 11  7 27  1 51  0.0000000  0 10G25G12G01G17G09G10G04G02G05G27
 128008093.593 6                  24359143.773
 113120512.389 7  88145934.50046  21526122.391                    21526129.391
 110791900.045 8                  21082983.000
 121108020.613 7  94370029.00644  23046075.516                    23046084.422
 123641525.591 7  96344124.99343  23528211.023                    23528220.086
 109888314.277 8  85627348.28746  20911047.992                    20911055.684
 112355978.481 7  87550270.17645  21380619.914                    21380627.324
 108107797.582 8  84239978.61646  20572219.305                    20572224.996
 117587528.829 7  91626748.56445  22376159.516                    22376167.527
 125024480.767 6  97421728.45943  23791374.859                    23791385.250
 11  7 27  1 51 30.0000000  0 10G25G12G01G17G09G10G04G02G05G27
 127906708.287 6                  24339851.773
 113057648.356 7  88096949.58345  21514159.891                    21514166.762
 110768632.945 8                  21078555.289
 121162014.711 7  94412102.27944  23056350.594                    23056359.418
 123720136.357 7  96405380.09844  23543170.891                    23543179.820
 109872912.156 7  85615346.65945  20908117.117                    20908124.859
 112429207.771 7  87607331.96445  21394554.531                    21394562.094
 108101481.023 8  84235056.63846  20571017.453                    20571022.621
 117491398.712 7  91551842.04145  22357866.602                    22357874.816
 125088513.662 6  97471624.18643  23803560.164                    23803570.605
 11  7 27  1 52  0.0000000  0 10G25G12G01G17G09G10G04G02G05G27
 127805391.517 6                  24320570.844
 112995117.712 7  88048224.43446  21502260.414                    21502267.637
 110745634.680 8                  21074179.094
 121216081.242 7  94454231.98544  23066639.234                    23066648.047
 123798875.023 7  96466734.85744  23558153.859                    23558162.809
 109858053.706 7  85603768.66545  20905289.438                    20905296.914
 112502548.025 7  87664480.22145  21408510.453                    21408518.246
 108095402.481 8  84230320.12646  20569860.703                    20569865.855
 117395438.096 7  91477067.61745  22339605.719                    22339614.375
 125152570.628 6  97521538.70343  23815749.758                    23815759.461
 11  7 27  1 52 30.0000000  0 10G25G12G01G17G09G10G04G02G05G27
 127704300.003 6                  24301333.188
 112933076.960 7  87999881.02046  21490454.820                    21490461.660
 110723059.024 8                  21069882.992
 121270375.127 7  94496538.87544  23076971.648                    23076979.445
 123877892.294 7  96528306.72044  23573190.086                    23573200.184
 109843893.965 8  85592735.11145  20902595.531                    20902602.832
 112576151.377 8  87721833.47645  21422517.063                    21422524.953
 108089715.133 8  84225888.46046  20568778.578                    20568784.004
 117299804.147 7  91402547.73145  22321407.195                    22321415.203
 125216803.211 6  97571590.00143  23827972.711                    23827982.605
 11  7 27  1 53  0.0000000  0 10G25G12G01G17G09G10G04G02G05G27
 127603360.683 6                  24282125.391
 112871452.889 7  87951862.30046  21478728.000                    21478734.707
 110700829.242 8                  21065652.578
 121324820.914 7  94538964.12044  23087331.773                    23087340.305
 123957109.466 7  96590034.32244  23588264.688                    23588274.512
 109830358.032 8  85582187.64645  20900019.391                    20900026.984
 112649940.014 7  87779331.12345  21436558.852                    21436566.227
 108084341.975 8  84221701.58846  20567756.117                    20567761.047
 117204424.180 7  91328225.72845  22303256.742                    22303265.348
 125281132.915 6  97621716.98543  23840214.836                    23840223.914
 11  7 27  1 53 30.0000000  0 10G25G12G01G17G09G10G04G02G05G27
 127502577.388 6                  24262947.602
 112810249.222 7  87904171.14846  21467080.836                    21467088.191
 110678946.053 8                  21061488.563
 121379420.493 7  94581509.18844  23097721.664                    23097730.082
 124036524.195 7  96651915.90244  23603377.023                    23603386.840
 109817448.082 8  85572127.96346  20897562.469                    20897569.789
 112723913.199 8  87836972.57145  21450634.844                    21450642.945
 108079283.984 8  84217760.31746  20566793.445                    20566798.453
 117109302.434 7  91254104.93345  22285156.195                    22285164.008
 125345558.129 6  97671918.44043  23852474.391                    23852483.898
 11  7 27  1 54  0.0000000  0 10G25G12G01G17G09G10G04G02G05G27
 127401869.546 6                  24243782.953
 112749385.320 8  87856744.75346  21455499.297                    21455506.281
 110657325.679 8                  21057374.328
 121434090.944 7  94624109.47744  23108125.938                    23108133.629
 124116050.006 6  96713884.02944  23618510.422                    23618519.906
 109805081.723 8  85562491.85246  20895209.359                    20895216.840
 112797985.475 8  87894691.22245  21464730.711                    21464738.789
 108074456.482 8  84213998.64746  20565874.680                    20565879.914
 117014358.474 7  91180122.70045  22267089.234                    22267096.730
 125409993.019 6  97722127.40543  23864735.828                    23864746.027
 11  7 27  1 54 30.0000000  0 10G25G12G01G17G09G10G04G02G05G27
 127301400.067 6                  24224664.469
 112689023.574 8  87809709.64446  21444012.375                    21444019.723
 110636127.298 8                  21053340.211
 121488993.376 7  94666890.56544  23118573.102                    23118581.254
 124195843.618 7  96776060.84044  23633694.383                    23633704.930
 109793420.084 8  85553404.88145  20892990.125                    20892997.680
 112872315.403 7  87952610.66045  21478874.867                    21478882.969
 108070018.968 8  84210540.85046  20565030.289                    20565035.375
 116919755.808 7  91106406.40045  22249086.352                    22249093.996
 125474595.337 6  97772466.80043  23877029.031                    23877039.184
 11  7 27  1 55  0.0000000  0 10G25G12G01G17G09G10G04G02G05G27
 127201094.072 7                  24205577.297
 112629088.935 8  87763007.34446  21432607.477                    21432614.566
 110615272.991 8                  21049371.852
 121544050.845 7  94709792.44644  23129050.461                    23129058.762
 124275824.047 6  96838383.23244  23648913.680                    23648924.473
 109782386.515 8  85544807.31445  20890890.477                    20890897.703
 112946823.151 8  88010668.64945  21493053.445                    21493061.305
 108065892.888 8  84207325.74246  20564245.422                    20564250.449
 116825419.900 7  91032897.94745  22231135.219                    22231142.359
 125539284.654 6  97822874.00243  23889338.594                    23889349.262
 11  7 27  1 55 30.0000000  0 10G25G12G01G17G09G10G04G02G05G27
 127100872.451 7                  24186505.688
 112569502.175 8  87716576.11146  21421268.305                    21421275.805
 110594680.014 8                  21045453.156
 121599181.906 7  94752751.69344  23139540.922                    23139548.691
 124355906.526 6  96900785.12144  23664153.227                    23664163.477
 109771899.878 8  85536635.92345  20888894.672                    20888902.336
 113021425.146 8  88068800.07045  21507249.531                    21507257.371
 108061995.884 8  84204289.12646  20563503.516                    20563508.762
 116731271.974 7  90959535.97845  22213218.898                    22213226.602
 125603976.656 6  97873283.26743  23901649.563                    23901660.078
 11  7 27  1 56  0.0000000  0 10G25G12G01G17G09G10G04G02G05G27
 127000895.435 7                  24167480.320
 112510423.241 8  87670540.58246  21410025.938                    21410033.254
 110574505.442 8                  21041614.016
 121654544.986 7  94795891.74544  23150076.602                    23150084.789
 124436244.930 6  96963386.44244  23679440.734                    23679451.355
 109762118.546 8  85529014.12045  20887033.500                    20887041.070
 113096276.914 8  88127126.12645  21521493.484                    21521500.797
 108058484.237 8  84201552.79446  20562835.391                    20562840.531
 116637472.368 7  90886445.43845  22195369.328                    22195377.316
 125668826.260 6  97923815.35343  23913989.500                    23914000.984
 11  7 27  1 56 30.0000000  0 10G25G12G01G17G09G10G04G02G05G27
 126901089.672 7                  24148488.055
 112451778.417 7  87624843.32546  21398866.141                    21398873.422
 110554672.568 8                  21037840.219
 121710064.447 7  94839153.65344  23160641.352                    23160649.176
 124516760.188 6  97026125.56043  23694762.813                    23694772.813
 109752967.228 8  85521883.25445  20885292.164                    20885299.695
 113171300.261 8  88185585.88245  21535769.828                    21535777.715
 108055281.094 8  84199056.85146  20562225.891                    20562231.172
 116543948.213 7  90813569.53245  22177572.523                    22177580.480
 125733754.520 6  97974408.70443  23926346.336                    23926356.199
 11  7 27  1 57  0.0000000  0 10G25G12G01G17G09G10G04G02G05G27
 126801377.915 7                  24129513.547
 112393490.342 8  87579424.05246  21387774.211                    21387781.508
 110535100.762 8                  21034115.727
 121765660.787 7  94882475.47844  23171221.977                    23171228.637
 124597368.870 6  97088937.49444  23710102.172                    23710111.711
 109744367.111 8  85515181.88345  20883655.031                    20883663.445
 113246413.544 8  88244115.70645  21550063.586                    21550071.348
 108052305.618 8  84196738.31346  20561659.625                    20561664.750
 116450622.725 7  90740848.40345  22159813.273                    22159821.680
 125798679.037 6  98024999.15943  23938700.984                    23938710.797
 11  7 27  1 57 30.0000000  0 10G25G12G01G17G09G10G04G02G05G27
 126701916.897 6                  24110587.242
 112335715.104 8  87534404.38646  21376780.125                    21376786.996
 110515943.089 8                  21030469.953
 121821488.735 6  94925977.77844  23181845.453                    23181852.273
 124678221.627 6  97151939.63143  23725487.258                    23725497.957
 109736472.623 8  85509030.34845  20882153.164                    20882160.887
 113321768.764 7  88302834.06345  21564403.102                    21564410.609
 108049710.873 8  84194716.44546  20561166.008                    20561170.863
 116357652.839 7  90668404.37645  22142121.742                    22142129.184
 125863751.146 6  98075704.61843  23951084.031                    23951094.238
 11  7 27  1 58  0.0000000  0 10G25G12G01G17G09G10G04G02G05G27
 126602635.084 7                  24091694.242
 112278381.020 8  87489728.47246  21365869.938                    21365876.957
 110497124.565 8                  21026889.375
 121877474.653 6  94969603.17444  23192498.469                    23192506.332
 124759241.021 6  97215071.59544  23740905.891                    23740915.316
 109729210.174 7  85503371.31645  20880771.523                    20880778.520
 113397289.707 8  88361681.54045  21578774.367                    21578782.191
 108047421.773 8  84192932.74246  20560730.180                    20560735.742
 116264967.462 7  90596182.06145  22124483.938                    22124491.813
 125928893.817 6  98126465.04043  23963479.805                    23963490.520
 11  7 27  1 58 30.0000000  0 10G25G12G01G17G09G10G04G02G05G27
 126503534.498 7                  24072835.977
 112221489.883 8  87445397.69646  21355044.273                    21355051.129
 110478643.792 8                  21023371.930
 121933618.617 6  95013351.75244  23203182.445                    23203190.219
 124840423.252 6  97278330.47644  23756354.680                    23756364.043
 109722579.725 7  85498204.74245  20879509.297                    20879517.324
 113472973.759 7  88420656.12645  21593176.172                    21593184.168
 108045436.943 8  84191386.13546  20560352.992                    20560357.797
 116172568.847 7  90524183.19545  22106900.961                    22106908.953
 125994103.875 6  98177278.00543  23975889.508                    23975899.441
 11  7 27  1 59  0.0000000  0 10G25G12G01G17G09G10G04G02G05G27
 126404534.413 6                  24053995.781
 112164960.302 8  87401348.67146  21344286.688                    21344293.523
 110460416.801 8                  21019903.586
 121989837.364 6  95057158.60544  23213880.594                    23213888.684
 124921681.149 7  97341648.30544  23771817.039                    23771826.852
 109716498.472 7  85493466.12245  20878352.375                    20878359.832
 113548735.596 8  88479691.31445  21607593.242                    21607601.418
 108043671.588 8  84190010.55346  20560016.727                    20560021.758
 116080376.477 7  90452345.04545  22089357.578                    22089365.336
 126059295.068 6  98228076.25644  23988295.258                    23988305.473
 11  7 27  1 59 30.0000000  0 10G25G12G01G17G09G10G04G02G05G27
 126305799.579 6                  24035207.609
 112108957.033 8  87357709.74346  21333629.906                    21333636.711
 110442604.832 8                  21016514.180
 122046293.711 6  95101150.59844  23224623.742                    23224631.816
 125003173.648 6  97405148.92843  23787324.742                    23787334.000
 109711129.132 7  85489282.23545  20877330.469                    20877337.691
 113624735.231 7  88538911.80545  21622055.773                    21622064.117
 108042286.888 8  84188931.58746  20559752.977                    20559757.910
 115988555.395 7  90380796.21345  22071884.563                    22071892.547
 126124626.893 7  98278984.12844  24000726.555                    24000738.180
 11  7 27  2  0  0.0000000  0 10G25G12G01G17G09G10G04G02G05G27
 126207254.075 6                  24016455.750
 112053403.476 7  87314421.25946  21323058.016                    21323065.004
 110425128.441 8                  21013188.656
 122102909.551 6  95145266.85244  23235397.680                    23235405.035
 125084819.004 7  97468768.67444  23802861.461                    23802871.004
 109706393.537 8  85485592.17445  20876429.313                    20876437.066
 113700892.382 7  88598255.03445  21636547.703                    21636555.805
 108041203.515 8  84188087.42146  20559547.203                    20559552.281
 115897029.994 7  90309477.76745  22054467.688                    22054475.445
 126190018.030 7  98329938.18643  24013171.047                    24013181.223
 11  7 27  2  0 30.0000000  0 10G25G12G01G17G09G10G04G02G05G27
 126108818.701 6                  23997723.305
 111998220.100 8  87271421.21746  21312556.969                    21312564.316
 110407904.816 8                  21009910.719
 122159603.231 6  95189443.75444  23246185.711                    23246193.871
 125166531.757 7  97532440.94344  23818410.719                    23818420.910
 109702210.196 7  85482332.44945  20875633.336                    20875640.645
 113777122.896 7  88657655.42245  21651054.461                    21651061.902
 108040338.433 8  84187413.35546  20559382.180                    20559387.750
 115805721.224 7  90238328.13845  22037092.164                    22037099.734
 126255383.984 7  98380872.66743  24025609.078                    24025618.926
 11  7 27  2  1  0.0000000  0 10G25G12G01G17G09G10G04G02G05G27
 126010654.573 6                  23979043.203
 111943567.750 8  87228834.96746  21302156.984                    21302163.867
 110391091.681 8                  21006711.586
 122216533.822 6  95233805.27544  23257019.594                    23257027.234
 125248467.087 7  97596286.61343  23834002.492                    23834012.488
 109698737.964 8  85479626.82845  20874972.250                    20874979.824
 113853583.419 7  88717235.05645  21665604.359                    21665612.156
 108039849.116 8  84187032.08746  20559289.258                    20559294.680
 115714790.626 7  90167473.17545  22019788.703                    22019796.730
 126320880.321 6  98431908.70743  24038072.656                    24038083.754
 11  7 27  2  1 30.0000000  0 10G25G12G01G17G09G10G04G02G05G27
 125912687.618 6                  23960400.422
 111889372.028 8  87186604.52446  21291844.086                    21291850.824
 110374611.182 8                  21003575.133
 122273625.436 6  95278292.26444  23267884.031                    23267891.820
 125330544.671 7  97660243.15243  23849621.211                    23849630.965
 109695900.898 7  85477416.15146  20874432.141                    20874439.938
 113930195.242 7  88776932.57945  21680183.023                    21680190.469
 108039657.719 8  84186882.97246  20559252.813                    20559257.563
 115624164.286 7  90096855.31945  22002542.578                    22002550.957
 126386427.786 6  98482984.62343  24050546.398                    24050556.102
 11  7 27  2  2  0.0000000  0 10G25G12G01G17G09G10G04G02G05G27
 125814840.601 7                  23941780.570
 111835554.962 8  87144669.14646  21281603.070                    21281610.133
 110358382.763 8                  21000487.156
 122330798.494 6  95322842.69344  23278763.211                    23278770.996
 125412681.236 7  97724245.61343  23865251.398                    23865260.535
 109693619.098 7  85475638.13146  20873998.484                    20874006.277
 114006876.710 7  88836684.37245  21694775.047                    21694782.848
 108039683.284 8  84186902.90746  20559257.836                    20559262.996
 115533765.420 7  90026414.70645  21985340.297                    21985348.805
 126451943.725 6  98534035.96643  24063014.023                    24063023.582
 11  7 27  2  2 30.0000000  0 10G25G12G01G17G09G10G04G02G05G27
 125717270.973 7                  23923214.156
 111782273.579 8  87103151.17446  21271463.688                    21271470.871
 110342560.278 8                  20997476.125
 122388207.677 6  95367577.13044  23289687.555                    23289695.367
 125495028.463 6  97788412.26543  23880921.633                    23880930.516
 109692047.845 8  85474413.78846  20873699.602                    20873706.773
 114083780.425 7  88896609.33245  21709409.234                    21709416.926
 108040079.657 8  84187211.78246  20559332.719                    20559338.258
 115443751.367 7  89956273.94945  21968211.469                    21968219.172
 126517579.956 6  98585181.02743  24075504.313                    24075513.746
 11  7 27  2  3  0.0000000  0 10G25G12G01G17G09G10G04G02G05G27
 125619906.406 7                  23904686.594
 111729455.527 8  87061994.25446  21261413.016                    21261419.613
 110327067.855 8                  20994527.891
 122445778.919 6  95412437.83944  23300643.539                    23300651.645
 125577508.187 6  97852682.11843  23896617.242                    23896626.340
 109691112.439 7  85473684.92445  20873521.352                    20873528.813
 114160829.538 7  88956647.59445  21724070.875                    21724079.113
 108040770.681 8  84187750.25446  20559464.469                    20559469.688
 115354050.016 7  89886376.84945  21951141.719                    21951149.547
 126583258.841 6  98636359.33642  24088001.953                    24088011.980
 11  7 27  2  3 30.0000000  0 10G25G12G01G17G09G10G04G02G05G27
 125522749.373 7                  23886197.555
 111677102.038 8  87021199.31846  21251450.422                    21251457.234
 110311904.716 8                  20991642.094
 122503512.657 6  95457425.15644  23311629.195                    23311637.547
 125660116.503 6  97917052.20843  23912336.602                    23912346.039
 109690813.013 7  85473451.63045  20873464.367                    20873471.168
 114238021.966 7  89016797.54445  21738760.180                    21738767.805
 108041755.353 8  84188517.54546  20559651.586                    20559656.695
 115264664.452 7  89816725.82545  21934132.391                    21934140.137
 126648977.681 6  98687568.82742  24100507.938                    24100518.020
 11  7 27  2  4  0.0000000  0 10G25G12G01G17G09G10G04G02G05G27
 125425719.269 7                  23867733.992
 111625132.273 8  86980703.40446  21241560.758                    21241568.160
 110296986.442 8                  20988803.523
 122561325.760 6  95502474.34744  23322630.969                    23322638.699
 125742766.926 6  97981455.07443  23928064.641                    23928074.633
 109691066.243 8  85473648.96945  20873512.539                    20873520.020
 114315272.498 7  89076992.76645  21753460.320                    21753468.633
 108042949.221 8  84189447.84046  20559878.859                    20559884.441
 115175513.987 7  89747257.98445  21917167.328                    21917174.848
 126714650.565 5  98738742.38243  24113005.273                    24113016.090
 11  7 27  2  4 30.0000000  0 10G25G12G01G17G09G10G04G02G05G27
 125328980.468 7                  23849325.109
 111573710.360 8  86940634.39746  21231775.461                    21231782.457
 110282473.677 8                  20986041.859
 122619380.512 6  95547711.81144  23333678.781                    23333686.074
 125825617.923 6  98046014.24243  23943831.750                    23943840.621
 109692034.116 8  85474403.19145  20873696.711                    20873704.316
 114392740.955 7  89137357.79745  21768202.656                    21768210.258
 108044512.779 8  84190666.21146  20560176.797                    20560181.855
 115086763.131 7  89678101.54145  21900278.578                    21900285.805
 126780436.422 5  98790004.01142  24125523.305                    24125534.363
 11  7 27  2  5  0.0000000  0 10G25G12G01G17G09G10G04G02G05G27
 125232457.269 7                  23830956.781
 111522760.027 8  86900932.86346  21222080.102                    21222087.223
 110268287.289 8                  20983342.305
 122677599.073 6  95593076.89544  23344757.477                    23344765.293
 125908587.710 6  98110665.95243  23959619.367                    23959628.762
 109693638.741 7  85475653.55845  20874002.102                    20874009.320
 114470347.056 7  89197830.08645  21782970.594                    21782978.309
 108046366.600 8  84192110.76946  20560529.453                    20560534.375
 114998336.298 7  89609197.57045  21883451.414                    21883458.828
 126846254.116 5  98841290.42042  24138047.633                    24138059.027
 11  7 27  2  5 30.0000000  0 10G25G12G01G17G09G10G04G02G05G27
 125136070.774 7                  23812615.430
 111472201.568 8  86861536.66946  21212459.219                    21212465.957
 110254344.580 8                  20980689.289
 122735900.030 7  95638506.18944  23355851.766                    23355859.645
 125991591.041 6  98175343.77643  23975414.211                    23975424.578
 109695798.301 8  85477336.34945  20874412.852                    20874420.293
 114548007.198 7  89258344.48845  21797748.750                    21797756.051
 108048428.335 8  84193717.33946  20560921.609                    20560926.723
 114910154.999 7  89540484.92945  21866671.188                    21866678.766
 126912019.294 5  98892535.94743  24150562.375                    24150573.531
 11  7 27  2  6  0.0000000  0 10G25G12G01G17G09G10G04G02G05G27
 125039981.849 7                  23794329.648
 111422195.314 8  86822570.78446  21202943.078                    21202950.340
 110240802.875 8                  20978112.063
 122794442.004 7  95684123.34844  23366991.445                    23367000.074
 126074783.208 6  98240168.80443  23991245.445                    23991255.098
 109698671.388 7  85479575.14145  20874959.711                    20874966.898
 114625877.970 7  89319023.00945  21812566.719                    21812574.434
 108050855.082 8  84195608.32746  20561383.531                    20561388.414
 114822380.347 7  89472089.16445  21849967.938                    21849975.809
 126977887.694 6  98943861.89743  24163097.773                    24163108.402
 11  7 27  2  6 30.0000000  0 10G25G12G01G17G09G10G04G02G05G27
 124944116.451 7                  23776087.336
 111372666.795 8  86783977.14546  21193518.227                    21193525.277
 110227584.500 8                  20975596.820
 122853148.860 7  95729868.92744  23378163.625                    23378171.305
 126158083.863 6  98305078.35043  24007096.766                    24007106.473
 109702181.123 7  85482310.02246  20875627.453                    20875635.152
 114703880.496 7  89379804.19945  21827410.320                    21827417.957
 108053568.821 8  84197722.94746  20561899.711                    20561904.977
 114734938.274 7  89403952.53745  21833328.000                    21833335.652
 127043779.659 6  98995206.20443  24175636.320                    24175647.426
 11  7 27  2  7  0.0000000  0 10G25G12G01G17G09G10G04G02G05G27
 124848397.444 7                  23757872.852
 111323538.193 8  86745695.15046  21184169.406                    21184176.629
 110214608.959 8                  20973127.508
 122911941.120 6  95775681.08744  23389350.945                    23389358.926
 126241409.890 6  98370007.61543  24022953.805                    24022963.172
 109706247.834 7  85485478.90046  20876401.664                    20876408.809
 114781933.342 7  89440624.60345  21842263.289                    21842270.898
 108056488.524 8  84199998.04446  20562454.781                    20562460.117
 114647751.589 7  89336014.92145  21816737.023                    21816744.660
 127109612.762 6  99046504.64943  24188163.930                    24188174.855
 11  7 27  2  7 30.0000000  0 10G25G12G01G17G09G10G04G02G05G27
 124752982.063 7                  23739715.727
 111274966.177 8  86707846.86046  21174926.383                    21174932.949
 110202029.428 8                  20970733.977
 122970974.046 6  95821680.77644  23400584.828                    23400592.551
 126324912.442 6  98435074.51443  24038843.609                    24038853.801
 109711026.146 8  85489202.28745  20877310.375                    20877317.992
 114860188.868 7  89501602.93345  21857154.773                    21857162.164
 108059767.950 8  84202553.45946  20563079.398                    20563084.637
 114560977.928 7  89268399.15045  21800224.234                    21800232.137
 127175538.616 6  99097875.34743  24200709.711                    24200719.844
 11  7 27  2  8  0.0000000  0 10G25G12G01G17G09G10G04G02G05G27
 124657798.164 7                  23721602.758
 111226877.726 8  86670375.36446  21165775.273                    21165782.230
 110189770.318 8                  20968401.109
 123030173.130 6  95867809.92844  23411849.688                    23411857.328
 126408513.776 6  98500218.31643  24054752.508                    24054762.781
 109716441.064 7  85493421.70845  20878341.242                    20878348.668
 114938570.461 7  89562679.50745  21872070.523                    21872078.406
 108063331.235 8  84205330.05646  20563757.367                    20563762.680
 114474545.519 7  89201049.30045  21783776.906                    21783784.637
 127241479.890 6  99149258.05943  24213258.102                    24213268.551
 11  7 27  2  8 30.0000000  0 10G25G12G01G17G09G10G04G02G05G27
 124562848.961 7                  23703534.836
 111179275.726 8  86633282.93346  21156717.461                    21156724.035
 110177831.360 8                  20966129.180
 123089539.050 6  95914069.06244  23423146.555                    23423154.957
 126492210.654 6  98565436.61043  24070679.656                    24070689.809
 109722493.414 7  85498137.84345  20879492.758                    20879500.098
 115017076.998 7  89623853.43345  21887009.625                    21887017.996
 108067177.630 7  84208327.27246  20564489.438                    20564494.668
 114388457.052 7  89133967.44845  21767395.008                    21767402.816
 127307434.486 6  99200651.15443  24225808.266                    24225819.445
 11  7 27  2  9  0.0000000  0 10G25G12G01G17G09G10G04G02G05G27
 124468052.688 7                  23685495.391
 111132078.118 8  86596505.60746  21147735.461                    21147742.441
 110166126.890 8                  20963901.773
 123148987.951 6  95960392.89243  23434459.453                    23434467.051
 126575915.500 6  98630661.07043  24086608.375                    24086617.629
 109729098.516 8  85503284.70345  20880749.539                    20880756.930
 115095622.083 7  89685057.39945  21901955.891                    21901964.020
 108071221.811 8  84211478.60046  20565259.352                    20565263.996
 114302631.198 7  89067090.22346  21751062.570                    21751070.414
 127373315.353 6  99251986.74944  24238345.906                    24238356.105
 11  7 27  2  9 30.0000000  0 10G25G12G01G17G09G10G04G02G05G27
 124373574.737 7                  23667517.227
 111085448.524 8  86560170.90346  21138862.633                    21138869.371
 110154818.887 8                  20961749.617
 123208682.780 6  96006908.35043  23445818.688                    23445826.445
 126659787.863 6  98696016.08443  24102568.398                    24102578.484
 109736419.128 8  85508989.08745  20882143.289                    20882149.996
 115174366.742 7  89746416.86945  21916941.305                    21916948.949
 108075625.279 8  84214909.90546  20566097.086                    20566102.102
 114217233.408 7  89000546.54346  21734812.031                    21734819.676
 127439282.268 6  99303389.47043  24250898.078                    24250908.969
 11  7 27  2 10  0.0000000  0 10G25G12G01G17G09G10G04G02G05G27
 124279338.960 7                  23649585.125
 111039310.695 8  86524219.37546  21130082.398                    21130089.258
 110143827.154 8                  20959657.883
 123268545.245 6  96053554.40343  23457210.125                    23457218.129
 126743745.331 6  98761437.41143  24118545.047                    24118555.355
 109744375.983 7  85515189.25645  20883656.711                    20883664.281
 115253230.019 7  89807868.76845  21931948.453                    21931956.059
 108080307.952 8  84218558.75946  20566988.016                    20566992.906
 114132187.488 7  88934277.05246  21718628.094                    21718636.301
 127505253.970 6  99354795.89643  24263452.813                    24263463.109
 11  7 27  2 10 30.0000000  0 10G25G12G01G17G09G10G04G02G05G27
 124185265.942 7                  23631682.680
 110993584.370 8  86488588.49946  21121381.063                    21121387.668
 110133068.901 8                  20957611.023
 123328493.431 6  96100267.30343  23468618.734                    23468625.902
 126827702.718 6  98826858.71543  24134521.398                    24134531.586
 109752886.826 7  85521821.10345  20885276.414                    20885283.559
 115332128.230 7  89869347.90245  21946961.273                    21946969.352
 108085186.530 8  84222360.27446  20567916.586                    20567921.137
 114047414.389 7  88868220.13546  21702496.125                    21702504.246
 127571145.445 6  99406139.82043  24275991.430                    24276002.242
 11  7 27  2 11  0.0000000  0 10G25G12G01G17G09G10G04G02G05G27
 124091517.503 7                  23613843.234
 110948430.894 8  86453403.99946  21112788.727                    21112795.133
 110122702.315 8                  20955638.344
 123388686.947 6  96147171.34243  23480073.234                    23480080.605
 126911815.621 6  98892401.18343  24150528.109                    24150538.676
 109762110.845 7  85529008.65945  20887031.563                    20887039.164
 115411218.680 7  89930976.81345  21962012.391                    21962019.980
 108090419.366 8  84226437.81746  20568912.148                    20568917.652
 113963075.937 7  88802501.91246  21686447.406                    21686455.293
 127637113.155 6  99457543.19543  24288545.250                    24288555.234
 11  7 27  2 11 30.0000000  0 10G25G12G01G17G09G10G04G02G05G27
 123998019.721 6                  23596050.875
 110903775.451 8  86418607.58946  21104290.875                    21104297.605
 110112649.485 8                  20953725.344
 123449049.445 6  96194207.06743  23491559.336                    23491566.879
 126996004.264 6  98958002.68043  24166548.555                    24166558.816
 109771971.007 7  85536691.91945  20888908.055                    20888915.746
 115490422.888 7  89992694.37345  21977084.820                    21977091.855
 108095928.773 8  84230730.87846  20569960.500                    20569965.477
 113879098.290 7  88737064.84146  21670466.977                    21670474.738
 127703077.820 6  99508944.14443  24301096.297                    24301108.156
 11  7 27  2 12  0.0000000  0 10G25G12G01G17G09G10G04G02G05G27
 123904693.891 7                  23578291.992
 110859538.416 8  86384137.20146  21095872.789                    21095879.414
 110102828.074 8                  20951856.313
 123509500.060 6  96241311.46344  23503062.734                    23503069.652
 127080184.198 6  99023597.39643  24182567.352                    24182577.266
 109782385.645 7  85544807.23745  20890890.188                    20890897.172
 115569657.664 7  90054435.76845  21992162.586                    21992170.102
 108101631.919 8  84235174.90046  20571045.961                    20571050.891
 113795402.561 8  88671847.43546  21654539.859                    21654547.586
 127768955.621 6  99560277.33642  24313634.602                    24313644.461
 11  7 27  2 12 30.0000000  0 10G25G12G01G17G09G10G04G02G05G27
 123811699.611 7                  23560595.656
 110815879.069 8  86350116.96846  21087564.695                    21087571.590
 110093393.776 8                  20950061.031
 123570196.212 6  96288607.16944  23514613.156                    23514620.309
 127164508.811 6  99089304.79943  24198614.477                    24198624.113
 109793511.690 8  85553476.90045  20893006.875                    20893014.359
 115649078.167 7  90116321.86845  22007275.273                    22007283.434
 108107684.965 8  84239891.56346  20572197.695                    20572202.703
 113712148.481 8  88606974.17846  21638697.625                    21638704.797
 127834900.732 5  99611663.02842  24326182.297                    24326193.777
 11  7 27  2 13  0.0000000  0 10G25G12G01G17G09G10G04G02G05G27
 123718963.388 7                  23542948.828
 110772722.692 8  86316488.66646  21079352.227                    21079358.801
 110084269.651 8                  20948324.586
 123631061.821 7  96336034.88644  23526195.000                    23526202.949
 127248898.521 6  99155062.98843  24214672.984                    24214683.109
 109805272.329 8  85562641.05645  20895244.875                    20895252.262
 115728606.524 7  90178292.02845  22022409.438                    22022417.203
 108114010.304 8  84244820.42246  20573401.148                    20573406.375
 113629262.602 7  88542387.83346  21622924.586                    21622931.863
 127900834.192 6  99663039.77842  24338729.391                    24338740.293
 11  7 27  2 13 30.0000000  0 10G25G12G01G17G09G10G04G02G05G27
 123626409.042 7                  23525336.461
 110729992.659 8  86283192.56746  21071221.195                    21071227.824
 110075375.625 8                  20946632.195
 123692018.317 6  96383533.46244  23537795.031                    23537802.840
 127333271.326 6  99220808.01143  24230727.430                    24230738.457
 109817588.345 8  85572237.96345  20897588.328                    20897595.930
 115808161.809 7  90240283.16144  22037548.250                    22037556.359
 108120528.057 8  84249899.21446  20574641.820                    20574646.852
 113546668.608 7  88478028.92345  21607207.641                    21607215.023
 127966674.453 5  99714343.81242  24351258.797                    24351269.191
 11  7 27  2 14  0.0000000  0 10G25G12G01G17G09G10G04G02G05G27
 123534192.149 7                  23507787.836
 110687842.994 7  86250348.72346  21063200.078                    21063206.746
 110066863.794 8                  20945012.383
 123753219.271 6  96431222.50544  23549441.258                    23549448.750
 127417776.905 6  99286656.47343  24246809.727                    24246819.371
 109830612.310 8  85582386.51445  20900067.258                    20900074.492
 115887895.624 7  90302413.40945  22052720.781                    22052728.883
 108127389.908 8  84255246.13346  20575946.891                    20575952.402
 113464522.084 7  88414018.69645  21591575.695                    21591582.926
 128032571.835 6  99765692.37842  24363797.602                    24363808.852
 11  7 27  2 14 30.0000000  0 10G25G12G01G17G09G10G04G02G05G27
 123442241.470 7                  23490290.930
 110646202.167 8  86217901.36146  21055276.164                    21055282.766
 110058658.785 8                  20943451.320
 123814590.850 7  96479044.51444  23561120.141                    23561127.469
 127502337.951 6  99352548.14043  24262900.109                    24262910.504
 109844270.209 8  85593029.05345  20902666.266                    20902673.313
 115967731.880 7  90364623.49344  22067913.070                    22067920.938
 108134520.888 8  84260802.76446  20577304.023                    20577309.664
 113382752.031 7  88350301.82046  21576015.297                    21576022.598
 128098449.767 6  99817025.77742  24376334.141                    24376344.766
 11  7 27  2 15  0.0000000  0 10G25G12G01G17G09G10G04G02G05G27
 123350560.174 7                  23472843.828
 110605072.511 7  86185852.31946  21047449.281                    21047455.977
 110050760.100 8                  20941947.680
 123876133.839 7  96527000.08744  23572831.102                    23572838.863
 127586951.799 6  99418480.98043  24279002.164                    24279012.320
 109858561.668 8  85604165.27245  20905385.367                    20905392.645
 116047669.538 7  90426912.57245  22083124.852                    22083132.402
 108141920.272 8  84266568.54246  20578712.148                    20578717.285
 113301361.509 7  88286880.69646  21560526.617                    21560534.453
 128164306.099 6  99868342.33043  24388866.797                    24388876.949
 11  7 27  2 15 30.0000000  0 10G25G12G01G17G09G10G04G02G05G27
 123259067.555 7                  23455433.008
 110564372.159 7  86154137.80546  21039704.172                    21039711.020
 110043083.564 8                  20940486.969
 123937765.384 7  96575024.65944  23584559.297                    23584567.160
 127671531.678 5  99484387.28342  24295097.242                    24295107.289
 109873403.050 8  85615730.00745  20908209.359                    20908216.941
 116127623.310 7  90489214.20745  22098339.500                    22098347.230
 108149503.700 8  84272477.73446  20580155.234                    20580160.621
 113220269.461 8  88223692.14146  21545095.570                    21545102.723
 128230054.828 6  99919575.06043  24401378.984                    24401388.785
 11  7 27  2 16  0.0000000  0 10G25G12G01G17G09G10G04G02G05G27
 123167926.908 7                  23438089.617
 110524263.691 8  86122884.50546  21032071.898                    21032078.621
 110035788.730 8                  20939098.766
 123999646.301 6  96623243.51944  23596334.648                    23596342.789
 127756234.91516  99550389.85152  24311215.695                    24311225.727
 109888954.481 8  85627848.03145  20911169.102                    20911176.445
 116207752.345 7  90551652.43844  22113587.289                    22113595.246
 108157430.637 8  84278654.59546  20581663.625                    20581668.785
 113139639.542 8  88160863.68246  21529752.438                    21529759.820
 128295853.639 6  99970846.85142  24413899.453                    24413909.863
 11  7 27  2 16 30.0000000  0 10G25G12G01G17G09G10G04G02G05G27
 123077063.150 7                  23420799.148
 110484670.955 7  86092033.06946  21024537.813                    21024543.973
 110028796.257 8                  20937768.414
 124061698.949 6  96671596.26044  23608142.836                    23608150.734
 127840980.530 6  99616425.23142  24327342.594                    24327352.160
 109905137.618 7  85640458.28646  20914249.078                    20914256.035
 116287976.848 7  90614165.03945  22128853.641                    22128861.191
 108165621.812 8  84285037.35446  20583222.547                    20583227.559
 113059396.508 8  88098336.69046  21514482.281                    21514489.922
 128361622.448 6 100022095.19443  24426414.391                    24426425.457
 11  7 27  2 17  0.0000000  0 10G25G12G01G17G09G10G04G02G05G27
 122986398.604 7                  23403545.961
 110445515.405 7  86061522.28946  21017086.180                    21017093.137
 110022025.149 8                  20936479.734
 124123843.382 6  96720020.49044  23619968.297                    23619976.637
 127925685.151 6  99682428.82843  24343461.953                    24343471.367
 109921871.565 8  85653497.74845  20917433.000                    20917440.324
 116368215.073 7  90676688.33844  22144122.633                    22144130.457
 108173996.258 8  84291562.92046  20584816.297                    20584821.348
 112979462.612 7  88036050.58146  21499271.258                    21499279.199
 128427278.118 6 100073255.40543  24438908.484                    24438920.047
 11  7 27  2 17 30.0000000  0 10G25G12G01G17G09G10G04G02G05G27
 122896092.183 7                  23386361.148
 110406955.077 7  86031475.32846  21009749.031                    21009755.371
 110015630.297 8                  20935262.734
 124186236.403 6  96768638.42044  23631841.070                    23631849.617
 128010501.465 6  99748519.36443  24359601.398                    24359611.449
 109939311.991 8  85667087.70745  20920751.516                    20920759.141
 116448621.336 7  90739342.58045  22159423.234                    22159431.535
 108182708.892 8  84298352.00946  20586474.148                    20586479.063
 112899996.834 8  87974129.25146  21484149.617                    21484157.031
 128492974.109 6 100124446.98443  24451410.758                    24451421.383
 11  7 27  2 18  0.0000000  0 10G25G12G01G17G09G10G04G02G05G27
 122806070.660 7                  23369230.227
 110368915.778 8  86001834.35446  21002510.023                    21002516.578
 110009535.035 8                  20934102.844
 124248802.252 6  96817391.01444  23643746.898                    23643755.328
 128095350.575 6  99814635.50943  24375746.625                    24375757.473
 109957382.358 8  85681168.53745  20924190.539                    20924197.672
 116529118.204 7  90802067.41044  22174741.367                    22174749.301
 108191682.730 8  84305344.63446  20588181.242                    20588186.688
 112820925.776 8  87912515.48846  21469102.625                    21469110.414
 128558632.093 6 100175608.94043  24463905.063                    24463916.074
 11  7 27  2 18 30.0000000  0 10G25G12G01G17G09G10G04G02G05G27
 122716258.019 7                  23352139.930
 110331320.363 8  85972539.26546  20995356.180                    20995363.008
 110003659.237 8                  20932984.703
 124311462.426 6  96866217.12143  23655670.719                    23655678.813
 128180150.437 6  99880713.25743  24391884.922                    24391894.859
 109976003.286 8  85695678.38045  20927733.734                    20927741.160
 116609625.122 7  90864800.07044  22190061.172                    22190069.199
 108200837.724 8  84312478.42246  20589923.383                    20589928.445
 112742173.265 8  87851149.93846  21454116.844                    21454124.098
 128624170.889 6 100226678.07643  24476376.258                    24476387.227
 11  7 27  2 19  0.0000000  0 10G25G12G01G17G09G10G04G02G05G27
 122626809.519 7                  23335118.242
 110294323.164 8  85943710.32246  20988315.516                    20988322.348
 109998154.495 8                  20931937.195
 124374369.924 6  96915235.94344  23667641.680                    23667649.980
 128265050.441 6  99946869.02643  24408041.453                    24408051.051
 109995326.642 7  85710735.56345  20931410.859                    20931418.148
 116690293.208 7  90927658.31845  22205411.797                    22205419.430
 108210325.424 8  84319871.46546  20591729.414                    20591734.203
 112663894.335 7  87790153.41846  21439221.023                    21439228.285
 128689740.367 6 100277771.12643  24488853.742                    24488865.207
 11  7 27  2 19 30.0000000  0 10G25G12G01G17G09G10G04G02G05G27
 122537653.955 7                  23318152.125
 110257852.150 8  85915291.38846  20981375.328                    20981381.395
 109992945.861 8                  20930946.086
 124437451.140 6  96964390.13243  23679646.102                    23679653.922
 128349973.556 6 100013042.82943  24424200.633                    24424211.609
 110015277.927 8  85726282.03745  20935207.430                    20935214.793
 116771046.766 7  90990583.14745  22220778.875                    22220786.344
 108220070.743 8  84327465.25146  20593583.406                    20593588.609
 112586017.784 8  87729470.43346  21424401.352                    21424408.996
 128755264.183 6 100328828.58243  24501321.969                    24501333.551
 11  7 27  2 20  0.0000000  0  9G25G12G01G17G09G10G04G02G05
 122448794.081 7                  23301243.070
 110221908.800 8  85887283.61946  20974535.602                    20974542.293
 109988032.337 8                  20930011.094
 124500706.540 6  97013680.05443  23691683.000                    23691691.297
 128434916.869 6 100079232.35643  24440365.625                    24440375.973
 110035856.303 7  85742317.16245  20939123.586                    20939130.727
 116851884.405 7  91053573.51845  22236161.852                    22236169.734
 108230072.950 8  84335259.21046  20595486.523                    20595491.832
 112508546.285 7  87669103.07546  21409658.664                    21409666.086
 11  7 27  2 20 30.0000000  0  9G25G12G01G17G09G10G04G02G05
 122360150.854 7                  23284375.250
 110186413.136 8  85859624.67546  20967781.195                    20967787.508
 109983331.000 8                  20929116.172
 124564054.419 6  97063042.02643  23703737.648                    23703746.273
 128519795.279 6 100145371.27243  24456517.500                    24456527.539
 110056979.350 7  85758776.69845  20943142.953                    20943150.285
 116932722.642 7  91116564.35344  22251544.547                    22251552.617
 108240248.816 8  84343188.48146  20597423.203                    20597428.285
 112431400.790 8  87608989.75046  21394978.789                    21394986.195
 11  7 27  2 21  0.0000000  0  9G25G12G01G17G09G10G04G02G05
 122271885.494 7                  23267577.813
 110151525.431 8  85832439.46846  20961142.523                    20961148.535
 109978999.553 8                  20928291.891
 124627653.727 6  97112599.93843  23715840.773                    23715848.188
 128604764.136 6 100211580.71644  24472686.508                    24472696.586
 110078805.289 7  85775783.95445  20947296.164                    20947303.609
 117013718.589 7  91179678.05345  22266957.984                    22266965.480
 108250755.897 8  84351375.84746  20599422.859                    20599427.426
 112354742.256 7  87549255.87546  21380391.016                    21380398.188
 11  7 27  2 21 30.0000000  0  9G25G12G01G17G09G10G04G02G05
 122183923.837 7                  23250839.703
 110117170.121 8  85805669.11846  20954604.391                    20954611.180
 109974959.779 8                  20927523.320
 124691427.925 6  97162294.14043  23727976.625                    23727984.410
 128689743.553 6 100277798.34944  24488857.813                    24488867.723
 110101256.354 7  85793278.31445  20951568.633                    20951575.730
 117094793.528 7  91242853.31745  22282386.195                    22282393.902
 108261516.066 8  84359760.42246  20601470.313                    20601475.297
 112278496.282 8  87489843.44746  21365881.797                    21365889.016
 11  7 27  2 22  0.0000000  0  9G25G12G01G17G09G10G04G02G05
 122096188.134 7                  23234144.508
 110083268.287 8  85779252.12546  20948152.859                    20948159.648
 109971130.354 8                  20926794.773
 124755296.936 6  97212062.19443  23740129.570                    23740137.531
 128774649.657 6 100343958.90143  24505014.320                    24505025.059
 110124251.441 7  85811196.57445  20955944.492                    20955951.668
 117175865.640 7  91306026.36544  22297813.508                    22297821.051
 108272447.948 8  84368278.80746  20603550.617                    20603555.504
 112202585.096 8  87430691.92446  21351436.094                    21351443.285
 11  7 27  2 22 30.0000000  0  9G25G12G01G17G09G10G04G02G05
 122008836.792 7                  23217521.445
 110049977.504 8  85753311.27346  20941817.945                    20941824.914
 109967665.535 8                  20926135.367
 124819416.674 6  97262025.58543  23752332.023                    23752339.383
 128859635.353 6 100410181.44343  24521186.289                    24521197.000
 110147945.213 7  85829659.27645  20960453.492                    20960460.906
 117257089.093 7  91369317.35145  22313269.820                    22313278.008
 108283706.136 8  84377051.44246  20605692.938                    20605697.906
 112127167.017 7  87371924.62246  21337084.547                    21337092.156
 11  7 27  2 23  0.0000000  0  9G25G12G01G17G09G10G04G02G05
 121921797.261 7                  23200958.180
 110017223.810 7  85727788.92646  20935585.422                    20935591.637
 109964489.239 8                  20925530.773
 124883712.037 6  97312125.89743  23764566.539                    23764574.043
 128944622.281 6 100476404.94944  24537359.102                    24537370.262
 110172261.352 7  85848606.94645  20965080.219                    20965087.363
 117338386.876 7  91432666.25644  22328740.398                    22328747.758
 108295214.133 8  84386018.72646  20607882.844                    20607887.617
 112052169.151 7  87313484.76646  21322812.633                    21322820.375
 11  7 27  2 23 30.0000000  0  9G25G12G01G17G09G10G04G02G05
 121835071.795 7                  23184455.430
 109985008.660 7  85702686.22746  20929454.703                    20929461.379
 109961599.857 8                  20924981.047
 124948183.024 7  97362363.06243  23776834.422                    23776842.223
 129029606.959 6 100542626.70543  24553531.469                    24553541.934
 110197198.645 7  85868038.62445  20969826.031                    20969832.711
 117419757.071 7  91496071.57344  22344224.656                    22344232.254
 108306970.470 8  84395179.53946  20610119.820                    20610124.551
 111977593.494 8  87255373.91246  21308621.695                    21308628.977
 11  7 27  2 24  0.0000000  0  9G25G12G01G17G09G10G04G02G05
 121748579.679 7                  23167995.859
 109953250.675 8  85677939.75846  20923411.500                    20923418.195
 109958912.698 8                  20924469.883
 125012746.388 6  97412672.18243  23789121.547                    23789128.582
 129114502.591 5 100608779.10343  24569686.102                    24569696.883
 110222672.618 7  85887888.50545  20974673.188                    20974680.410
 117501114.972 7  91559467.31044  22359706.078                    22359714.105
 108318890.782 8  84404468.12746  20612388.383                    20612393.262
 111903358.978 8  87197528.87746  21294495.211                    21294502.805
 11  7 27  2 24 30.0000000  0  9G25G12G01G17G09G10G04G02G05
 121662485.872 7                  23151613.133
 109922112.480 7  85653676.23946  20917486.172                    20917492.859
 109956588.959 8                  20924027.703
 125077564.607 6  97463179.84344  23801455.898                    23801463.820
 129199468.275 5 100674986.04543  24585854.461                    24585865.832
 110248844.856 7  85908282.46745  20979654.047                    20979661.148
 117582621.049 7  91622978.50944  22375216.734                    22375224.660
 108331136.006 8  84414009.87846  20614718.844                    20614723.441
 111829630.888 8  87140078.44246  21280465.594                    21280472.852
 11  7 27  2 25  0.0000000  0  9G25G12G01G17G09G10G04G02G05
 121576714.496 7                  23135291.352
 109891517.218 8  85629835.79346  20911664.023                    20911670.324
 109954549.327 8                  20923639.406
 125142559.445 7  97513825.14343  23813824.516                    23813831.895
 129284422.628 5 100741184.17042  24602021.273                    24602031.816
 110275635.911 7  85929158.65145  20984752.008                    20984758.809
 117664195.273 7  91686542.80844  22390739.633                    22390747.746
 108343626.425 8  84423742.70046  20617095.141                    20617100.027
 111756332.900 8  87082963.17046  21266517.242                    21266524.277
 11  7 27  2 25 30.0000000  0  9G25G12G01G17G09G10G04G02G05
 121491186.097 7                  23119015.508
 109861384.526 7  85606355.79146  20905929.555                    20905936.379
 109952710.169 8                  20923289.297
 125207649.084 7  97564544.37144  23826210.359                    23826217.770
 129369280.505 5 100807307.15342  24618167.828                    24618179.910
 110302962.440 7  85950452.06945  20989951.906                    20989959.063
 117745754.236 7  91750095.21444  22406259.609                    22406267.539
 108356278.894 8  84433601.78546  20619502.750                    20619507.688
 111683385.209 8  87026120.85046  21252635.289                    21252642.754
 11  7 27  2 26  0.0000000  0  9G25G12G01G17G09G10G04G02G05
 121406061.749 7                  23102817.320
 109831874.259 7  85583360.78246  20900314.297                    20900320.926
 109951229.228 8                  20923007.727
 125272992.136 6  97615461.05544  23838643.891                    23838652.109
 129454197.215 5 100873475.86442  24634329.594                    24634339.133
 110330981.532 7  85972285.15145  20995283.984                    20995291.184
 117827454.742 7  91813757.92644  22421806.984                    22421815.160
 108369250.688 8  84443709.68046  20621971.281                    20621976.258
 111610948.415 8  86969676.63646  21238851.594                    21238858.719
 11  7 27  2 26 30.0000000  0  9G25G12G01G17G09G10G04G02G05
 121321267.652 7                  23086681.016
 109802911.263 7  85560792.23846  20894802.844                    20894809.578
 109950028.664 8                  20922778.922
 125338512.560 6  97666515.92243  23851112.023                    23851120.059
 129539092.873 5 100939628.30142  24650483.063                    24650494.512
 110359616.270 7  85994597.94745  21000732.117                    21000739.859
 117909218.794 7  91877470.16344  22437366.398                    22437374.430
 108382464.242 8  84454005.97046  20624485.953                    20624490.621
 111538948.745 8  86913573.03546  21225150.406                    21225157.559
 11  7 27  2 27  0.0000000  0  9G25G12G01G17G09G10G04G02G05
 121236726.280 7                  23070594.188
 109774416.545 7  85538588.57746  20889380.102                    20889387.039
 109949026.837 8                  20922588.359
 125404130.193 6  97717646.51043  23863598.164                    23863607.277
 129623884.686 5 101005699.84142  24666618.094                    24666629.641
 110388785.109 7  86017326.93045  21006282.945                    21006290.707
 117990964.614 7  91941168.17344  22452921.898                    22452930.066
 108395838.571 8  84464427.54546  20627030.750                    20627035.719
 111467308.551 8  86857749.54946  21211517.672                    21211525.063
 11  7 27  2 27 30.0000000  0  9G25G12G01G17G09G10G04G02G05
 121152595.329 7                  23054584.047
 109746546.837 7  85516871.95746  20884076.305                    20884083.406
 109948377.828 8                  20922464.328
 125470000.026 6  97768973.65143  23876133.156                    23876142.434
 129708724.486 6 101071808.71643  24682762.945                    24682773.508
 110418642.184 7  86040592.19545  21011965.008                    21011972.398
 118072845.870 7  92004971.74644  22468503.422                    22468511.445
 108409527.238 8  84475094.04146  20629635.367                    20629640.754
 111396185.215 8  86802328.80246  21197983.398                    21197990.973
 11  7 27  2 28  0.0000000  0  9G25G12G01G17G09G10G04G02G05
 121068802.628 7                  23038638.492
 109719228.423 7  85495584.90046  20878878.164                    20878884.891
 109948005.886 8                  20922393.758
 125536047.716 6  97820439.39243  23888702.078                    23888710.746
 129793534.375 6 101137894.31842  24698902.273                    24698911.703
 110449111.290 7  86064334.36345  21017763.227                    21017770.270
 118154786.212 7  92068821.34344  22484096.688                    22484104.176
 108423454.362 8  84485946.36146  20632285.961                    20632290.762
 111325505.972 8  86747254.10446  21184533.086                    21184540.480
 11  7 27  2 28 30.0000000  0  9G25G12G01G17G09G10G04G02G05
 120985350.567 7                  23022758.414
 109692462.820 7  85474728.61546  20873785.219                    20873791.777
 109947909.333 8                  20922375.523
 125602273.368 6  97872043.80343  23901304.547                    23901312.285
 129878310.877 6 101203953.93943  24715034.828                    24715045.250
 110480191.009 7  86088552.35045  21023677.305                    21023684.766
 118236784.157 7  92132715.84644  22499699.648                    22499707.910
 108437618.540 8  84496983.39046  20634981.219                    20634985.980
 111255273.119 8  86692527.24046  21171168.484                    21171175.770
 11  7 27  2 29  0.0000000  0  9G25G12G01G17G09G10G04G02G05
 120902158.193 7                  23006927.156
 109666167.079 8  85454238.45146  20868781.250                    20868788.121
 109948003.578 8                  20922393.422
 125668593.378 5  97923721.68243  23913924.789                    23913932.719
 129962967.593 6 101269920.16343  24731144.930                    24731155.500
 110511796.558 7  86113180.06546  21029691.758                    21029699.172
 118318754.462 7  92196588.78344  22515298.047                    22515306.582
 108451934.909 8  84508139.01346  20637705.461                    20637710.508
 111185405.296 8  86638084.82146  21157872.539                    21157879.973
 11  7 27  2 29 30.0000000  0  9G25G12G01G17G09G10G04G02G05
 120819390.507 7                  22991176.945
 109640505.219 8  85434242.22346  20863897.734                    20863904.188
 109948449.878 8                  20922478.297
 125735170.209 6  97975599.69043  23926593.688                    23926601.691
 130047663.854 6 101335917.18243  24747262.055                    24747272.203
 110544089.362 7  86138343.29645  21035837.102                    21035843.906
 118400857.909 7  92260565.50044  22530922.172                    22530930.426
 108466564.850 8  84519538.98046  20640489.102                    20640494.355
 111116067.255 8  86584055.20946  21144678.539                    21144684.922
 11  7 27  2 30  0.0000000  0  9G25G12G01G17G09G10G04G02G05
 120736971.075 7                  22975493.180
 109615399.233 8  85414679.14146  20859120.047                    20859126.762
 109949167.925 8                  20922615.242
 125801925.110 6  98027616.48243  23939296.961                    23939304.289
 130132317.818 6 101401881.27443  24763370.898                    24763381.473
 110576988.824 7  86163979.25145  21042097.086                    21042104.453
 118483014.289 7  92324583.44744  22546555.773                    22546564.039
 108481428.316 8  84531120.91746  20643318.141                    20643322.746
 111047182.034 8  86530378.46446  21131570.047                    21131576.762
 11  7 27  2 30 30.0000000  0  9G25G12G01G17G09G10G04G02G05
 120654821.017 7                  22959860.469
 109590768.768 8  85395486.60346  20854433.055                    20854439.516
 109950074.986 8                  20922787.922
 125868776.735 6  98079708.63543  23952018.281                    23952025.441
 130216844.704 6 101467746.30243  24779455.711                    24779466.523
 110610412.175 7  86190023.43545  21048457.758                    21048464.664
 118565140.569 7  92388577.93044  22562183.641                    22562192.258
 108496442.642 8  84542820.40646  20646175.172                    20646180.160
 110978670.818 8  86476993.13946  21118532.570                    21118539.500
 11  7 27  2 31  0.0000000  0  9G25G12G01G17G09G10G04G02G05
 120573101.639 7                  22944309.844
 109566773.918 7  85376789.33646  20849866.930                    20849873.535
 109951328.616 8                  20923026.141
 125935883.868 6  98131999.92243  23964788.359                    23964796.500
 130301400.024 6 101533633.51443  24795546.133                    24795556.090
 110644516.693 7  86216598.40545  21054947.156                    21054954.313
 118647394.033 7  92452671.53644  22577836.531                    22577844.855
 108511765.412 8  84554760.24346  20649091.031                    20649095.293
 110910694.261 8  86424024.42846  21105597.133                    21105604.230
 11  7 27  2 31 30.0000000  0  9G25G12G01G17G09G10G04G02G05
 120491738.615 7                  22928827.203
 109543338.983 8  85358528.37446  20845407.438                    20845414.254
 109952850.903 8                  20923315.977
 126003169.856 6  98184430.52143  23977592.477                    23977600.766
 130385903.907 6 101599480.62043  24811627.555                    24811637.668
 110679224.591 7  86243643.53745  21061551.977                    21061559.313
 118729696.367 7  92516803.22144  22593497.531                    22593505.875
 108527318.246 8  84566879.34146  20652050.539                    20652055.277
 110843177.833 8  86371414.26046  21092748.813                    21092756.113
 11  7 27  2 32  0.0000000  0  9G25G12G01G17G09G10G04G02G05
 120410654.315 7                  22913396.977
 109520384.837 8  85340642.04546  20841039.750                    20841045.969
 109954560.260 8                  20923641.438
 126070554.555 6  98236938.08643  23990415.789                    23990423.160
 130470273.095 6 101665222.74243  24827682.055                    24827692.211
 110714453.921 7  86271094.97345  21068256.109                    21068263.223
 118811965.744 7  92580909.23544  22609152.367                    22609161.289
 108543020.247 8  84579114.68346  20655038.742                    20655043.383
 110776043.357 8  86319101.70946  21079974.250                    21079980.523
 11  7 27  2 32 30.0000000  0  9G25G12G01G17G09G10G04G02G05
 120330006.849 7                  22898050.055
 109498068.105 8  85323252.40246  20836792.938                    20836799.367
 109956611.007 8                  20924031.594
 126138193.500 6  98289643.78243  24003286.969                    24003294.293
 130554660.465 6 101730979.02943  24843740.742                    24843750.879
 110750358.746 7  86299072.76145  21075088.828                    21075095.637
 118894356.725 7  92645109.98944  22624831.266                    22624839.859
 108559025.447 8  84591586.27646  20658084.016                    20658088.758
 110709448.728 8  86267209.82546  21067301.234                    21067308.203
 11  7 27  2 33  0.0000000  0  9G25G12G01G17G09G10G04G02G05
 120249721.468 7                  22882772.008
 109476312.382 8  85306299.91446  20832652.719                    20832659.945
 109958924.558 8                  20924471.578
 126206009.593 7  98342487.49243  24016191.695                    24016198.527
 130638985.528 6 101796686.82443  24859787.234                    24859797.734
 110786860.386 7  86327515.61745  21082034.375                    21082041.871
 118976790.228 7  92709343.88244  22640518.438                    22640526.000
 108575255.460 8  84604233.05546  20661172.367                    20661177.523
 110643318.618 8  86215679.90846  21054717.148                    21054724.188
 11  7 27  2 33 30.0000000  0  8G25G12G01G17G10G04G02G05
 120169803.287 7                  22867564.859
 109455121.401 8  85289787.48846  20828620.086                    20828627.145
 109961502.398 8                  20924962.008
 126274005.402 7  98395471.33343  24029131.406                    24029137.410
 110823960.027 7  86356424.43945  21089094.188                    21089101.473
 119059267.379 7  92773611.81644  22656213.164                    22656220.777
 108591711.757 8  84617056.14346  20664304.203                    20664308.988
 110577657.619 8  86164515.53546  21042222.211                    21042229.352
 11  7 27  2 34  0.0000000  0  8G25G12G01G17G10G04G02G05
 120090186.347 7                  22852414.039
 109434427.685 8  85273662.53746  20824682.125                    20824688.625
 109964274.779 8                  20925489.484
 126342112.498 6  98448541.81443  24042091.563                    24042098.031
 110861587.613 7  86385744.65745  21096254.648                    21096262.277
 119141718.614 7  92837859.52644  22671902.750                    22671911.082
 108608324.559 8  84630001.19646  20667465.320                    20667470.609
 110512399.586 8  86113665.14946  21029803.992                    21029810.926
 11  7 27  2 34 30.0000000  0  8G25G12G01G17G10G04G02G05
 120011001.880 7                  22837345.477
 109414361.173 8  85258026.31946  20820863.789                    20820870.293
 109967369.081 8                  20926078.117
 126410459.671 6  98501799.33743  24055097.250                    24055104.363
 110899870.213 8  86415575.26845  21103539.867                    21103546.656
 119224270.999 7  92902186.03844  22687612.234                    22687620.766
 108625221.650 8  84643167.79146  20670680.859                    20670685.625
 110447675.316 8  86063230.70946  21017487.133                    21017494.539
 11  7 27  2 35  0.0000000  0  8G25G12G01G17G10G04G02G05
 119932187.317 7                  22822348.156
 109394857.297 8  85242828.51046  20817152.789                    20817158.867
 109970719.214 8                  20926716.148
 126478981.992 6  98555193.36043  24068136.563                    24068143.922
 110938741.270 8  86445864.42045  21110936.969                    21110943.582
 119306858.108 7  92966539.63644  22703328.094                    22703336.055
 108642336.780 8  84656504.27446  20673937.945                    20673942.738
 110383421.739 8  86013163.02646  21005260.203                    21005267.379
 11  7 27  2 35 30.0000000  0  8G25G12G01G17G10G04G02G05
 119853745.975 7                  22807420.578
 109375917.920 8  85228070.57446  20813548.508                    20813554.734
 109974324.459 8                  20927402.086
 126547680.085 6  98608724.30144  24081209.305                    24081217.133
 110978200.056 7  86476611.54945  21118445.141                    21118452.426
 119389479.232 7  93030919.74444  22719049.992                    22719058.523
 108659669.481 8  84670010.29946  20677235.719                    20677240.695
 110319641.829 8  85963464.44346  20993123.313                    20993130.344
 11  7 27  2 36  0.0000000  0  8G25G12G01G17G10G04G02G05
 119775680.209 7                  22792565.523
 109357543.905 8  85213753.18646  20810051.961                    20810058.059
 109978183.563 8                  20928136.469
 126616554.197 6  98662392.47943  24094316.297                    24094323.863
 111018244.838 7  86507815.28945  21126065.133                    21126072.270
 119472133.209 7  93095325.44744  22734778.789                    22734786.766
 108677218.308 8  84683684.74046  20680575.438                    20680580.430
 110256337.359 8  85914136.32446  20981076.602                    20981084.004
 11  7 27  2 36 30.0000000  0  8G25G12G01G17G10G04G02G05
 119697993.363 7                  22777782.469
 109339737.204 8  85199877.85046  20806663.906                    20806669.711
 109982296.251 8                  20928919.297
 126685605.004 6  98716198.34743  24107454.648                    24107463.109
 111058874.853 7  86539475.06545  21133797.211                    21133804.484
 119554819.270 7  93159756.16544  22750513.547                    22750521.305
 108694983.149 8  84697527.49846  20683956.000                    20683961.098
 110193510.968 8  85865180.73146  20969121.102                    20969128.367
 11  7 27  2 37  0.0000000  0  8G25G12G01G17G10G04G02G05
 119620687.693 7                  22763071.250
 109322498.094 8  85186444.80246  20803382.828                    20803388.797
 109986661.214 8                  20929749.586
 126754832.579 5  98770141.89343  24120628.484                    24120636.938
 111100088.262 7  86571589.42945  21141639.203                    21141646.906
 119637535.949 7  93224210.69244  22766254.445                    22766261.578
 108712962.631 8  84711537.50546  20687377.250                    20687382.266
 110131164.857 8  85816599.39046  20957256.992                    20957264.254
 11  7 27  2 37 30.0000000  0  8G25G12G01G17G10G04G02G05
 119543766.738 7                  22748433.938
 109305828.792 8  85173455.75246  20800210.750                    20800217.031
 109991277.688 8                  20930628.031
 126824237.409 6  98824223.55343  24133836.086                    24133844.422
 111141884.361 7  86604157.82745  21149593.297                    21149600.520
 119720282.881 7  93288688.83944  22782000.586                    22782007.840
 108731156.565 8  84725714.61046  20690839.438                    20690844.398
 110069301.880 8  85768394.51546  20945484.742                    20945491.680
 11  7 27  2 38  0.0000000  0  8G25G12G01G17G10G04G02G05
 119467232.330 7                  22733869.523
 109289729.189 8  85160910.63946  20797147.016                    20797153.281
 109996144.336 8                  20931554.063
 126893819.067 6  98878442.99444  24147077.422                    24147085.977
 111184260.716 7  86637178.38645  21157657.609                    21157664.660
 119803058.184 7  93353189.09044  22797751.836                    22797759.477
 108749563.171 8  84740057.44346  20694342.086                    20694346.934
 110007923.675 8  85720567.38646  20933805.461                    20933812.270
 11  7 27  2 38 30.0000000  0  8G25G12G01G17G10G04G02G05
 119391087.720 7                  22719379.508
 109274200.968 8  85148810.74646  20794192.508                    20794198.742
 110001260.490 8                  20932527.547
 126963578.579 6  98932801.04944  24160352.547                    24160360.949
 111227216.711 7  86670650.61945  21165831.563                    21165838.344
 119885861.334 7  93417711.05544  22813509.102                    22813516.129
 108768181.974 8  84754565.62646  20697885.133                    20697889.828
 109947032.493 8  85673119.74946  20922218.070                    20922224.801
 11  7 27  2 39  0.0000000  0  8G25G12G01G17G10G04G02G05
 119315335.172 7                  22704964.414
 109259244.889 7  85137156.67946  20791346.188                    20791352.281
 110006624.762 8                  20933548.203
 127033515.437 6  98987297.32844  24173661.250                    24173668.984
 111270750.345 7  86704572.94645  21174115.570                    21174122.781
 119968690.698 7  93482253.40744  22829270.164                    22829278.297
 108787011.983 7  84769238.38046  20701468.578                    20701473.172
 109886630.412 7  85626053.22846  20910723.734                    20910730.813
 11  7 27  2 39 30.0000000  0  8G25G12G01G17G10G04G02G05
 119239977.626 7                  22690623.961
 109244862.096 7  85125949.33246  20788608.953                    20788615.406
 110012236.297 8                  20934615.914
 127103630.548 6  99041932.46843  24187003.398                    24187011.465
 111314860.143 7  86738944.25645  21182509.055                    21182516.434
 120051545.677 7  93546815.73644  22845037.039                    22845045.121
 108806052.263 7  84784074.98646  20705091.766                    20705096.297
 109826719.445 7  85579369.38446  20899323.352                    20899330.191
 11  7 27  2 40  0.0000000  0  8G25G12G01G17G10G04G02G05
 119165016.679 7                  22676360.117
 109231052.382 7  85115188.53846  20785981.242                    20785987.535
 110018093.039 8                  20935730.664
 127173922.873 6  99096705.70943  24200379.219                    24200387.168
 111359543.617 7  86773762.56645  21191012.445                    21191019.355
 120134423.977 7  93611396.21744  22860808.930                    22860816.781
 108825300.601 7  84799073.72446  20708754.250                    20708759.219
 109767300.903 7  85533069.26246  20888016.297                    20888023.129
 11  7 27  2 40 30.0000000  0  8G25G12G01G17G10G04G02G05
 119090456.303 7                  22662171.219
 109217817.980 8  85104876.03446  20783463.031                    20783469.203
 110024195.396 8                  20936891.945
 127244393.651 6  99151618.00743  24213788.703                    24213797.402
 111404800.384 7  86809027.60245  21199624.172                    21199631.414
 120217325.837 7  93675995.05744  22876584.531                    22876592.121
 108844757.800 8  84814235.19346  20712456.828                    20712461.852
 109708378.497 8  85487155.73146  20876803.555                    20876810.672
 11  7 27  2 41  0.0000000  0  8G25G12G01G17G10G04G02G05
 119016298.904 7                  22648059.844
 109205159.625 7  85095012.39946  20781053.930                    20781060.027
 110030541.966 8                  20938099.656
 127315042.859 7  99206669.33143  24227233.367                    24227241.277
 111450628.834 7  86844738.10645  21208344.734                    21208352.297
 120300250.156 7  93740611.39044  22892364.492                    22892372.117
 108864422.645 8  84829558.47646  20716198.930                    20716203.906
 109649953.766 8  85441630.00446  20865685.789                    20865692.613
 11  7 27  2 41 30.0000000  0  8G25G12G01G17G10G04G02G05
 118942545.831 7                  22634024.781
 109193076.944 8  85085597.34346  20778754.688                    20778760.668
 110037130.341 8                  20939353.266
 127385869.655 7  99261859.06543  24240711.805                    24240719.563
 111497025.796 7  86880891.58945  21217174.563                    21217181.152
 120383194.665 6  93805243.46544  22908148.313                    22908156.164
 108884292.773 8  84845041.70946  20719979.820                    20719985.594
 109592027.573 8  85396492.74746  20854662.789                    20854669.867
 11  7 27  2 42  0.0000000  0  9G25G12G01G17G29G10G04G02G05
 118869200.394 7                  22620067.398
 109181571.492 7  85076632.06346  20776565.039                    20776571.887
 110043960.424 8                  20940653.227
 127456874.668 6  99317187.65343  24254223.883                    24254230.965
 129567278.24915 100961588.66552  24655843.164                    24655852.063
 111543990.337 7  86917487.36045  21226111.484                    21226118.559
 120466158.652 7  93869890.71144  22923935.211                    22923943.520
 108904368.152 7  84860684.87546  20723800.523                    20723805.125
 109534602.366 8  85351745.86246  20843734.891                    20843741.773
 11  7 27  2 42 30.0000000  0  9G25G12G01G17G29G10G04G02G05
 118796264.915 7                  22606188.758
 109170643.622 8  85068116.85746  20774485.602                    20774492.090
 110051031.024 8                  20941998.563
 127528057.747 6  99372654.97343  24267768.680                    24267776.441
 129487052.134 5 100899074.83942  24640575.375                    24640585.605
 111591520.478 7  86954523.86045  21235156.273                    21235163.090
 120549141.119 7  93934552.34844  22939727.078                    22939734.770
 108924647.428 8  84876486.92946  20727659.445                    20727664.355
 109477680.075 8  85307390.86046  20832903.125                    20832909.738
 11  7 27  2 43  0.0000000  0  9G25G12G01G17G29G10G04G02G05
 118723742.050 7                  22592387.516
 109160294.699 8  85060052.77546  20772516.602                    20772522.664
 110058340.799 8                  20943389.508
 127599419.325 6  99428261.45642  24281348.117                    24281356.496
 129406758.173 5 100836508.11042  24625296.313                    24625306.113
 111639614.901 7  86992000.05345  21244307.984                    21244315.035
 120632141.081 7  93999227.62044  22955521.258                    22955529.102
 108945129.819 8  84892447.24146  20731557.156                    20731561.828
 109421262.730 8  85263429.32446  20822167.234                    20822173.637
 11  7 27  2 43 30.0000000  0  9G25G12G01G17G29G10G04G02G05
 118651633.769 7                  22578665.820
 109150524.344 8  85052439.52146  20770657.141                    20770663.551
 110065888.561 8                  20944825.922
 127670959.001 6  99484006.62642  24294962.266                    24294969.699
 129326396.273 5                  24610004.703
 111688270.553 7  87029913.55245  21253567.453                    21253574.383
 120715156.853 7  94063915.20544  22971318.500                    22971326.582
 108965813.800 7  84908564.64846  20735492.961                    20735497.770
 109365351.585 7  85219862.23846  20811527.250                    20811534.293
 11  7 27  2 44  0.0000000  0  9G25G12G01G17G29G10G04G02G05
 118579942.983 7                  22565024.352
 109141333.477 8  85045277.82246  20768908.422                    20768914.426
 110073673.012 8                  20946307.164
 127742676.995 6  99539890.83842  24308609.805                    24308616.762
 129245967.53815                  24594700.219
 111737486.409 7  87068263.58045  21262932.172                    21262939.070
 120798187.698 6  94128614.55544  22987119.258                    22987127.113
 108986698.714 8  84924838.61146  20739467.367                    20739472.035
 109309948.986 8  85176691.42446  20800984.766                    20800991.086
 11  7 27  2 44 30.0000000  0  9G25G12G01G17G29G10G04G02G05
 118508671.568 7                  22551461.336
 109132722.475 8  85038567.96246  20767269.680                    20767275.969
 110081692.804 8                  20947833.148
 127814572.958 6  99595913.70143  24322291.070                    24322298.219
 129165471.878 5 100648486.05752  24579381.391                    24579389.512
 111787260.057 7  87107048.24145  21272403.938                    21272411.113
 120881232.106 7  94193324.46344  23002922.000                    23002929.520
 109007782.774 8  84941267.76146  20743479.773                    20743484.039
 109255056.469 7  85133918.06946  20790539.086                    20790545.551
 11  7 27  2 45  0.0000000  0  9G25G12G01G17G29G10G04G02G05
 118437822.338 7                  22537978.891
 109124692.119 8  85032310.55146  20765741.148                    20765747.789
 110089947.181 8                  20949403.883
 127886647.081 6  99652075.34243  24336006.469                    24336014.266
 129084910.24714 100585710.85452  24564050.086                    24564059.891
 111837589.888 7  87146266.30745  21281981.344                    21281988.676
 120964289.441 6  94258044.44644  23018727.758                    23018735.250
 109029065.629 8  84957851.82646  20747529.805                    20747534.766
 109200675.949 7  85091543.68046  20780190.539                    20780197.863
 11  7 27  2 45 30.0000000  0  9G25G12G01G17G29G10G04G02G05
 118367397.667 7                  22524577.023
 109117242.912 8  85026505.98146  20764323.891                    20764329.719
 110098434.760 8                  20951019.023
 127958899.231 6  99708375.72843  24349755.008                    24349763.711
 129004283.21215 100522884.63352  24548708.836                    24548717.578
 111888474.197 7  87185916.41245  21291664.461                    21291671.125
 121047358.253 6  94322773.38844  23034534.484                    23034542.117
 109050546.255 7  84974590.00246  20751616.727                    20751621.723
 109146809.188 8  85049569.61446  20769939.758                    20769946.957
 11  7 27  2 46  0.0000000  0  9G25G12G01G17G29G10G04G02G05
 118297399.785 7                  22511257.352
 109110375.532 7  85021154.79246  20763016.875                    20763023.395
 110107154.538 8                  20952678.383
 128031329.337 6  99764814.73743  24363538.375                    24363546.430
 128923591.295 6 100460007.91042  24533353.016                    24533362.238
 111939910.499 7  87225996.65845  21301452.391                    21301459.586
 121130437.500 6  94387510.44744  23050343.883                    23050351.344
 109072223.333 7  84991481.23946  20755742.031                    20755747.215
 109093457.809 7  85007997.14746  20759787.797                    20759794.887
 11  7 27  2 46 30.0000000  0  9G25G12G01G17G29G10G04G02G05
 118227831.526 7                  22498018.547
 109104090.492 8  85016257.36146  20761821.164                    20761827.895
 110116105.673 8                  20954381.828
 128103937.800 6  99821392.76043  24377355.328                    24377363.320
 128842835.364 5 100397081.24442  24517985.516                    24517995.020
 111991897.229 7  87266505.80645  21311345.133                    21311352.113
 121213526.484 7  94452255.11644  23066155.594                    23066162.871
 109094096.231 8  85008525.06046  20759904.484                    20759909.461
 109040623.586 7  84966827.65846  20749733.867                    20749740.844
 11  7 27  2 47  0.0000000  0  9G25G12G01G17G29G10G04G02G05
 118158694.683 7                  22484861.961
 109098388.004 7  85011813.87146  20760735.922                    20760742.313
 110125286.026 8                  20956128.578
 128176724.006 6  99878109.29643  24391206.320                    24391214.309
 128762015.002 5 100334104.41042  24502606.484                    24502615.398
 112044431.806 7  87307441.83645  21321342.281                    21321349.418
 121296623.613 7  94517006.12144  23081968.398                    23081975.355
 109116163.541 8  85025720.38046  20764103.609                    20764108.758
 108988307.998 7  84926062.29346  20739778.180                    20739785.000
 11  7 27  2 47 30.0000000  0  9G25G12G01G17G29G10G04G02G05
 118089991.862 7                  22471788.414
 109093268.739 7  85007824.84046  20759761.578                    20759767.973
 110134695.137 8                  20957919.281
 128249688.104 6  99934964.47844  24405090.797                    24405098.371
 128681131.980 5 100271078.70043  24487214.891                    24487223.211
 112097512.727 7  87348803.59545  21331443.547                    21331450.371
 121379728.165 7  94581762.89844  23097782.313                    23097789.816
 109138424.393 7  85043066.50946  20768339.641                    20768344.559
 108936512.972 8  84885702.56646  20729921.922                    20729928.613
 11  7 27  2 48  0.0000000  0  9G25G12G01G17G29G10G04G02G05
 118021725.271 7                  22458798.039
 109088732.569 8  85004290.17246  20758898.289                    20758905.223
 110144331.445 8                  20959752.688
 128322829.919 6  99991958.08443  24419009.461                    24419016.969
 128600186.27016 100208004.18752  24471810.148                    24471819.668
 112151137.723 7  87390589.29445  21341647.820                    21341654.934
 121462838.599 6  94646524.27244  23113596.984                    23113605.055
 109160877.498 8  85060562.45046  20772612.313                    20772617.406
 108885239.890 8  84845749.55346  20720164.930                    20720171.742
 11  7 27  2 48 30.0000000  0  9G25G12G01G17G29G10G04G02G05
 117953897.456 7                  22445890.359
 109084780.145 8  85001210.37146  20758146.336                    20758152.652
 110154194.062 8                  20961629.547
 128396149.347 6 100049090.14643  24432961.758                    24432969.289
 128519178.976 6 100144881.69842  24456395.891                    24456403.957
 112205305.209 7  87432797.72545  21351955.094                    21351962.395
 121545954.321 7  94711289.79944  23129414.172                    23129421.871
 109183522.065 8  85078207.59246  20776921.648                    20776926.781
 108834490.783 8  84806204.82846  20710507.820                    20710514.375
 11  7 27  2 49  0.0000000  0  9G25G12G01G17G29G10G04G02G05
 117886510.705 7                  22433067.305
 109081411.804 8  84998585.68746  20757505.578                    20757511.734
 110164281.474 8                  20963549.164
 128469646.486 6 100106360.66143  24446947.367                    24446955.023
 128438110.317 6 100081711.39043  24440969.227                    24440976.805
 112260012.716 7  87475426.96745  21362365.734                    21362373.020
 121629074.306 7  94776058.58243  23145231.289                    23145239.309
 109206357.169 8  85096001.19146  20781266.883                    20781272.047
 108784266.900 8  84767069.36346  20700950.141                    20700957.207
 11  7 27  2 49 30.0000000  0  9G25G12G01G17G29G10G04G02G05
 117819567.230 7                  22420328.695
 109078627.942 8  84996416.46146  20756975.531                    20756982.363
 110174592.957 8                  20965511.633
 128543321.115 6 100163769.47943  24460966.703                    24460975.348
 128356980.893 5 100018493.71142  24425531.180                    24425538.652
 112315257.748 7  87518475.05045  21372878.719                    21372885.414
 121712197.323 7  94840829.76843  23161049.180                    23161057.305
 109229381.625 8  85113942.34546  20785648.336                    20785652.934
 108734569.749 8  84728344.33146  20691493.336                    20691500.402
 11  7 27  2 50  0.0000000  0  9G25G12G01G17G29G10G04G02G05
 117753069.191 7                  22407674.391
 109076428.545 8  84994702.65246  20756557.102                    20756563.664
 110185127.038 8                  20967515.773
 128617172.925 5 100221316.34743  24475020.883                    24475028.738
 128275791.520 6  99955229.33542  24410080.750                    24410089.316
 112371038.249 7  87561940.38245  21383493.289                    21383499.953
 121795322.271 7  94905602.47743  23176867.188                    23176874.883
 109252594.241 8  85132030.10346  20790065.523                    20790070.137
 108685400.930 8  84690030.99046  20682137.016                    20682143.520
 11  7 27  2 50 30.0000000  0  9G25G12G01G17G29G10G04G02G05
 117687018.870 7                  22395105.398
 109074813.890 8  84993444.48446  20756249.492                    20756256.391
 110195882.597 8                  20969562.344
 128691201.809 5 100279001.23043  24489107.211                    24489115.969
 128194542.706 5  99891918.65742  24394618.547                    24394627.883
 112427352.291 7  87605821.46445  21394209.195                    21394216.469
 121878448.054 6  94970375.81643  23192685.266                    23192693.066
 109275994.004 8  85150263.69146  20794518.570                    20794523.211
 108636761.853 8  84652130.43346  20672881.117                    20672888.230
 11  7 27  2 51  0.0000000  0  9G25G12G01G17G29G10G04G02G05
 117621418.854 7                  22382621.656
 109073785.010 8  84992642.76746  20756053.953                    20756060.242
 110206858.467 8                  20971650.758
 128765407.792 5 100336824.09542  24503228.328                    24503237.406
 128113235.193 5  99828562.29142  24379147.000                    24379156.277
 112484198.082 7  87650116.88445  21405026.773                    21405033.586
 121961574.060 6  95035149.35043  23208504.164                    23208511.406
 109299580.214 8  85168642.57946  20799006.641                    20799011.121
 108588654.653 8  84614644.32946  20663726.484                    20663733.242
 11  7 27  2 51 30.0000000  0  9G25G12G01G17G29G10G04G02G05
 117556270.986 7                  22370224.547
 109073340.896 8  84992296.71246  20755969.461                    20755975.750
 110218053.100 8                  20973781.484
 128839790.556 5 100394784.71742  24517383.359                    24517391.555
 128031869.532 6  99765160.56643  24363663.117                    24363672.000
 112541572.971 7  87694824.59845  21415945.023                    21415952.059
 122044698.819 7  95099921.89744  23224321.945                    23224329.949
 109323351.518 8  85187165.68746  20803530.125                    20803534.902
 108541080.036 8  84577573.22246  20654673.484                    20654680.063
 11  7 27  2 52  0.0000000  0  8G25G12G01G29G10G04G02G05
 117491578.067 7                  22357913.688
 109073482.500 8  84992407.05246  20755996.305                    20756003.109
 110229466.105 8                  20975953.492
 127950446.717 6  99701714.26943  24348169.102                    24348178.047
 112599475.058 7  87739943.11645  21426963.172                    21426970.277
 122127821.853 6  95164693.11044  23240140.102                    23240147.133
 109347307.325 8  85205832.57046  20808088.648                    20808093.672
 108494040.087 8  84540918.74746  20645721.695                    20645728.781
 11  7 27  2 52 30.0000000  0  8G25G12G01G29G10G04G02G05
 117427342.125 7                  22345690.594
 109074209.974 8  84992973.91946  20756134.906                    20756141.156
 110241096.170 8                  20978166.570
 127868967.276 6  99638223.89043  24332664.289                    24332672.211
 112657901.868 7  87785470.51345  21438081.672                    21438088.688
 122210941.972 6  95229462.04244  23255956.539                    23255964.895
 109371446.708 8  85224642.49046  20812682.273                    20812686.898
 108447536.066 8  84504681.87746  20636872.508                    20636879.250
 11  7 27  2 53  0.0000000  0  8G25G12G01G29G10G04G02G05
 117363564.688 7                  22333554.070
 109075522.842 8  84993996.92946  20756384.695                    20756391.238
 110252941.246 8                  20980420.438
 127787431.279 6  99574689.49143  24317148.125                    24317156.359
 112716850.600 7  87831404.59745  21449299.563                    21449305.871
 122294057.784 6  95294227.61144  23271772.930                    23271781.109
 109395767.677 8  85243593.90646  20817310.305                    20817315.383
 108401568.804 7  84468863.25846  20628125.039                    20628131.645
 11  7 27  2 53 30.0000000  0  8G25G12G01G29G10G04G02G05
 117300248.336 7                  22321504.930
 109077421.481 8  84995476.40146  20756745.813                    20756752.113
 110265000.649 8                  20982715.016
 127705839.824 6  99511111.82743  24301621.648                    24301629.852
 112776319.404 7  87877743.93545  21460615.727                    21460622.422
 122377168.451 6  95358989.19744  23287589.055                    23287596.254
 109420269.492 8  85262686.25146  20821972.766                    20821977.789
 108356139.799 8  84433464.05746  20619480.414                    20619487.121
 11  7 27  2 54  0.0000000  0  8G25G12G01G29G10G04G02G05
 117237395.312 7                  22309544.563
 109079906.026 8  84997412.40646  20757218.883                    20757225.176
 110277273.296 8                  20985050.531
 127624193.693 6  99447491.51943  24286084.953                    24286093.531
 112836306.065 7  87924486.80045  21472030.875                    21472037.898
 122460273.113 7  95423746.09944  23303403.297                    23303411.180
 109444951.648 8  85281919.10546  20826670.039                    20826674.621
 108311250.680 8  84398485.55146  20610938.398                    20610944.969
 11  7 27  2 54 30.0000000  0  8G25G12G01G29G10G04G02G05
 117175007.988 7                  22297672.727
 109082976.589 8  84999805.05246  20757803.094                    20757809.730
 110289758.185 8                  20987426.578
 127542493.622 6  99383829.22543  24270537.828                    24270546.324
 112896808.546 7  87971631.60445  21483544.203                    21483550.984
 122543371.081 7  95488497.76944  23319216.695                    23319224.059
 109469813.190 8  85301291.74846  20831400.969                    20831405.586
 108266902.994 8  84363928.93846  20602499.047                    20602505.832
 11  7 27  2 55  0.0000000  0  8G25G12G01G29G10G04G02G05
 117113088.751 7                  22285889.688
 109086633.446 8  85002654.55046  20758498.984                    20758505.258
 110302454.180 8                  20989842.273
 127460740.267 6  99320125.44343  24254980.008                    24254988.883
 112957824.704 7  88019176.68045  21495154.953                    21495161.910
 122626461.543 6  95553243.59744  23335027.906                    23335035.426
 109494853.367 8  85320803.58146  20836165.430                    20836170.348
 108223098.174 8  84329795.33546  20594163.219                    20594170.230
 11  7 27  2 55 30.0000000  0  8G25G12G01G29G10G04G02G05
 117051638.754 7                  22274195.797
 109090875.561 8  85005960.09346  20759306.195                    20759312.652
 110315359.493 8                  20992298.305
 127378934.091 6  99256380.45143  24239413.141                    24239421.617
 113019351.181 7  88067119.39045  21506863.219                    21506869.965
 122709542.784 7  95617982.20743  23350838.336                    23350845.016
 109520070.183 8  85340453.05846  20840964.148                    20840968.496
 108179836.754 8  84296085.15946  20585931.039                    20585938.160
 11  7 27  2 56  0.0000000  0  8G25G12G01G29G10G04G02G05
 116990661.003 7                  22262592.664
 109095703.890 8  85009722.41946  20760225.133                    20760231.188
 110328473.696 8                  20994793.984
 127297076.228 6  99192595.24743  24223836.008                    24223844.953
 113081386.593 7  88115458.69245  21518668.063                    21518675.195
 122792614.559 6  95682713.46243  23366646.227                    23366653.078
 109545463.414 8  85360240.01446  20845796.281                    20845801.387
 108137120.789 8  84262800.02146  20577802.492                    20577809.031
 11  7 27  2 56 30.0000000  0  8G25G12G01G29G10G04G02G05
 116930156.761 7                  22251078.781
 109101117.251 7  85013940.63346  20761255.055                    20761261.281
 110341794.482 8                  20997328.719
 127215166.882 6  99128769.78843  24208249.508                    24208257.504
 113143927.706 7  88164192.03545  21530569.453                    21530576.109
 122875675.294 6  95747436.14143  23382451.508                    23382458.836
 109571031.367 7  85380163.10146  20850661.602                    20850666.566
 108094950.641 8  84229940.18646  20569777.773                    20569784.297
 11  7 27  2 57  0.0000000  0  8G25G12G01G29G10G04G02G05
 116870128.969 7                  22239655.938
 109107116.933 8  85018615.70246  20762396.492                    20762403.438
 110355322.052 8                  20999902.883
 127133207.631 6  99064905.47543  24192652.516                    24192660.863
 113206973.074 7  88213318.31345  21542566.523                    21542573.359
 122958724.815 6  95812150.05943  23398255.188                    23398262.602
 109596774.076 8  85400222.37146  20855560.617                    20855565.340
 108053328.349 8  84197507.25746  20561857.672                    20561864.016
 11  7 27  2 57 30.0000000  0  8G25G12G01G29G10G04G02G05
 116810579.283 8                  22228323.828
 109113702.040 8  85023746.94846  20763649.922                    20763656.406
 110369054.569 8                  21002515.977
 127051198.668 6  99001002.40743  24177047.586                    24177055.594
 113270519.808 7  88262835.26845  21554658.789                    21554666.113
 123041761.795 6  95876854.21843  23414056.883                    23414064.164
 109622689.977 8  85420416.59246  20860492.289                    20860497.289
 108012254.659 8  84165501.80946  20554041.109                    20554047.500
 11  7 27  2 58  0.0000000  0  8G25G12G01G29G10G04G02G05
 116751509.645 7                  22217083.281
 109120872.233 8  85029334.10946  20765014.750                    20765021.000
 110382990.636 8                  21005167.773
 126969140.542 6  98937061.05443  24161431.969                    24161440.598
 113334565.196 7  88312740.78445  21566846.391                    21566853.215
 123124785.197 6  95941547.77643  23429855.758                    23429863.363
 109648777.918 8  85440744.88546  20865456.680                    20865460.906
 107971730.846 8  84133924.83846  20546329.305                    20546336.148
 11  7 27  2 58 30.0000000  0  8G25G12G01G29G10G04G02G05
 116692922.062 8                  22205934.336
 109128627.409 8  85035377.09446  20766489.758                    20766496.172
 110397129.233 8                  21007858.328
 126887034.009 6  98873081.95543  24145807.227                    24145815.871
 113399106.791 7  88363032.94345  21579127.836                    21579134.777
 123207794.294 6  96006230.21443  23445652.008                    23445659.383
 109675036.790 8  85461206.35446  20870453.313                    20870458.125
 107931757.945 8  84102777.14546  20538723.086                    20538729.266
 11  7 27  2 59  0.0000000  0  8G25G12G01G29G10G04G02G05
 116634819.042 7                  22194878.063
 109136968.009 8  85041876.26046  20768077.258                    20768083.723
 110411469.643 8                  21010587.305
 126804880.658 6  98809066.36143  24130174.742                    24130182.160
 113464142.842 7  88413710.39845  21591504.305                    21591510.961
 123290788.641 6  96070901.15243  23461445.367                    23461452.387
 109701466.544 8  85481800.97046  20875482.977                    20875487.340
 107892337.359 8  84072059.83446  20531221.453                    20531228.188
 11  7 27  2 59 30.0000000  0  8G25G12G01G29G10G04G02G05
 116577202.783 8                  22183913.500
 109145893.707 8  85048831.34746  20769775.641                    20769782.277
 110426010.828 8                  21013354.453
 126722681.248 6  98745014.89643  24114532.500                    24114540.086
 113529671.292 7  88464771.53245  21603973.555                    21603980.871
 123373767.493 6  96135560.03343  23477234.719                    23477242.402
 109728066.388 8  85502528.14246  20880544.609                    20880549.500
 107853470.578 8  84041774.04946  20523825.391                    20523832.402
 11  7 27  3  0  0.0000000  0  8G25G12G01G29G10G04G02G05
 116520074.444 8                  22173042.695
 109155403.774 8  85056241.78346  20771585.469                    20771591.980
 110440750.948 8                  21016159.398
 126640435.597 6  98680927.38443  24098881.563                    24098889.598
 113595688.476 7  88516213.50445  21616536.086                    21616543.324
 123456729.196 6  96200205.49643  23493022.508                    23493029.629
 109754834.033 8  85523386.06346  20885638.469                    20885643.105
 107815157.693 8  84011919.88346  20516534.695                    20516541.672
 11  7 27  3  0 30.0000000  0  8G25G12G01G29G10G04G02G05
 116463436.676 7                  22162264.680
 109165498.085 8  85064107.47646  20773506.016                    20773512.707
 110455689.589 8                  21019002.203
 126558145.409 6  98616805.19543  24083222.688                    24083230.789
 113662192.531 7  88568034.85245  21629191.820                    21629198.723
 123539673.559 7  96264837.47843  23508806.117                    23508813.195
 109781769.546 8  85544374.79146  20890764.227                    20890768.516
 107777400.452 8  83982498.67646  20509349.727                    20509356.621
 11  7 27  3  1  0.0000000  0  8G25G12G01G29G10G04G02G05
 116407291.119 7                  22151581.156
 109176176.237 8  85072428.09546  20775538.406                    20775545.023
 110470825.183 8                  21021881.695
 126475811.197 6  98552648.66943  24067554.586                    24067562.672
 113729181.016 7  88620233.68245  21641939.133                    21641946.254
 123622599.333 7  96329454.99943  23524586.547                    23524594.152
 109808871.658 8  85565493.33146  20895921.320                    20895925.504
 107740199.662 8  83953511.07146  20502270.625                    20502277.539
 11  7 27  3  1 30.0000000  0  8G25G12G01G29G10G04G02G05
 116351639.630 8                  22140990.547
 109187438.079 8  85081203.55846  20777681.477                    20777687.848
 110486156.439 8                  21024799.633
 126393433.565 6  98488458.32143  24051878.938                    24051886.887
 113796650.957 7  88672807.65945  21654777.930                    21654784.828
 123705505.776 6  96394057.41143  23540362.867                    23540369.969
 109836139.095 8  85586740.69346  20901109.852                    20901114.648
 107703556.166 8  83924957.71046  20495298.078                    20495304.258
 11  7 27  3  2  0.0000000  0  8G25G12G01G29G10G04G02G05
 116296484.030 8                  22130495.039
 109199282.963 7  85090433.32946  20779935.383                    20779941.949
 110501682.243 8                  21027754.227
 126311013.334 6  98424234.79743  24036193.875                    24036202.699
 113864599.986 7  88725754.96145  21667708.438                    21667715.297
 123788392.036 6  96458644.16243  23556135.617                    23556143.430
 109863571.068 8  85608116.27246  20906330.086                    20906334.527
 107667470.976 8  83896839.40646  20488430.844                    20488437.328
 11  7 27  3  2 30.0000000  0  8G25G12G01G29G10G04G02G05
 116241826.459 8                  22120093.766
 109211710.513 8  85100117.13046  20782299.992                    20782306.844
 110517401.620 8                  21030745.406
 126228551.614 6  98359978.95943  24020502.664                    24020510.859
 113933025.834 7  88779073.81145  21680729.617                    21680736.379
 123871257.597 7  96523214.73643  23571904.258                    23571912.273
 109891166.930 7  85629619.56046  20911581.383                    20911586.445
 107631945.215 8  83869157.01946  20481670.477                    20481677.109
 11  7 27  3  3  0.0000000  0  8G25G12G01G29G10G04G02G05
 116187669.100 7                  22109788.117
 109224721.052 8  85110255.21146  20784775.852                    20784782.941
 110533313.709 8                  21033773.352
 126146049.806 6  98295691.87343  24004802.477                    24004810.637
 114001925.924 7  88832762.19345  21693840.711                    21693847.520
 123954101.574 6  96587768.48543  23587668.828                    23587677.027
 109918926.030 8  85651250.03946  20916864.195                    20916868.844
 107596979.823 8  83841911.28446  20475016.617                    20475023.418
 11  7 27  3  3 30.0000000  0  8G25G12G01G29G10G04G02G05
 116134013.669 7                  22099577.141
 109238313.415 8  85120846.65846  20787362.727                    20787368.887
 110549417.280 8                  21036837.758
 126063508.535 6  98231374.05543  23989096.531                    23989104.598
 114071297.551 7  88886818.01345  21707041.539                    21707048.629
 124036923.087 6  96652304.71743  23603429.492                    23603437.805
 109946847.167 7  85673006.78946  20922177.086                    20922182.012
 107562575.588 8  83815102.80846  20468469.742                    20468476.289
 11  7 27  3  4  0.0000000  0  8G25G12G01G29G10G04G02G05
 116080862.023 7                  22089462.750
 109252487.450 8  85131891.35646  20790059.766                    20790066.668
 110565711.088 8                  21039938.461
 125980928.417 6  98167025.95643  23973381.398                    23973389.434
 114141138.376 7  88941239.44945  21720331.664                    21720338.500
 124119721.567 6  96716823.00544  23619186.156                    23619193.102
 109974929.447 8  85694889.09046  20927521.016                    20927525.773
 107528733.713 8  83788732.54846  20462029.539                    20462036.023
 11  7 27  3  4 30.0000000  0  8G25G12G01G29G10G04G02G05
 116028215.458 8                  22079444.516
 109267241.879 7  85143388.31546  20792867.547                    20792874.094
 110582193.461 8                  21043074.938
 125898309.575 6  98102647.73643  23957659.000                    23957667.465
 114211445.288 7  88996024.07045  21733710.734                    21733718.004
 124202495.714 7  96781322.32543  23634936.367                    23634944.785
 110003171.353 8  85716895.78346  20932895.320                    20932899.773
 107495454.575 8  83762800.77146  20455696.969                    20455703.703
 11  7 27  3  5  0.0000000  0  8G25G12G01G29G10G04G02G05
 115976076.542 8                  22069523.125
 109282577.159 8  85155337.87846  20795785.969                    20795792.172
 110598864.264 8                  21046247.016
 125815654.079 6  98038240.91043  23941929.883                    23941938.113
 114282216.491 7  89051170.45745  21747177.969                    21747184.840
 124285245.324 7  96845802.54344  23650683.750                    23650691.809
 110031572.812 8  85739026.79846  20938299.828                    20938304.406
 107462739.690 8  83737308.67546  20449471.805                    20449477.844
 11  7 27  3  5 30.0000000  0  8G25G12G01G29G10G04G02G05
 115924447.250 8                  22059698.227
 109298493.309 8  85167740.07246  20798814.555                    20798820.879
 110615722.460 8                  21049454.969
 125732962.872 6  97973806.27643  23926194.789                    23926202.938
 114353449.350 7  89106676.59245  21760733.578                    21760740.297
 124367969.868 7  96910263.23043  23666425.578                    23666433.832
 110060133.267 8  85761281.70946  20943734.586                    20943739.762
 107430589.618 8  83712256.69446  20443353.703                    20443360.129
 11  7 27  3  6  0.0000000  0  8G25G12G01G29G10G04G02G05
 115873329.138 8                  22049970.938
 109314988.685 8  85180593.60846  20801953.695                    20801960.117
 110632766.616 8                  21052698.461
 125650236.787 6  97909344.47643  23910452.273                    23910460.434
 114425141.153 7  89162540.34145  21774375.578                    21774382.789
 124450668.430 6  96974703.64743  23682162.500                    23682170.176
 110088851.430 8  85783659.51746  20949199.359                    20949203.867
 107399005.207 8  83687645.48946  20437343.164                    20437349.727
 11  7 27  3  6 30.0000000  0  8G25G12G01G29G10G04G02G05
 115822723.738 7                  22040340.617
 109332062.820 8  85193898.11646  20805202.578                    20805208.813
 110649995.522 8                  21055977.117
 125567476.139 6  97844855.74543  23894703.555                    23894711.645
 114497288.966 7  89218759.41545  21788105.695                    21788112.566
 124533340.004 6  97039123.03343  23697894.625                    23697902.637
 110117726.174 8  85806159.31746  20954694.352                    20954698.984
 107367986.918 8  83663475.42146  20431440.617                    20431447.375
 11  7 27  3  7  0.0000000  0  8G25G12G01G29G10G04G02G05
 115772632.844 8                  22030808.820
 109349715.054 8  85207653.10646  20808561.656                    20808568.590
 110667407.834 8                  21059290.523
 125484682.011 6  97780340.91244  23878948.828                    23878956.313
 114569890.137 7  89275331.76245  21801920.891                    21801927.395
 124615984.037 6  97103520.96843  23713620.844                    23713629.352
 110146756.644 8  85828780.47846  20960218.469                    20960223.223
 107337535.798 8  83639747.29846  20425645.883                    20425652.410
 11  7 27  3  7 30.0000000  0  8G25G12G01G29G10G04G02G05
 115723058.145 7                  22021375.172
 109367944.752 8  85221858.06446  20812030.813                    20812037.488
 110685002.704 8                  21062638.953
 125401855.666 6  97715801.00043  23863187.344                    23863194.777
 114642941.936 7  89332255.24845  21815821.922                    21815829.070
 124698599.654 6  97167896.76643  23729342.055                    23729350.410
 110175941.903 8  85851522.25246  20965772.195                    20965776.969
 107307652.278 8  83616461.45446  20419959.148                    20419965.910
 11  7 27  3  8  0.0000000  0  8G25G12G01G29G10G04G02G05
 115674001.417 8                  22012039.633
 109386751.500 8  85236512.66946  20815609.727                    20815615.965
 110702778.785 8                  21066021.234
 125318997.818 6  97651236.54444  23847419.289                    23847427.668
 114716441.503 7  89389527.64745  21829808.938                    21829815.371
 124781186.322 6  97232250.00543  23745058.555                    23745064.898
 110205281.239 8  85874384.08346  20971355.445                    20971360.215
 107278337.024 8  83593618.42446  20414380.719                    20414387.254
 11  7 27  3  8 30.0000000  0  8G25G12G01G29G10G04G02G05
 115625464.636 8                  22002803.367
 109406134.636 7  85251616.40446  20819298.078                    20819304.527
 110720735.691 8                  21069438.578
 125236109.799 7  97586648.58544  23831646.750                    23831654.516
 114790386.813 7  89447147.38545  21843879.148                    21843886.453
 124863743.529 6  97296580.27143  23760768.602                    23760776.039
 110234773.982 7  85897365.45046  20976967.617                    20976972.293
 107249591.002 8  83571218.94846  20408910.375                    20408917.191
 11  7 27  3  9  0.0000000  0  8G25G12G01G29G10G04G02G05
 115577449.208 8                  21993666.398
 109426093.415 8  85267168.69446  20823096.391                    20823102.418
 110738871.647 8                  21072889.703
 125153192.324 6  97522037.66744  23815867.586                    23815875.477
 114864774.810 7  89505112.05945  21858034.930                    21858041.898
 124946270.244 6  97360886.83243  23776473.305                    23776480.422
 110264419.138 8  85920465.59646  20982608.750                    20982613.457
 107221414.757 8  83549263.45746  20403548.828                    20403555.281
 11  7 27  3  9 30.0000000  0  8G25G12G01G29G10G04G02G05
 115529957.065 8                  21984629.047
 109446627.088 8  85283168.94846  20827003.438                    20827009.781
 110757186.109 8                  21076374.719
 125070246.768 6  97457404.87144  23800083.180                    23800091.344
 114939603.006 7  89563419.74745  21872274.242                    21872281.348
 125028765.910 6  97425169.18043  23792170.914                    23792179.020
 110294216.059 8  85943683.98646  20988279.297                    20988283.883
 107193809.033 8  83527752.52746  20398295.523                    20398301.598
 11  7 27  3 10  0.0000000  0  8G25G12G01G29G10G04G02G05
 115482988.978 8                  21975691.609
 109467734.789 8  85299616.51746  20831019.969                    20831026.543
 110775677.285 8                  21079893.539
 124987273.266 6  97392750.27843  23784294.078                    23784302.246
 115014867.750 7  89622067.61345  21886596.898                    21886604.176
 125111229.478 6  97489426.53443  23807863.523                    23807871.250
 110324162.903 8  85967019.20646  20993977.836                    20993982.211
 107166773.299 8  83506685.74346  20393150.828                    20393157.133
 11  7 27  3 10 30.0000000  0  8G25G12G01G29G10G04G02G05
 115436547.399 8                  21966853.672
 109489415.277 8  85316510.39546  20835145.641                    20835152.773
 110794344.478 8                  21083445.875
 124904273.365 6  97328075.07344  23768500.047                    23768507.828
 115090567.609 7  89681054.52445  21901001.883                    21901009.246
 125193660.946 6  97553658.84943  23823548.750                    23823557.438
 110354259.747 8  85990471.30646  20999704.711                    20999709.711
 107140309.409 8  83486064.55546  20388115.250                    20388121.484
 11  7 27  3 11  0.0000000  0  8G25G12G01G29G10G04G02G05
 115390634.266 7                  21958116.398
 109511668.377 7  85333850.47546  20839380.289                    20839387.027
 110813187.212 8                  21087031.430
 124821248.743 6  97263380.66344  23752700.555                    23752708.742
 115166700.109 7  89740378.56445  21915489.125                    21915496.738
 125276059.862 6  97617865.83343  23839229.672                    23839237.371
 110384506.175 8  86014039.95246  21005460.734                    21005465.633
 107114417.720 8  83465889.23746  20383187.805                    20383194.535
 11  7 27  3 11 30.0000000  0  8G25G12G01G29G10G04G02G05
 115345250.554 8                  21949480.242
 109534493.083 8  85351635.96846  20843723.938                    20843730.078
 110832203.826 8                  21090650.227
 124738199.536 7  97198667.07344  23736896.977                    23736904.828
 115243261.730 7  89800036.98645  21930058.750                    21930065.387
 125358424.987 6  97682046.49543  23854903.078                    23854910.172
 110414900.702 8  86037724.00746  21011244.539                    21011249.457
 107089098.815 8  83446160.24646  20378370.047                    20378376.480
 11  7 27  3 12  0.0000000  0  8G25G12G01G29G10G04G02G05
 115300398.118 7                  21940946.055
 109557888.387 8  85369866.07646  20848175.820                    20848182.250
 110851393.385 8                  21094301.563
 124655127.029 7  97133935.31944  23721088.891                    23721096.758
 115320249.717 7  89860027.63045  21944709.383                    21944715.875
 125440756.095 6  97746200.60143  23870570.125                    23870577.160
 110445442.679 8  86061522.96846  21017056.461                    21017060.969
 107064352.968 8  83426877.77946  20373660.984                    20373667.105
 11  7 27  3 12 30.0000000  0  8G25G12G01G29G10G04G02G05
 115256078.227 8                  21932511.438
 109581853.496 8  85388540.18246  20852735.867                    20852742.824
 110870754.784 8                  21097986.320
 124572031.931 7  97069185.97244  23705275.984                    23705284.691
 115397661.466 7  89920348.48145  21959440.305                    21959446.570
 125523052.217 6  97810327.47043  23886230.219                    23886238.695
 110476131.126 8  86085436.05946  21022896.688                    21022901.266
 107040180.345 8  83408041.99146  20369061.219                    20369067.766
 11  7 27  3 13  0.0000000  0  8G25G12G01G29G10G04G02G05
 115212292.739 8                  21924179.281
 109606387.714 8  85407657.76046  20857405.258                    20857411.656
 110890287.154 8                  21101702.797
 124488916.003 7  97004420.37944  23689459.742                    23689467.656
 115475494.568 7  89980997.67045  21974250.852                    21974257.969
 125605313.184 6  97874426.92343  23901883.813                    23901891.789
 110506965.793 8  86109463.07546  21028764.039                    21028768.891
 107016582.175 8  83389653.82046  20364570.391                    20364576.867
 11  7 27  3 13 30.0000000  0  8G25G12G01G29G10G04G02G05
 115169043.139 8                  21915949.594
 109631489.750 8  85427217.79546  20862181.359                    20862188.281
 110909989.726 8                  21105452.273
 124405780.258 7  96939639.36144  23673639.180                    23673647.605
 115553746.295 7  90041973.05044  21989142.125                    21989148.766
 125687538.280 6  97938498.42243  23917531.031                    23917538.746
 110537945.635 8  86133603.21546  21034659.445                    21034663.891
 106993558.588 8  83371713.37946  20360189.039                    20360196.160
 11  7 27  3 14  0.0000000  0  8G25G12G01G29G10G04G02G05
 115126330.769 8                  21907821.359
 109657158.571 8  85447219.47846  20867066.609                    20867073.145
 110929861.118 8                  21109233.914
 124322625.500 6  96874843.47644  23657815.406                    23657822.867
 115632413.322 7  90103272.05044  22004111.875                    22004119.086
 125769726.742 6  98002541.38743  23933170.641                    23933179.332
 110569069.689 8  86157855.74246  21040581.563                    21040586.754
 106971109.647 8  83354220.72146  20355917.398                    20355923.992
 11  7 27  3 14 30.0000000  0  8G25G12G01G29G10G04G02G05
 115084157.111 7                  21899796.219
 109683393.721 8  85467662.47046  20872059.031                    20872064.930
 110949900.278 8                  21113046.773
 124239452.460 6  96810033.42344  23641988.750                    23641995.535
 115711493.133 7  90164892.69644  22019160.133                    22019167.320
 125851878.092 6  98066555.42343  23948804.367                    23948811.918
 110600337.213 8  86182220.05346  21046531.914                    21046536.695
 106949235.951 8  83337176.29146  20351754.547                    20351761.297
 11  7 27  3 15  0.0000000  0  8G25G12G01G29G10G04G02G05
 115042524.205 8                  21891873.375
 109710194.247 8  85488546.00246  20877158.547                    20877165.223
 110970106.863 8                  21116892.055
 124156263.552 6  96745210.97544  23626157.891                    23626165.934
 115790983.983 7  90226833.61244  22034286.266                    22034293.672
 125933992.126 6  98130540.34943  23964429.703                    23964437.520
 110631748.172 8  86206696.13746  21052509.148                    21052513.879
 106927938.457 8  83320580.86246  20347701.594                    20347708.551
 11  7 27  3 15 30.0000000  0  8G25G12G01G29G10G04G02G05
 115001432.159 7                  21884054.031
 109737558.048 8  85509868.44946  20882366.070                    20882372.668
 110990478.451 8                  21120768.938
 124073058.263 6  96680375.78144  23610323.945                    23610331.699
 115870881.500 7  90289091.43344  22049490.336                    22049497.617
 126016067.346 6  98194495.03743  23980047.813                    23980056.270
 110663300.307 7  86231282.22346  21058513.906                    21058518.355
 106907216.124 8  83304433.60546  20343758.609                    20343765.445
 11  7 27  3 16  0.0000000  0  8G25G12G01G29G10G04G02G05
 114960883.638 8                  21876337.305
 109765485.189 8  85531629.87446  20887680.602                    20887686.809
 111011015.377 8                  21124676.641
 123989838.787 6  96615529.54444  23594488.078                    23594495.879
 115951184.070 7  90351664.87544  22064772.008                    22064778.957
 126098104.285 6  98258419.93643  23995658.438                    23995667.391
 110694994.274 8  86255978.83146  21064544.398                    21064549.465
 106887070.216 8  83288735.52246  20339925.109                    20339931.660
 11  7 27  3 16 30.0000000  0  8G25G12G01G29G10G04G02G05
 114920879.642 8                  21868725.234
 109793974.004 8  85553828.95146  20893101.578                    20893107.742
 111031716.048 8                  21128615.797
 123906606.254 6  96550673.11544  23578649.750                    23578657.000
 116031888.561 7  90414551.50644  22080129.508                    22080135.988
 126180101.776 6  98322314.03543  24011262.719                    24011270.773
 110726828.903 8  86280785.04646  21070602.859                    21070606.750
 106867501.055 8  83273486.84046  20336201.117                    20336207.465
 11  7 27  3 17  0.0000000  0  8G25G12G01G29G10G04G02G05
 114881421.115 8                  21861216.094
 109823023.180 8  85576464.67146  20898629.203                    20898635.664
 111052579.248 8                  21132586.016
 123823361.487 7  96485807.14844  23562807.883                    23562815.785
 116112991.344 7  90477748.50044  22095562.797                    22095569.770
 126262059.308 6  98386177.00243  24026857.461                    24026866.844
 110758802.920 8  86305699.88546  21076686.742                    21076691.613
 106848508.218 8  83258687.25346  20332587.031                    20332593.461
 11  7 27  3 17 30.0000000  0  8G25G12G01G29G10G04G02G05
 114842509.188 8                  21853811.742
 109852631.499 7  85599536.08946  20904263.766                    20904269.691
 111073603.819 8                  21136586.875
 123740104.957 7  96420932.02244  23546965.242                    23546972.469
 116194489.679 7  90541253.70944  22111071.664                    22111078.109
 126343975.978 6  98450008.16543  24042447.195                    24042454.961
 110790915.345 7  86330722.56646  21082797.586                    21082802.289
 106830091.740 8  83244336.77346  20329082.234                    20329088.863
 11  7 27  3 18  0.0000000  0  8G25G12G01G29G10G04G02G05
 114804145.753 8                  21846510.805
 109882798.070 7  85623042.50546  20910004.023                    20910010.781
 111094789.334 8                  21140618.375
 123656838.238 7  96356048.94044  23531120.539                    23531127.137
 116276381.536 7  90605065.55544  22126654.555                    22126661.926
 126425851.732 6  98513807.44843  24058027.516                    24058035.250
 110823165.968 8  86355852.92846  21088934.805                    21088939.848
 106812252.543 8  83230436.11346  20325687.320                    20325694.008
 11  7 27  3 18 30.0000000  0  8G25G12G01G29G10G04G02G05
 114766332.388 8                  21839315.797
 109913522.016 7  85646983.25246  20915850.352                    20915857.352
 111116134.770 8                  21144680.492
 123573563.175 7  96291159.37044  23515273.398                    23515280.680
 116358664.480 7  90669182.13444  22142313.281                    22142319.602
 126507686.428 6  98577574.68643  24073601.148                    24073607.980
 110855554.562 7  86381090.80746  21095098.344                    21095102.801
 106794990.883 8  83216985.49746  20322402.719                    20322409.355
 11  7 27  3 19  0.0000000  0  8G25G12G01G29G10G04G02G05
 114729069.910 8                  21832224.680
 109944801.780 8  85671357.09046  20921802.984                    20921809.527
 111137639.066 8                  21148772.469
 123490280.866 7  96226264.16644  23499425.367                    23499432.418
 116441334.954 7  90733600.68344  22158044.688                    22158051.359
 126589479.001 6  98641309.16643  24089164.969                    24089172.719
 110888079.901 7  86406435.24546  21101287.289                    21101291.836
 106778306.560 8  83203984.74246  20319227.602                    20319234.113
 11  7 27  3 19 30.0000000  0  8G25G12G01G29G10G04G02G05
 114692358.997 8                  21825239.555
 109976635.837 8  85696162.83446  20927860.813                    20927867.211
 111159300.763 8                  21152894.508
 123406991.499 6  96161363.44544  23483575.320                    23483582.555
 116524389.436 7  90798318.47044  22173849.070                    22173855.742
 126671228.519 6  98705010.07443  24104722.000                    24104729.773
 110920740.535 7  86431885.09346  21107502.586                    21107507.340
 106762199.067 8  83191433.47646  20316162.664                    20316169.184
 11  7 27  3 20  0.0000000  0  8G25G12G01G29G10G04G02G05
 114656201.842 8                  21818358.648
 110009023.375 8  85721399.87346  20934024.164                    20934030.629
 111181119.620 8                  21157046.570
 123323697.197 6  96096458.86143  23467725.117                    23467731.945
 116607826.076 7  90863334.02644  22189726.719                    22189733.660
 126752935.361 6  98768677.73343  24120269.359                    24120277.945
 110953536.792 8  86457440.62946  21113743.641                    21113747.977
 106746669.259 8  83179332.34647  20313207.508                    20313214.289
 11  7 27  3 20 30.0000000  0  8G25G12G01G29G10G04G02G05
 114620599.938 7                  21811583.930
 110041963.313 8  85747067.34046  20940292.555                    20940298.648
 111203095.140 8                  21161228.188
 123240399.275 6  96031551.52243  23451873.875                    23451881.730
 116691642.705 7  90928645.67944  22205676.633                    22205683.234
 126834599.288 6  98832311.95643  24135809.867                    24135816.930
 110986468.380 8  86483101.61446  21120009.695                    21120014.672
 106731717.649 8  83167681.76447  20310362.445                    20310368.797
 11  7 27  3 21  0.0000000  0  8G25G12G01G29G10G04G02G05
 114585553.264 7                  21804914.383
 110075453.802 8  85773163.82846  20946665.148                    20946672.039
 111225225.002 8                  21165439.344
 123157098.213 6  95966641.66644  23436022.063                    23436029.652
 116775835.103 7  90994250.14744  22221698.180                    22221705.133
 126916218.961 6  98895911.72243  24151341.328                    24151348.656
 111019533.374 8  86508866.54446  21126302.297                    21126306.711
 106717343.100 8  83156480.84346  20307626.852                    20307633.109
 11  7 27  3 21 30.0000000  0  8G25G12G01G29G10G04G02G05
 114551063.706 8                  21798351.430
 110109493.712 8  85799688.42146  20953143.219                    20953149.402
 111247508.907 8                  21169680.109
 123073795.716 6  95901730.72044  23420169.719                    23420177.754
 116860400.926 7  91060145.57744  22237790.070                    22237797.273
 126997794.454 6  98959477.06043  24166864.719                    24166871.555
 111052731.719 8  86534735.38746  21132618.766                    21132623.965
 106703546.597 8  83145730.34846  20305001.195                    20305007.719
 11  7 27  3 22  0.0000000  0  8G25G12G01G29G10G04G02G05
 114517132.595 7                  21791894.602
 110144081.596 7  85826640.02346  20959724.398                    20959731.430
 111269946.174 8                  21173949.531
 122990493.150 6  95836819.71444  23404317.875                    23404325.699
 116945337.661 7  91126330.04944  22253952.859                    22253960.137
 127079325.350 6  99023007.64743  24182380.164                    24182386.551
 111086062.833 7  86560707.69246  21138962.242                    21138967.387
 106690327.894 8  83135430.08747  20302485.938                    20302492.137
